Darstellungsparameter: Aktuell verwendete Einstellungen:
Skalierung der Graphiken ... ?
xyx+y,   Skalierungsfaktor:      Skalierung: Modus: x, Faktor: 1
Darstellungszeitraum ... ?
Vom - - bis: - -   Zeitraum: 29.10.2018 - 18.11.2018
Min/Max/Avg-Anzeige ... ?
Zeige MMA aktuell
Zeige MMA Monat
Zeige MMA alles
Zeige --A aktuell
Zeige --A Monat
Zeige --A alles
Keine MMA-Anzeige
MMA:
Keine MMA-Graphiken
MMA-Basis: 29.10.2018 - 18.11.2018
Quicknavigation für Darstellung... ?
Tage:      1T, 2T, 3T, 5T -1T -2T -3T -5T +1T +2T +3T +5T
Wochen: 1W, 2W, 3W -1W -2W -3W +1W +2W +3W
Monate: 1M, 3M, 6M -1M -3M -6M +1M +3M +6M
Jahre:    1J, 3J, 5J, 10J -1J -3J -5J -10J +1J +3J +5J +10J
Nutze für die Darstellung ... ?
Originaldaten oder Mittelwerte auf ...
Stundenbasis Tagesbasis Wochenbasis
Monatsbasis Jahresbasis      Datenbasis: Original-Daten
Darstellen als:
Statistik (Auto) Statistik J:M      Darstellung:
Zur Graphik,    zurück zur Übersicht aller Sensoren.
 
Tabellarische Datenbersicht: ?
 
Sensor: Nr:Datum:Temp:Feuchte:Taupunkt:
Aussen-T/F 1 29-10-2018 00:00:00 6.3 C 82 % 3.46 C
2 29-10-2018 00:05:00 6.3 C 82 % 3.46 C
3 29-10-2018 00:10:00 6.3 C 82 % 3.46 C
4 29-10-2018 00:15:00 6.3 C 82 % 3.46 C
5 29-10-2018 00:20:00 6.3 C 83 % 3.63 C
6 29-10-2018 00:25:00 6.3 C 83 % 3.63 C
7 29-10-2018 00:30:00 6.3 C 83 % 3.63 C
8 29-10-2018 00:35:00 6.2 C 83 % 3.53 C
9 29-10-2018 00:40:00 6.2 C 83 % 3.53 C
10 29-10-2018 00:45:00 6.3 C 82 % 3.46 C
11 29-10-2018 00:50:00 6.4 C 81 % 3.38 C
12 29-10-2018 00:55:00 6.6 C 80 % 3.4 C
13 29-10-2018 01:00:00 6.7 C 79 % 3.32 C
14 29-10-2018 01:05:00 6.8 C 79 % 3.42 C
15 29-10-2018 01:10:00 6.8 C 79 % 3.42 C
16 29-10-2018 01:15:00 6.9 C 79 % 3.52 C
17 29-10-2018 01:20:00 6.9 C 79 % 3.52 C
18 29-10-2018 01:25:00 6.9 C 79 % 3.52 C
19 29-10-2018 01:30:00 6.9 C 79 % 3.52 C
20 29-10-2018 01:35:00 6.9 C 79 % 3.52 C
21 29-10-2018 01:40:00 6.9 C 79 % 3.52 C
22 29-10-2018 01:45:00 6.9 C 79 % 3.52 C
23 29-10-2018 01:50:00 6.9 C 79 % 3.52 C
24 29-10-2018 01:55:00 6.9 C 79 % 3.52 C
25 29-10-2018 02:00:00 6.9 C 79 % 3.52 C
Sensor: Nr:Datum:Temp:Feuchte:Taupunkt:
Aussen-T/F 26 29-10-2018 02:05:00 6.9 C 79 % 3.52 C
27 29-10-2018 02:10:00 6.9 C 79 % 3.52 C
28 29-10-2018 02:15:00 6.9 C 79 % 3.52 C
29 29-10-2018 02:20:00 6.9 C 79 % 3.52 C
30 29-10-2018 02:25:00 6.9 C 79 % 3.52 C
31 29-10-2018 02:30:00 6.9 C 79 % 3.52 C
32 29-10-2018 02:35:00 6.9 C 79 % 3.52 C
33 29-10-2018 02:40:00 6.9 C 79 % 3.52 C
34 29-10-2018 02:45:00 6.9 C 79 % 3.52 C
35 29-10-2018 02:50:00 6.9 C 79 % 3.52 C
36 29-10-2018 02:55:00 6.9 C 79 % 3.52 C
37 29-10-2018 03:00:00 6.8 C 79 % 3.42 C
38 29-10-2018 03:05:00 6.8 C 80 % 3.6 C
39 29-10-2018 03:10:00 6.8 C 81 % 3.77 C
40 29-10-2018 03:15:00 6.7 C 81 % 3.68 C
41 29-10-2018 03:20:00 6.6 C 82 % 3.75 C
42 29-10-2018 03:25:00 6.6 C 83 % 3.92 C
43 29-10-2018 03:30:00 6.5 C 83 % 3.83 C
44 29-10-2018 03:35:00 6.4 C 84 % 3.9 C
45 29-10-2018 03:40:00 6.4 C 85 % 4.07 C
46 29-10-2018 03:45:00 6.4 C 86 % 4.23 C
47 29-10-2018 03:50:00 6.3 C 86 % 4.14 C
48 29-10-2018 03:55:00 6.3 C 87 % 4.3 C
49 29-10-2018 04:00:00 6.2 C 87 % 4.2 C
50 29-10-2018 04:05:00 6.1 C 87 % 4.1 C
Sensor: Nr:Datum:Temp:Feuchte:Taupunkt:
Aussen-T/F 51 29-10-2018 04:10:00 6.1 C 87 % 4.1 C
52 29-10-2018 04:15:00 6 C 87 % 4 C
53 29-10-2018 04:20:00 5.9 C 88 % 4.07 C
54 29-10-2018 04:25:00 5.9 C 88 % 4.07 C
55 29-10-2018 04:30:00 5.8 C 88 % 3.97 C
56 29-10-2018 04:35:00 5.8 C 88 % 3.97 C
57 29-10-2018 04:40:00 5.8 C 88 % 3.97 C
58 29-10-2018 04:45:00 5.8 C 88 % 3.97 C
59 29-10-2018 04:50:00 5.9 C 88 % 4.07 C
60 29-10-2018 04:55:00 5.9 C 88 % 4.07 C
61 29-10-2018 05:00:00 5.9 C 88 % 4.07 C
62 29-10-2018 05:05:00 5.9 C 88 % 4.07 C
63 29-10-2018 05:10:00 5.9 C 87 % 3.91 C
64 29-10-2018 05:15:00 5.9 C 87 % 3.91 C
65 29-10-2018 05:20:00 5.9 C 87 % 3.91 C
66 29-10-2018 05:25:00 5.9 C 87 % 3.91 C
67 29-10-2018 05:30:00 6 C 87 % 4 C
68 29-10-2018 05:35:00 6 C 87 % 4 C
69 29-10-2018 05:40:00 6 C 87 % 4 C
70 29-10-2018 05:45:00 6.1 C 87 % 4.1 C
71 29-10-2018 05:50:00 6.1 C 86 % 3.94 C
72 29-10-2018 05:55:00 6.1 C 87 % 4.1 C
73 29-10-2018 06:00:00 6.1 C 86 % 3.94 C
74 29-10-2018 06:05:00 6.1 C 86 % 3.94 C
75 29-10-2018 06:10:00 6.2 C 86 % 4.04 C
Sensor: Nr:Datum:Temp:Feuchte:Taupunkt:
Aussen-T/F 76 29-10-2018 06:15:00 6.2 C 86 % 4.04 C
77 29-10-2018 06:20:00 6.2 C 86 % 4.04 C
78 29-10-2018 06:25:00 6.2 C 86 % 4.04 C
79 29-10-2018 06:30:00 6.2 C 85 % 3.87 C
80 29-10-2018 06:35:00 6.2 C 85 % 3.87 C
81 29-10-2018 06:40:00 6.2 C 85 % 3.87 C
82 29-10-2018 06:45:00 6.2 C 85 % 3.87 C
83 29-10-2018 06:50:00 6.2 C 85 % 3.87 C
84 29-10-2018 06:55:00 6.3 C 85 % 3.97 C
85 29-10-2018 07:00:00 6.3 C 85 % 3.97 C
86 29-10-2018 07:05:00 6.3 C 85 % 3.97 C
87 29-10-2018 07:10:00 6.3 C 85 % 3.97 C
88 29-10-2018 07:15:00 6.3 C 85 % 3.97 C
89 29-10-2018 07:20:00 6.3 C 85 % 3.97 C
90 29-10-2018 07:25:00 6.3 C 85 % 3.97 C
91 29-10-2018 07:30:00 6.3 C 85 % 3.97 C
92 29-10-2018 07:35:00 6.3 C 85 % 3.97 C
93 29-10-2018 07:40:00 6.3 C 85 % 3.97 C
94 29-10-2018 07:45:00 6.3 C 85 % 3.97 C
95 29-10-2018 07:50:00 6.2 C 85 % 3.87 C
96 29-10-2018 07:55:00 6.2 C 85 % 3.87 C
97 29-10-2018 08:00:00 6.2 C 85 % 3.87 C
98 29-10-2018 08:05:00 6.2 C 85 % 3.87 C
99 29-10-2018 08:10:00 6.2 C 85 % 3.87 C
100 29-10-2018 08:15:00 6.2 C 85 % 3.87 C
Sensor: Nr:Datum:Temp:Feuchte:Taupunkt:
Aussen-T/F 101 29-10-2018 08:20:00 6.3 C 85 % 3.97 C
102 29-10-2018 08:25:00 6.3 C 85 % 3.97 C
103 29-10-2018 08:30:00 6.3 C 85 % 3.97 C
104 29-10-2018 08:35:00 6.3 C 85 % 3.97 C
105 29-10-2018 08:40:00 6.3 C 85 % 3.97 C
106 29-10-2018 08:45:00 6.3 C 85 % 3.97 C
107 29-10-2018 08:50:00 6.3 C 85 % 3.97 C
108 29-10-2018 08:55:00 6.3 C 85 % 3.97 C
109 29-10-2018 09:00:00 6.3 C 85 % 3.97 C
110 29-10-2018 09:05:00 6.3 C 85 % 3.97 C
111 29-10-2018 09:10:00 6.3 C 85 % 3.97 C
112 29-10-2018 09:15:00 6.3 C 85 % 3.97 C
113 29-10-2018 09:20:00 6.3 C 85 % 3.97 C
114 29-10-2018 09:25:00 6.3 C 85 % 3.97 C
115 29-10-2018 09:30:00 6.3 C 85 % 3.97 C
116 29-10-2018 09:35:00 6.3 C 85 % 3.97 C
117 29-10-2018 09:40:00 6.4 C 85 % 4.07 C
118 29-10-2018 09:45:00 6.4 C 85 % 4.07 C
119 29-10-2018 09:50:00 6.4 C 84 % 3.9 C
120 29-10-2018 09:55:00 6.4 C 85 % 4.07 C
121 29-10-2018 10:00:00 6.5 C 84 % 4 C
122 29-10-2018 10:05:00 6.5 C 84 % 4 C
123 29-10-2018 10:10:00 6.5 C 84 % 4 C
124 29-10-2018 10:15:00 6.5 C 84 % 4 C
125 29-10-2018 10:20:00 6.5 C 84 % 4 C
Sensor: Nr:Datum:Temp:Feuchte:Taupunkt:
Aussen-T/F 126 29-10-2018 10:25:00 6.5 C 84 % 4 C
127 29-10-2018 10:30:00 6.5 C 84 % 4 C
128 29-10-2018 10:35:00 6.5 C 84 % 4 C
129 29-10-2018 10:40:00 6.4 C 84 % 3.9 C
130 29-10-2018 10:45:00 6.5 C 84 % 4 C
131 29-10-2018 10:50:00 6.5 C 84 % 4 C
132 29-10-2018 10:55:00 6.5 C 84 % 4 C
133 29-10-2018 11:00:00 6.6 C 84 % 4.1 C
134 29-10-2018 11:05:00 6.6 C 84 % 4.1 C
135 29-10-2018 11:10:00 6.6 C 84 % 4.1 C
136 29-10-2018 11:15:00 6.7 C 84 % 4.19 C
137 29-10-2018 11:20:00 6.7 C 83 % 4.02 C
138 29-10-2018 11:25:00 6.7 C 84 % 4.19 C
139 29-10-2018 11:30:00 6.8 C 83 % 4.12 C
140 29-10-2018 11:35:00 6.8 C 83 % 4.12 C
141 29-10-2018 11:40:00 6.8 C 83 % 4.12 C
142 29-10-2018 11:45:00 6.8 C 83 % 4.12 C
143 29-10-2018 11:50:00 6.7 C 83 % 4.02 C
144 29-10-2018 11:55:00 6.7 C 83 % 4.02 C
145 29-10-2018 12:00:00 6.8 C 84 % 4.29 C
146 29-10-2018 12:05:00 6.8 C 84 % 4.29 C
147 29-10-2018 12:10:00 6.8 C 83 % 4.12 C
148 29-10-2018 12:15:00 6.8 C 84 % 4.29 C
149 29-10-2018 12:20:00 6.8 C 83 % 4.12 C
150 29-10-2018 12:25:00 6.8 C 84 % 4.29 C
Sensor: Nr:Datum:Temp:Feuchte:Taupunkt:
Aussen-T/F 151 29-10-2018 12:30:00 6.8 C 84 % 4.29 C
152 29-10-2018 12:35:00 6.8 C 84 % 4.29 C
153 29-10-2018 12:40:00 6.8 C 84 % 4.29 C
154 29-10-2018 12:45:00 6.8 C 84 % 4.29 C
155 29-10-2018 12:50:00 6.8 C 83 % 4.12 C
156 29-10-2018 12:55:00 6.8 C 84 % 4.29 C
157 29-10-2018 13:00:00 6.8 C 83 % 4.12 C
158 29-10-2018 13:05:00 6.8 C 84 % 4.29 C
159 29-10-2018 13:10:00 6.8 C 83 % 4.12 C
160 29-10-2018 13:15:00 6.8 C 83 % 4.12 C
161 29-10-2018 13:20:00 6.9 C 83 % 4.22 C
162 29-10-2018 13:25:00 6.9 C 83 % 4.22 C
163 29-10-2018 13:30:00 6.9 C 83 % 4.22 C
164 29-10-2018 13:35:00 6.9 C 83 % 4.22 C
165 29-10-2018 13:40:00 6.9 C 83 % 4.22 C
166 29-10-2018 13:45:00 6.9 C 83 % 4.22 C
167 29-10-2018 13:50:00 6.9 C 83 % 4.22 C
168 29-10-2018 13:55:00 6.9 C 83 % 4.22 C
169 29-10-2018 14:00:00 6.9 C 83 % 4.22 C
170 29-10-2018 14:05:00 6.9 C 83 % 4.22 C
171 29-10-2018 14:10:00 6.9 C 83 % 4.22 C
172 29-10-2018 14:15:00 6.9 C 83 % 4.22 C
173 29-10-2018 14:20:00 6.8 C 83 % 4.12 C
174 29-10-2018 14:25:00 6.8 C 83 % 4.12 C
175 29-10-2018 14:30:00 6.9 C 83 % 4.22 C
Sensor: Nr:Datum:Temp:Feuchte:Taupunkt:
Aussen-T/F 176 29-10-2018 14:35:00 6.9 C 83 % 4.22 C
177 29-10-2018 14:40:00 6.9 C 83 % 4.22 C
178 29-10-2018 14:45:00 6.9 C 83 % 4.22 C
179 29-10-2018 14:50:00 7 C 83 % 4.32 C
180 29-10-2018 14:55:00 7 C 82 % 4.14 C
181 29-10-2018 15:00:00 6.9 C 82 % 4.05 C
182 29-10-2018 15:05:00 6.9 C 82 % 4.05 C
183 29-10-2018 15:10:00 6.9 C 82 % 4.05 C
184 29-10-2018 15:15:00 6.9 C 83 % 4.22 C
185 29-10-2018 15:20:00 6.9 C 83 % 4.22 C
186 29-10-2018 15:25:00 6.9 C 83 % 4.22 C
187 29-10-2018 15:30:00 6.9 C 82 % 4.05 C
188 29-10-2018 15:35:00 6.8 C 82 % 3.95 C
189 29-10-2018 15:40:00 6.9 C 82 % 4.05 C
190 29-10-2018 15:45:00 6.9 C 82 % 4.05 C
191 29-10-2018 15:50:00 6.9 C 83 % 4.22 C
192 29-10-2018 15:55:00 6.9 C 83 % 4.22 C
193 29-10-2018 16:00:00 6.9 C 83 % 4.22 C
194 29-10-2018 16:05:00 6.9 C 83 % 4.22 C
195 29-10-2018 16:10:00 6.9 C 83 % 4.22 C
196 29-10-2018 16:15:00 6.9 C 83 % 4.22 C
197 29-10-2018 16:20:00 6.9 C 83 % 4.22 C
198 29-10-2018 16:25:00 6.9 C 83 % 4.22 C
199 29-10-2018 16:30:00 6.9 C 83 % 4.22 C
200 29-10-2018 16:35:00 6.9 C 83 % 4.22 C
Sensor: Nr:Datum:Temp:Feuchte:Taupunkt:
Aussen-T/F 201 29-10-2018 16:40:00 6.8 C 83 % 4.12 C
202 29-10-2018 16:45:00 6.8 C 83 % 4.12 C
203 29-10-2018 16:50:00 6.8 C 83 % 4.12 C
204 29-10-2018 16:55:00 6.7 C 84 % 4.19 C
205 29-10-2018 17:00:00 6.7 C 84 % 4.19 C
206 29-10-2018 17:05:00 6.7 C 84 % 4.19 C
207 29-10-2018 17:10:00 6.7 C 84 % 4.19 C
208 29-10-2018 17:15:00 6.7 C 84 % 4.19 C
209 29-10-2018 17:20:00 6.7 C 84 % 4.19 C
210 29-10-2018 17:25:00 6.7 C 84 % 4.19 C
211 29-10-2018 17:30:00 6.7 C 84 % 4.19 C
212 29-10-2018 17:35:00 6.6 C 84 % 4.1 C
213 29-10-2018 17:40:00 6.6 C 84 % 4.1 C
214 29-10-2018 17:45:00 6.6 C 84 % 4.1 C
215 29-10-2018 17:50:00 6.6 C 84 % 4.1 C
216 29-10-2018 17:55:00 6.6 C 84 % 4.1 C
217 29-10-2018 18:00:00 6.5 C 84 % 4 C
218 29-10-2018 18:05:00 6.5 C 84 % 4 C
219 29-10-2018 18:10:00 6.5 C 84 % 4 C
220 29-10-2018 18:15:00 6.4 C 84 % 3.9 C
221 29-10-2018 18:20:00 6.4 C 84 % 3.9 C
222 29-10-2018 18:25:00 6.4 C 84 % 3.9 C
223 29-10-2018 18:30:00 6.4 C 85 % 4.07 C
224 29-10-2018 18:35:00 6.4 C 85 % 4.07 C
225 29-10-2018 18:40:00 6.4 C 85 % 4.07 C
Sensor: Nr:Datum:Temp:Feuchte:Taupunkt:
Aussen-T/F 226 29-10-2018 18:45:00 6.4 C 85 % 4.07 C
227 29-10-2018 18:50:00 6.4 C 85 % 4.07 C
228 29-10-2018 18:55:00 6.4 C 85 % 4.07 C
229 29-10-2018 19:00:00 6.4 C 85 % 4.07 C
230 29-10-2018 19:05:00 6.4 C 85 % 4.07 C
231 29-10-2018 19:10:00 6.3 C 85 % 3.97 C
232 29-10-2018 19:15:00 6.3 C 85 % 3.97 C
233 29-10-2018 19:20:00 6.3 C 85 % 3.97 C
234 29-10-2018 19:25:00 6.3 C 86 % 4.14 C
235 29-10-2018 19:30:00 6.3 C 86 % 4.14 C
236 29-10-2018 19:35:00 6.3 C 86 % 4.14 C
237 29-10-2018 19:40:00 6.3 C 86 % 4.14 C
238 29-10-2018 19:45:00 6.3 C 86 % 4.14 C
239 29-10-2018 19:50:00 6.3 C 86 % 4.14 C
240 29-10-2018 19:55:00 6.3 C 86 % 4.14 C
241 29-10-2018 20:00:00 6.3 C 86 % 4.14 C
242 29-10-2018 20:05:00 6.3 C 86 % 4.14 C
243 29-10-2018 20:10:00 6.3 C 86 % 4.14 C
244 29-10-2018 20:15:00 6.3 C 86 % 4.14 C
245 29-10-2018 20:20:00 6.3 C 86 % 4.14 C
246 29-10-2018 20:25:00 6.3 C 86 % 4.14 C
247 29-10-2018 20:30:00 6.3 C 86 % 4.14 C
248 29-10-2018 20:35:00 6.3 C 86 % 4.14 C
249 29-10-2018 20:40:00 6.4 C 86 % 4.23 C
250 29-10-2018 20:45:00 6.4 C 86 % 4.23 C
Sensor: Nr:Datum:Temp:Feuchte:Taupunkt:
Aussen-T/F 251 29-10-2018 20:50:00 6.4 C 86 % 4.23 C
252 29-10-2018 20:55:00 6.4 C 86 % 4.23 C
253 29-10-2018 21:00:00 6.4 C 87 % 4.4 C
254 29-10-2018 21:05:00 6.4 C 88 % 4.56 C
255 29-10-2018 21:10:00 6.3 C 88 % 4.46 C
256 29-10-2018 21:15:00 6.3 C 88 % 4.46 C
257 29-10-2018 21:20:00 6.3 C 89 % 4.62 C
258 29-10-2018 21:25:00 6.2 C 89 % 4.53 C
259 29-10-2018 21:30:00 6.2 C 90 % 4.69 C
260 29-10-2018 21:35:00 6.1 C 90 % 4.59 C
261 29-10-2018 21:40:00 6.1 C 90 % 4.59 C
262 29-10-2018 21:45:00 6 C 90 % 4.49 C
263 29-10-2018 21:50:00 5.9 C 91 % 4.55 C
264 29-10-2018 21:55:00 5.9 C 91 % 4.55 C
265 29-10-2018 22:00:00 5.9 C 91 % 4.55 C
266 29-10-2018 22:05:00 5.8 C 91 % 4.45 C
267 29-10-2018 22:10:00 5.8 C 92 % 4.6 C
268 29-10-2018 22:15:00 5.8 C 92 % 4.6 C
269 29-10-2018 22:20:00 5.8 C 92 % 4.6 C
270 29-10-2018 22:25:00 5.7 C 92 % 4.5 C
271 29-10-2018 22:30:00 5.7 C 92 % 4.5 C
272 29-10-2018 22:35:00 5.7 C 92 % 4.5 C
273 29-10-2018 22:40:00 5.7 C 92 % 4.5 C
274 29-10-2018 22:45:00 5.7 C 92 % 4.5 C
275 29-10-2018 22:50:00 5.7 C 93 % 4.66 C
Sensor: Nr:Datum:Temp:Feuchte:Taupunkt:
Aussen-T/F 276 29-10-2018 22:55:00 5.6 C 92 % 4.41 C
277 29-10-2018 23:00:00 5.6 C 93 % 4.56 C
278 29-10-2018 23:05:00 5.6 C 93 % 4.56 C
279 29-10-2018 23:10:00 5.6 C 93 % 4.56 C
280 29-10-2018 23:15:00 5.6 C 93 % 4.56 C
281 29-10-2018 23:20:00 5.6 C 93 % 4.56 C
282 29-10-2018 23:25:00 5.6 C 93 % 4.56 C
283 29-10-2018 23:30:00 5.6 C 93 % 4.56 C
284 29-10-2018 23:35:00 5.6 C 93 % 4.56 C
285 29-10-2018 23:40:00 5.6 C 93 % 4.56 C
286 29-10-2018 23:45:00 5.6 C 94 % 4.71 C
287 29-10-2018 23:50:00 5.6 C 94 % 4.71 C
288 29-10-2018 23:55:00 5.6 C 94 % 4.71 C
289 30-10-2018 00:00:00 5.6 C 94 % 4.71 C
290 30-10-2018 00:05:00 5.6 C 94 % 4.71 C
291 30-10-2018 00:10:00 5.6 C 94 % 4.71 C
292 30-10-2018 00:15:00 5.6 C 94 % 4.71 C
293 30-10-2018 00:20:00 5.6 C 94 % 4.71 C
294 30-10-2018 00:25:00 5.7 C 94 % 4.81 C
295 30-10-2018 00:30:00 5.7 C 94 % 4.81 C
296 30-10-2018 00:35:00 5.7 C 94 % 4.81 C
297 30-10-2018 00:40:00 5.7 C 94 % 4.81 C
298 30-10-2018 00:45:00 5.7 C 94 % 4.81 C
299 30-10-2018 00:50:00 5.7 C 94 % 4.81 C
300 30-10-2018 00:55:00 5.7 C 94 % 4.81 C
Sensor: Nr:Datum:Temp:Feuchte:Taupunkt:
Aussen-T/F 301 30-10-2018 01:00:00 5.7 C 94 % 4.81 C
302 30-10-2018 01:05:00 5.7 C 94 % 4.81 C
303 30-10-2018 01:10:00 5.7 C 94 % 4.81 C
304 30-10-2018 01:15:00 5.7 C 94 % 4.81 C
305 30-10-2018 01:20:00 5.7 C 94 % 4.81 C
306 30-10-2018 01:25:00 5.7 C 94 % 4.81 C
307 30-10-2018 01:30:00 5.7 C 94 % 4.81 C
308 30-10-2018 01:35:00 5.7 C 94 % 4.81 C
309 30-10-2018 01:40:00 5.7 C 94 % 4.81 C
310 30-10-2018 01:45:00 5.7 C 95 % 4.96 C
311 30-10-2018 01:50:00 5.7 C 95 % 4.96 C
312 30-10-2018 01:55:00 5.7 C 95 % 4.96 C
313 30-10-2018 02:00:00 5.6 C 95 % 4.86 C
314 30-10-2018 02:05:00 5.6 C 95 % 4.86 C
315 30-10-2018 02:10:00 5.6 C 95 % 4.86 C
316 30-10-2018 02:15:00 5.7 C 95 % 4.96 C
317 30-10-2018 02:20:00 5.7 C 95 % 4.96 C
318 30-10-2018 02:25:00 5.7 C 95 % 4.96 C
319 30-10-2018 02:30:00 5.7 C 95 % 4.96 C
320 30-10-2018 02:35:00 5.7 C 95 % 4.96 C
321 30-10-2018 02:40:00 5.7 C 95 % 4.96 C
322 30-10-2018 02:45:00 5.7 C 95 % 4.96 C
323 30-10-2018 02:50:00 5.7 C 95 % 4.96 C
324 30-10-2018 02:55:00 5.7 C 95 % 4.96 C
325 30-10-2018 03:00:00 5.7 C 95 % 4.96 C
Sensor: Nr:Datum:Temp:Feuchte:Taupunkt:
Aussen-T/F 326 30-10-2018 03:05:00 5.7 C 95 % 4.96 C
327 30-10-2018 03:10:00 5.7 C 96 % 5.11 C
328 30-10-2018 03:15:00 5.7 C 95 % 4.96 C
329 30-10-2018 03:20:00 5.7 C 96 % 5.11 C
330 30-10-2018 03:25:00 5.7 C 96 % 5.11 C
331 30-10-2018 03:30:00 5.7 C 95 % 4.96 C
332 30-10-2018 03:35:00 5.7 C 95 % 4.96 C
333 30-10-2018 03:40:00 5.7 C 95 % 4.96 C
334 30-10-2018 03:45:00 5.7 C 95 % 4.96 C
335 30-10-2018 03:50:00 5.7 C 96 % 5.11 C
336 30-10-2018 03:55:00 5.7 C 96 % 5.11 C
337 30-10-2018 04:00:00 5.7 C 96 % 5.11 C
338 30-10-2018 04:05:00 5.7 C 96 % 5.11 C
339 30-10-2018 04:10:00 5.7 C 96 % 5.11 C
340 30-10-2018 04:15:00 5.8 C 96 % 5.21 C
341 30-10-2018 04:20:00 5.8 C 96 % 5.21 C
342 30-10-2018 04:25:00 5.8 C 96 % 5.21 C
343 30-10-2018 04:30:00 5.8 C 96 % 5.21 C
344 30-10-2018 04:35:00 5.8 C 96 % 5.21 C
345 30-10-2018 04:40:00 5.9 C 96 % 5.31 C
346 30-10-2018 04:45:00 5.9 C 96 % 5.31 C
347 30-10-2018 04:50:00 5.9 C 96 % 5.31 C
348 30-10-2018 04:55:00 5.9 C 96 % 5.31 C
349 30-10-2018 05:00:00 5.9 C 96 % 5.31 C
350 30-10-2018 05:05:00 5.9 C 96 % 5.31 C
Sensor: Nr:Datum:Temp:Feuchte:Taupunkt:
Aussen-T/F 351 30-10-2018 05:10:00 5.9 C 96 % 5.31 C
352 30-10-2018 05:15:00 6 C 96 % 5.41 C
353 30-10-2018 05:20:00 6 C 96 % 5.41 C
354 30-10-2018 05:25:00 6 C 96 % 5.41 C
355 30-10-2018 05:30:00 6 C 96 % 5.41 C
356 30-10-2018 05:35:00 6 C 96 % 5.41 C
357 30-10-2018 05:40:00 6.1 C 96 % 5.51 C
358 30-10-2018 05:45:00 6.1 C 96 % 5.51 C
359 30-10-2018 05:50:00 6.1 C 96 % 5.51 C
360 30-10-2018 05:55:00 6.1 C 96 % 5.51 C
361 30-10-2018 06:00:00 6.1 C 96 % 5.51 C
362 30-10-2018 06:05:00 6.1 C 96 % 5.51 C
363 30-10-2018 06:10:00 6.1 C 96 % 5.51 C
364 30-10-2018 06:15:00 6.1 C 96 % 5.51 C
365 30-10-2018 06:20:00 6.1 C 96 % 5.51 C
366 30-10-2018 06:25:00 6.1 C 96 % 5.51 C
367 30-10-2018 06:30:00 6.1 C 96 % 5.51 C
368 30-10-2018 06:35:00 6.1 C 96 % 5.51 C
369 30-10-2018 06:40:00 6.2 C 96 % 5.61 C
370 30-10-2018 06:45:00 6.2 C 96 % 5.61 C
371 30-10-2018 06:50:00 6.2 C 96 % 5.61 C
372 30-10-2018 06:55:00 6.2 C 96 % 5.61 C
373 30-10-2018 07:00:00 6.2 C 96 % 5.61 C
374 30-10-2018 07:05:00 6.2 C 96 % 5.61 C
375 30-10-2018 07:10:00 6.3 C 96 % 5.71 C
Sensor: Nr:Datum:Temp:Feuchte:Taupunkt:
Aussen-T/F 376 30-10-2018 07:15:00 6.4 C 96 % 5.81 C
377 30-10-2018 07:20:00 6.6 C 96 % 6.01 C
378 30-10-2018 07:25:00 6.7 C 97 % 6.26 C
379 30-10-2018 07:30:00 6.7 C 97 % 6.26 C
380 30-10-2018 07:35:00 6.8 C 97 % 6.36 C
381 30-10-2018 07:40:00 6.8 C 96 % 6.21 C
382 30-10-2018 07:45:00 6.8 C 96 % 6.21 C
383 30-10-2018 07:50:00 6.8 C 96 % 6.21 C
384 30-10-2018 07:55:00 6.8 C 96 % 6.21 C
385 30-10-2018 08:00:00 6.8 C 96 % 6.21 C
386 30-10-2018 08:05:00 6.7 C 96 % 6.11 C
387 30-10-2018 08:10:00 6.7 C 96 % 6.11 C
388 30-10-2018 08:15:00 6.7 C 96 % 6.11 C
389 30-10-2018 08:20:00 6.6 C 96 % 6.01 C
390 30-10-2018 08:25:00 6.6 C 96 % 6.01 C
391 30-10-2018 08:30:00 6.6 C 96 % 6.01 C
392 30-10-2018 08:35:00 6.6 C 96 % 6.01 C
393 30-10-2018 08:40:00 6.6 C 96 % 6.01 C
394 30-10-2018 08:45:00 6.6 C 96 % 6.01 C
395 30-10-2018 08:50:00 6.6 C 96 % 6.01 C
396 30-10-2018 08:55:00 6.6 C 96 % 6.01 C
397 30-10-2018 09:00:00 6.6 C 96 % 6.01 C
398 30-10-2018 09:05:00 6.5 C 96 % 5.91 C
399 30-10-2018 09:10:00 6.4 C 96 % 5.81 C
400 30-10-2018 09:15:00 6.4 C 96 % 5.81 C
Sensor: Nr:Datum:Temp:Feuchte:Taupunkt:
Aussen-T/F 401 30-10-2018 09:20:00 6.3 C 95 % 5.56 C
402 30-10-2018 09:25:00 6.2 C 95 % 5.46 C
403 30-10-2018 09:30:00 6.2 C 95 % 5.46 C
404 30-10-2018 09:35:00 6.2 C 94 % 5.31 C
405 30-10-2018 09:40:00 6.1 C 94 % 5.21 C
406 30-10-2018 09:45:00 6.1 C 94 % 5.21 C
407 30-10-2018 09:50:00 6.1 C 94 % 5.21 C
408 30-10-2018 09:55:00 6.1 C 93 % 5.06 C
409 30-10-2018 10:00:00 6.1 C 93 % 5.06 C
410 30-10-2018 10:05:00 6 C 92 % 4.8 C
411 30-10-2018 10:10:00 5.9 C 91 % 4.55 C
412 30-10-2018 10:15:00 5.8 C 91 % 4.45 C
413 30-10-2018 10:20:00 5.8 C 91 % 4.45 C
414 30-10-2018 10:25:00 5.7 C 91 % 4.35 C
415 30-10-2018 10:30:00 5.7 C 90 % 4.19 C
416 30-10-2018 10:35:00 5.7 C 90 % 4.19 C
417 30-10-2018 10:40:00 5.7 C 90 % 4.19 C
418 30-10-2018 10:45:00 5.7 C 89 % 4.03 C
419 30-10-2018 10:50:00 5.7 C 89 % 4.03 C
420 30-10-2018 10:55:00 5.8 C 89 % 4.13 C
421 30-10-2018 11:00:00 5.8 C 88 % 3.97 C
422 30-10-2018 11:05:00 5.8 C 87 % 3.81 C
423 30-10-2018 11:10:00 5.8 C 86 % 3.64 C
424 30-10-2018 11:15:00 5.8 C 87 % 3.81 C
425 30-10-2018 11:20:00 5.8 C 86 % 3.64 C
Sensor: Nr:Datum:Temp:Feuchte:Taupunkt:
Aussen-T/F 426 30-10-2018 11:25:00 5.8 C 86 % 3.64 C
427 30-10-2018 11:30:00 5.8 C 86 % 3.64 C
428 30-10-2018 11:35:00 5.9 C 85 % 3.58 C
429 30-10-2018 11:40:00 5.9 C 85 % 3.58 C
430 30-10-2018 11:45:00 6 C 85 % 3.67 C
431 30-10-2018 11:50:00 5.9 C 83 % 3.24 C
432 30-10-2018 11:55:00 6 C 84 % 3.51 C
433 30-10-2018 12:00:00 6.1 C 85 % 3.77 C
434 30-10-2018 12:05:00 6.1 C 83 % 3.44 C
435 30-10-2018 12:10:00 6.1 C 84 % 3.61 C
436 30-10-2018 12:15:00 5.9 C 83 % 3.24 C
437 30-10-2018 12:20:00 5.9 C 84 % 3.41 C
438 30-10-2018 12:25:00 5.7 C 83 % 3.04 C
439 30-10-2018 12:30:00 5.6 C 84 % 3.12 C
440 30-10-2018 12:35:00 5.5 C 86 % 3.35 C
441 30-10-2018 12:40:00 5.4 C 86 % 3.25 C
442 30-10-2018 12:45:00 5.4 C 86 % 3.25 C
443 30-10-2018 12:50:00 5.3 C 87 % 3.32 C
444 30-10-2018 12:55:00 5.3 C 87 % 3.32 C
445 30-10-2018 13:00:00 5.3 C 87 % 3.32 C
446 30-10-2018 13:05:00 5.3 C 87 % 3.32 C
447 30-10-2018 13:10:00 5.4 C 87 % 3.41 C
448 30-10-2018 13:15:00 5.5 C 85 % 3.18 C
449 30-10-2018 13:20:00 5.6 C 86 % 3.45 C
450 30-10-2018 13:25:00 5.6 C 85 % 3.28 C
Sensor: Nr:Datum:Temp:Feuchte:Taupunkt:
Aussen-T/F 451 30-10-2018 13:30:00 5.6 C 84 % 3.12 C
452 30-10-2018 13:35:00 5.7 C 85 % 3.38 C
453 30-10-2018 13:40:00 5.7 C 84 % 3.21 C
454 30-10-2018 13:45:00 5.8 C 84 % 3.31 C
455 30-10-2018 13:50:00 5.8 C 83 % 3.14 C
456 30-10-2018 13:55:00 5.8 C 85 % 3.48 C
457 30-10-2018 14:00:00 5.7 C 85 % 3.38 C
458 30-10-2018 14:05:00 5.6 C 85 % 3.28 C
459 30-10-2018 14:10:00 5.4 C 86 % 3.25 C
460 30-10-2018 14:15:00 5.4 C 87 % 3.41 C
461 30-10-2018 14:20:00 5.2 C 86 % 3.05 C
462 30-10-2018 14:25:00 5.1 C 87 % 3.12 C
463 30-10-2018 14:30:00 5.1 C 88 % 3.28 C
464 30-10-2018 14:35:00 5.1 C 89 % 3.44 C
465 30-10-2018 14:40:00 5 C 89 % 3.34 C
466 30-10-2018 14:45:00 4.9 C 89 % 3.24 C
467 30-10-2018 14:50:00 4.8 C 89 % 3.14 C
468 30-10-2018 14:55:00 4.7 C 89 % 3.05 C
469 30-10-2018 15:00:00 4.6 C 90 % 3.1 C
470 30-10-2018 15:05:00 4.5 C 90 % 3.01 C
471 30-10-2018 15:10:00 4.3 C 90 % 2.81 C
472 30-10-2018 15:15:00 4.3 C 90 % 2.81 C
473 30-10-2018 15:20:00 4.2 C 91 % 2.87 C
474 30-10-2018 15:25:00 4.2 C 91 % 2.87 C
475 30-10-2018 15:30:00 4.2 C 91 % 2.87 C
Sensor: Nr:Datum:Temp:Feuchte:Taupunkt:
Aussen-T/F 476 30-10-2018 15:35:00 4.2 C 92 % 3.02 C
477 30-10-2018 15:40:00 4.2 C 92 % 3.02 C
478 30-10-2018 15:45:00 4.2 C 92 % 3.02 C
479 30-10-2018 15:50:00 4.2 C 92 % 3.02 C
480 30-10-2018 15:55:00 4.2 C 92 % 3.02 C
481 30-10-2018 16:00:00 4.3 C 93 % 3.27 C
482 30-10-2018 16:05:00 4.4 C 93 % 3.37 C
483 30-10-2018 16:10:00 4.6 C 94 % 3.72 C
484 30-10-2018 16:15:00 4.8 C 94 % 3.92 C
485 30-10-2018 16:20:00 4.9 C 94 % 4.02 C
486 30-10-2018 16:25:00 5.1 C 94 % 4.22 C
487 30-10-2018 16:30:00 5.2 C 94 % 4.32 C
488 30-10-2018 16:35:00 5.3 C 94 % 4.41 C
489 30-10-2018 16:40:00 5.4 C 94 % 4.51 C
490 30-10-2018 16:45:00 5.6 C 94 % 4.71 C
491 30-10-2018 16:50:00 5.7 C 94 % 4.81 C
492 30-10-2018 16:55:00 5.8 C 94 % 4.91 C
493 30-10-2018 17:00:00 5.9 C 94 % 5.01 C
494 30-10-2018 17:05:00 6 C 94 % 5.11 C
495 30-10-2018 17:10:00 6.1 C 94 % 5.21 C
496 30-10-2018 17:15:00 6.2 C 94 % 5.31 C
497 30-10-2018 17:20:00 6.3 C 94 % 5.41 C
498 30-10-2018 17:25:00 6.4 C 94 % 5.51 C
499 30-10-2018 17:30:00 6.6 C 95 % 5.86 C
500 30-10-2018 17:35:00 6.7 C 94 % 5.8 C
Sensor: Nr:Datum:Temp:Feuchte:Taupunkt:
Aussen-T/F 501 30-10-2018 17:40:00 6.8 C 95 % 6.06 C
502 30-10-2018 17:45:00 6.9 C 94 % 6 C
503 30-10-2018 17:50:00 7.1 C 94 % 6.2 C
504 30-10-2018 17:55:00 7.2 C 94 % 6.3 C
505 30-10-2018 18:00:00 7.3 C 94 % 6.4 C
506 30-10-2018 18:05:00 7.3 C 94 % 6.4 C
507 30-10-2018 18:10:00 7.4 C 93 % 6.34 C
508 30-10-2018 18:15:00 7.6 C 93 % 6.54 C
509 30-10-2018 18:20:00 7.6 C 93 % 6.54 C
510 30-10-2018 18:25:00 7.6 C 93 % 6.54 C
511 30-10-2018 18:30:00 7.6 C 93 % 6.54 C
512 30-10-2018 18:35:00 7.6 C 93 % 6.54 C
513 30-10-2018 18:40:00 7.6 C 92 % 6.39 C
514 30-10-2018 18:45:00 7.6 C 92 % 6.39 C
515 30-10-2018 18:50:00 7.7 C 92 % 6.48 C
516 30-10-2018 18:55:00 7.6 C 92 % 6.39 C
517 30-10-2018 19:00:00 7.6 C 92 % 6.39 C
518 30-10-2018 19:05:00 7.6 C 92 % 6.39 C
519 30-10-2018 19:10:00 7.6 C 92 % 6.39 C
520 30-10-2018 19:15:00 7.6 C 92 % 6.39 C
521 30-10-2018 19:20:00 7.5 C 92 % 6.29 C
522 30-10-2018 19:25:00 7.4 C 92 % 6.19 C
523 30-10-2018 19:30:00 7.4 C 92 % 6.19 C
524 30-10-2018 19:35:00 7.4 C 92 % 6.19 C
525 30-10-2018 19:40:00 7.4 C 92 % 6.19 C
Sensor: Nr:Datum:Temp:Feuchte:Taupunkt:
Aussen-T/F 526 30-10-2018 19:45:00 7.4 C 92 % 6.19 C
527 30-10-2018 19:50:00 7.4 C 92 % 6.19 C
528 30-10-2018 19:55:00 7.4 C 92 % 6.19 C
529 30-10-2018 20:00:00 7.4 C 92 % 6.19 C
530 30-10-2018 20:05:00 7.3 C 92 % 6.09 C
531 30-10-2018 20:10:00 7.3 C 92 % 6.09 C
532 30-10-2018 20:15:00 7.4 C 91 % 6.03 C
533 30-10-2018 20:20:00 7.4 C 91 % 6.03 C
534 30-10-2018 20:25:00 7.4 C 91 % 6.03 C
535 30-10-2018 20:30:00 7.5 C 91 % 6.13 C
536 30-10-2018 20:35:00 7.6 C 90 % 6.07 C
537 30-10-2018 20:40:00 7.6 C 90 % 6.07 C
538 30-10-2018 20:45:00 7.6 C 90 % 6.07 C
539 30-10-2018 20:50:00 7.6 C 89 % 5.91 C
540 30-10-2018 20:55:00 7.6 C 89 % 5.91 C
541 30-10-2018 21:00:00 7.7 C 89 % 6 C
542 30-10-2018 21:05:00 7.7 C 89 % 6 C
543 30-10-2018 21:10:00 7.7 C 88 % 5.84 C
544 30-10-2018 21:15:00 7.8 C 88 % 5.94 C
545 30-10-2018 21:20:00 7.8 C 87 % 5.78 C
546 30-10-2018 21:25:00 7.9 C 87 % 5.87 C
547 30-10-2018 21:30:00 7.9 C 86 % 5.71 C
548 30-10-2018 21:35:00 8 C 86 % 5.81 C
549 30-10-2018 21:40:00 8.1 C 86 % 5.9 C
550 30-10-2018 21:45:00 8.1 C 86 % 5.9 C
Sensor: Nr:Datum:Temp:Feuchte:Taupunkt:
Aussen-T/F 551 30-10-2018 21:50:00 8.1 C 85 % 5.73 C
552 30-10-2018 21:55:00 8.1 C 85 % 5.73 C
553 30-10-2018 22:00:00 8.1 C 85 % 5.73 C
554 30-10-2018 22:05:00 8.1 C 85 % 5.73 C
555 30-10-2018 22:10:00 8 C 85 % 5.64 C
556 30-10-2018 22:15:00 8.1 C 85 % 5.73 C
557 30-10-2018 22:20:00 8.1 C 85 % 5.73 C
558 30-10-2018 22:25:00 8.1 C 84 % 5.56 C
559 30-10-2018 22:30:00 8.1 C 84 % 5.56 C
560 30-10-2018 22:35:00 8.1 C 84 % 5.56 C
561 30-10-2018 22:40:00 8.1 C 85 % 5.73 C
562 30-10-2018 22:45:00 8.1 C 84 % 5.56 C
563 30-10-2018 22:50:00 8.1 C 85 % 5.73 C
564 30-10-2018 22:55:00 8.1 C 85 % 5.73 C
565 30-10-2018 23:00:00 8.1 C 84 % 5.56 C
566 30-10-2018 23:05:00 8.1 C 85 % 5.73 C
567 30-10-2018 23:10:00 8.1 C 85 % 5.73 C
568 30-10-2018 23:15:00 8.1 C 85 % 5.73 C
569 30-10-2018 23:20:00 8.1 C 85 % 5.73 C
570 30-10-2018 23:25:00 8.1 C 85 % 5.73 C
571 30-10-2018 23:30:00 8.1 C 84 % 5.56 C
572 30-10-2018 23:35:00 8.1 C 85 % 5.73 C
573 30-10-2018 23:40:00 8.1 C 84 % 5.56 C
574 30-10-2018 23:45:00 8.1 C 84 % 5.56 C
575 30-10-2018 23:50:00 8 C 85 % 5.64 C
Sensor: Nr:Datum:Temp:Feuchte:Taupunkt:
Aussen-T/F 576 30-10-2018 23:55:00 7.9 C 85 % 5.54 C
577 31-10-2018 00:00:00 7.8 C 85 % 5.44 C
578 31-10-2018 00:05:00 7.8 C 86 % 5.61 C
579 31-10-2018 00:10:00 7.7 C 86 % 5.51 C
580 31-10-2018 00:15:00 7.7 C 86 % 5.51 C
581 31-10-2018 00:20:00 7.7 C 86 % 5.51 C
582 31-10-2018 00:25:00 7.7 C 86 % 5.51 C
583 31-10-2018 00:30:00 7.6 C 87 % 5.58 C
584 31-10-2018 00:35:00 7.6 C 87 % 5.58 C
585 31-10-2018 00:40:00 7.6 C 88 % 5.74 C
586 31-10-2018 00:45:00 7.5 C 88 % 5.64 C
587 31-10-2018 00:50:00 7.5 C 88 % 5.64 C
588 31-10-2018 00:55:00 7.4 C 88 % 5.55 C
589 31-10-2018 01:00:00 7.3 C 87 % 5.28 C
590 31-10-2018 01:05:00 7.3 C 88 % 5.45 C
591 31-10-2018 01:10:00 7.2 C 88 % 5.35 C
592 31-10-2018 01:15:00 7.2 C 88 % 5.35 C
593 31-10-2018 01:20:00 7.1 C 88 % 5.25 C
594 31-10-2018 01:25:00 7.1 C 89 % 5.41 C
595 31-10-2018 01:30:00 7 C 89 % 5.31 C
596 31-10-2018 01:35:00 6.9 C 89 % 5.22 C
597 31-10-2018 01:40:00 6.9 C 89 % 5.22 C
598 31-10-2018 01:45:00 6.9 C 89 % 5.22 C
599 31-10-2018 01:50:00 6.9 C 90 % 5.38 C
600 31-10-2018 01:55:00 6.9 C 89 % 5.22 C
Sensor: Nr:Datum:Temp:Feuchte:Taupunkt:
Aussen-T/F 601 31-10-2018 02:00:00 7 C 89 % 5.31 C
602 31-10-2018 02:05:00 7 C 89 % 5.31 C
603 31-10-2018 02:10:00 7 C 89 % 5.31 C
604 31-10-2018 02:15:00 7 C 88 % 5.15 C
605 31-10-2018 02:20:00 7 C 88 % 5.15 C
606 31-10-2018 02:25:00 7 C 88 % 5.15 C
607 31-10-2018 02:30:00 7 C 87 % 4.99 C
608 31-10-2018 02:35:00 7.1 C 88 % 5.25 C
609 31-10-2018 02:40:00 7.1 C 87 % 5.09 C
610 31-10-2018 02:45:00 7.1 C 87 % 5.09 C
611 31-10-2018 02:50:00 7.1 C 87 % 5.09 C
612 31-10-2018 02:55:00 7.2 C 87 % 5.19 C
613 31-10-2018 03:00:00 7.2 C 87 % 5.19 C
614 31-10-2018 03:05:00 7.2 C 87 % 5.19 C
615 31-10-2018 03:10:00 7.2 C 87 % 5.19 C
616 31-10-2018 03:15:00 7.2 C 87 % 5.19 C
617 31-10-2018 03:20:00 7.2 C 86 % 5.02 C
618 31-10-2018 03:25:00 7.2 C 86 % 5.02 C
619 31-10-2018 03:30:00 7.2 C 87 % 5.19 C
620 31-10-2018 03:35:00 7.2 C 87 % 5.19 C
621 31-10-2018 03:40:00 7.2 C 88 % 5.35 C
622 31-10-2018 03:45:00 7.2 C 88 % 5.35 C
623 31-10-2018 03:50:00 7.2 C 89 % 5.51 C
624 31-10-2018 03:55:00 7.1 C 89 % 5.41 C
625 31-10-2018 04:00:00 7.1 C 89 % 5.41 C
Sensor: Nr:Datum:Temp:Feuchte:Taupunkt:
Aussen-T/F 626 31-10-2018 04:05:00 7 C 89 % 5.31 C
627 31-10-2018 04:10:00 6.9 C 89 % 5.22 C
628 31-10-2018 04:15:00 6.9 C 89 % 5.22 C
629 31-10-2018 04:20:00 6.9 C 88 % 5.05 C
630 31-10-2018 04:25:00 6.9 C 89 % 5.22 C
631 31-10-2018 04:30:00 6.9 C 89 % 5.22 C
632 31-10-2018 04:35:00 6.8 C 88 % 4.96 C
633 31-10-2018 04:40:00 6.7 C 88 % 4.86 C
634 31-10-2018 04:45:00 6.5 C 88 % 4.66 C
635 31-10-2018 04:50:00 6.3 C 88 % 4.46 C
636 31-10-2018 04:55:00 6.1 C 88 % 4.27 C
637 31-10-2018 05:00:00 5.8 C 88 % 3.97 C
638 31-10-2018 05:05:00 5.6 C 89 % 3.93 C
639 31-10-2018 05:10:00 5.4 C 89 % 3.74 C
640 31-10-2018 05:15:00 5.3 C 90 % 3.8 C
641 31-10-2018 05:20:00 5.2 C 90 % 3.7 C
642 31-10-2018 05:25:00 5.1 C 90 % 3.6 C
643 31-10-2018 05:30:00 5.1 C 90 % 3.6 C
644 31-10-2018 05:35:00 4.9 C 90 % 3.4 C
645 31-10-2018 05:40:00 4.8 C 91 % 3.46 C
646 31-10-2018 05:45:00 4.7 C 91 % 3.36 C
647 31-10-2018 05:50:00 4.7 C 91 % 3.36 C
648 31-10-2018 05:55:00 4.6 C 91 % 3.26 C
649 31-10-2018 06:00:00 4.4 C 91 % 3.06 C
650 31-10-2018 06:05:00 4.2 C 91 % 2.87 C
Sensor: Nr:Datum:Temp:Feuchte:Taupunkt:
Aussen-T/F 651 31-10-2018 06:10:00 4.1 C 91 % 2.77 C
652 31-10-2018 06:15:00 3.9 C 91 % 2.57 C
653 31-10-2018 06:20:00 3.9 C 92 % 2.72 C
654 31-10-2018 06:25:00 3.9 C 92 % 2.72 C
655 31-10-2018 06:30:00 4.1 C 93 % 3.07 C
656 31-10-2018 06:35:00 4.1 C 92 % 2.92 C
657 31-10-2018 06:40:00 4.1 C 92 % 2.92 C
658 31-10-2018 06:45:00 3.9 C 92 % 2.72 C
659 31-10-2018 06:50:00 3.8 C 92 % 2.62 C
660 31-10-2018 06:55:00 3.7 C 92 % 2.52 C
661 31-10-2018 07:00:00 3.6 C 92 % 2.42 C
662 31-10-2018 07:05:00 3.5 C 92 % 2.33 C
663 31-10-2018 07:10:00 3.4 C 92 % 2.23 C
664 31-10-2018 07:15:00 3.2 C 92 % 2.03 C
665 31-10-2018 07:20:00 3.2 C 92 % 2.03 C
666 31-10-2018 07:25:00 3.2 C 93 % 2.18 C
667 31-10-2018 07:30:00 3.2 C 93 % 2.18 C
668 31-10-2018 07:35:00 3.2 C 93 % 2.18 C
669 31-10-2018 07:40:00 3.2 C 94 % 2.33 C
670 31-10-2018 07:45:00 3.3 C 94 % 2.43 C
671 31-10-2018 07:50:00 3.4 C 94 % 2.53 C
672 31-10-2018 07:55:00 3.5 C 94 % 2.63 C
673 31-10-2018 08:00:00 3.6 C 94 % 2.73 C
674 31-10-2018 08:05:00 3.6 C 94 % 2.73 C
675 31-10-2018 08:10:00 3.7 C 94 % 2.83 C
Sensor: Nr:Datum:Temp:Feuchte:Taupunkt:
Aussen-T/F 676 31-10-2018 08:15:00 3.8 C 94 % 2.93 C
677 31-10-2018 08:20:00 3.8 C 94 % 2.93 C
678 31-10-2018 08:25:00 3.9 C 94 % 3.02 C
679 31-10-2018 08:30:00 4 C 94 % 3.12 C
680 31-10-2018 08:35:00 4.1 C 95 % 3.37 C
681 31-10-2018 08:40:00 4.2 C 95 % 3.47 C
682 31-10-2018 08:45:00 4.3 C 95 % 3.57 C
683 31-10-2018 08:50:00 4.5 C 95 % 3.77 C
684 31-10-2018 08:55:00 4.6 C 95 % 3.87 C
685 31-10-2018 09:00:00 4.7 C 94 % 3.82 C
686 31-10-2018 09:05:00 4.7 C 94 % 3.82 C
687 31-10-2018 09:10:00 4.7 C 94 % 3.82 C
688 31-10-2018 09:15:00 4.8 C 94 % 3.92 C
689 31-10-2018 09:20:00 4.8 C 94 % 3.92 C
690 31-10-2018 09:25:00 4.8 C 94 % 3.92 C
691 31-10-2018 09:30:00 4.8 C 94 % 3.92 C
692 31-10-2018 09:35:00 4.9 C 94 % 4.02 C
693 31-10-2018 09:40:00 4.9 C 94 % 4.02 C
694 31-10-2018 09:45:00 5.1 C 94 % 4.22 C
695 31-10-2018 09:50:00 5.3 C 94 % 4.41 C
696 31-10-2018 09:55:00 5.4 C 94 % 4.51 C
697 31-10-2018 10:00:00 5.6 C 94 % 4.71 C
698 31-10-2018 10:05:00 5.8 C 93 % 4.76 C
699 31-10-2018 10:10:00 6.1 C 93 % 5.06 C
700 31-10-2018 10:15:00 6.3 C 92 % 5.1 C
Sensor: Nr:Datum:Temp:Feuchte:Taupunkt:
Aussen-T/F 701 31-10-2018 10:20:00 6.4 C 90 % 4.88 C
702 31-10-2018 10:25:00 6.6 C 91 % 5.24 C
703 31-10-2018 10:30:00 6.8 C 90 % 5.28 C
704 31-10-2018 10:35:00 7.1 C 89 % 5.41 C
705 31-10-2018 10:40:00 7.3 C 88 % 5.45 C
706 31-10-2018 10:45:00 7.4 C 88 % 5.55 C
707 31-10-2018 10:50:00 7.6 C 87 % 5.58 C
708 31-10-2018 10:55:00 7.7 C 86 % 5.51 C
709 31-10-2018 11:00:00 7.8 C 85 % 5.44 C
710 31-10-2018 11:05:00 7.9 C 85 % 5.54 C
711 31-10-2018 11:10:00 8 C 85 % 5.64 C
712 31-10-2018 11:15:00 8.1 C 84 % 5.56 C
713 31-10-2018 11:20:00 8.3 C 84 % 5.76 C
714 31-10-2018 11:25:00 8.4 C 84 % 5.86 C
715 31-10-2018 11:30:00 8.6 C 83 % 5.88 C
716 31-10-2018 11:35:00 8.8 C 82 % 5.9 C
717 31-10-2018 11:40:00 8.9 C 82 % 6 C
718 31-10-2018 11:45:00 9 C 81 % 5.92 C
719 31-10-2018 11:50:00 9.2 C 81 % 6.11 C
720 31-10-2018 11:55:00 9.2 C 80 % 5.94 C
721 31-10-2018 12:00:00 9.3 C 79 % 5.85 C
722 31-10-2018 12:05:00 9.3 C 79 % 5.85 C
723 31-10-2018 12:10:00 9.4 C 80 % 6.13 C
724 31-10-2018 12:15:00 9.4 C 78 % 5.76 C
725 31-10-2018 12:20:00 9.5 C 79 % 6.05 C
Sensor: Nr:Datum:Temp:Feuchte:Taupunkt:
Aussen-T/F 726 31-10-2018 12:25:00 9.6 C 78 % 5.96 C
727 31-10-2018 12:30:00 9.6 C 77 % 5.77 C
728 31-10-2018 12:35:00 9.7 C 78 % 6.06 C
729 31-10-2018 12:40:00 9.8 C 78 % 6.15 C
730 31-10-2018 12:45:00 9.9 C 77 % 6.06 C
731 31-10-2018 12:50:00 10.1 C 75 % 5.88 C
732 31-10-2018 12:55:00 10.2 C 77 % 6.35 C
733 31-10-2018 13:00:00 10.2 C 75 % 5.97 C
734 31-10-2018 13:05:00 10.2 C 74 % 5.78 C
735 31-10-2018 13:10:00 10.2 C 75 % 5.97 C
736 31-10-2018 13:15:00 10.2 C 76 % 6.16 C
737 31-10-2018 13:20:00 10.2 C 75 % 5.97 C
738 31-10-2018 13:25:00 10.2 C 75 % 5.97 C
739 31-10-2018 13:30:00 10.2 C 74 % 5.78 C
740 31-10-2018 13:35:00 10.2 C 75 % 5.97 C
741 31-10-2018 13:40:00 10.2 C 75 % 5.97 C
742 31-10-2018 13:45:00 10.3 C 74 % 5.88 C
743 31-10-2018 13:50:00 10.3 C 73 % 5.68 C
744 31-10-2018 13:55:00 10.3 C 73 % 5.68 C
745 31-10-2018 14:00:00 10.4 C 73 % 5.78 C
746 31-10-2018 14:05:00 10.4 C 72 % 5.58 C
747 31-10-2018 14:10:00 10.5 C 74 % 6.07 C
748 31-10-2018 14:15:00 10.6 C 73 % 5.97 C
749 31-10-2018 14:20:00 10.6 C 72 % 5.77 C
750 31-10-2018 14:25:00 10.7 C 72 % 5.87 C
Sensor: Nr:Datum:Temp:Feuchte:Taupunkt:
Aussen-T/F 751 31-10-2018 14:30:00 10.7 C 71 % 5.66 C
752 31-10-2018 14:35:00 10.8 C 72 % 5.96 C
753 31-10-2018 14:40:00 10.9 C 75 % 6.65 C
754 31-10-2018 14:45:00 10.9 C 75 % 6.65 C
755 31-10-2018 14:50:00 10.9 C 73 % 6.26 C
756 31-10-2018 14:55:00 10.9 C 75 % 6.65 C
757 31-10-2018 15:00:00 11 C 76 % 6.94 C
758 31-10-2018 15:05:00 10.9 C 71 % 5.86 C
759 31-10-2018 15:10:00 11 C 74 % 6.55 C
760 31-10-2018 15:15:00 11 C 75 % 6.75 C
761 31-10-2018 15:20:00 10.9 C 77 % 7.03 C
762 31-10-2018 15:25:00 10.9 C 79 % 7.41 C
763 31-10-2018 15:30:00 10.9 C 79 % 7.41 C
764 31-10-2018 15:35:00 10.8 C 79 % 7.31 C
765 31-10-2018 15:40:00 10.7 C 80 % 7.4 C
766 31-10-2018 15:45:00 10.6 C 80 % 7.3 C
767 31-10-2018 15:50:00 10.4 C 80 % 7.1 C
768 31-10-2018 15:55:00 10.3 C 80 % 7.01 C
769 31-10-2018 16:00:00 10.2 C 81 % 7.09 C
770 31-10-2018 16:05:00 10.2 C 82 % 7.27 C
771 31-10-2018 16:10:00 10.1 C 82 % 7.17 C
772 31-10-2018 16:15:00 9.9 C 82 % 6.98 C
773 31-10-2018 16:20:00 9.8 C 82 % 6.88 C
774 31-10-2018 16:25:00 9.7 C 83 % 6.96 C
775 31-10-2018 16:30:00 9.6 C 83 % 6.86 C
Sensor: Nr:Datum:Temp:Feuchte:Taupunkt:
Aussen-T/F 776 31-10-2018 16:35:00 9.5 C 84 % 6.94 C
777 31-10-2018 16:40:00 9.4 C 84 % 6.84 C
778 31-10-2018 16:45:00 9.3 C 84 % 6.74 C
779 31-10-2018 16:50:00 9.3 C 84 % 6.74 C
780 31-10-2018 16:55:00 9.2 C 84 % 6.64 C
781 31-10-2018 17:00:00 9.1 C 84 % 6.54 C
782 31-10-2018 17:05:00 9.1 C 83 % 6.37 C
783 31-10-2018 17:10:00 9 C 83 % 6.27 C
784 31-10-2018 17:15:00 8.9 C 84 % 6.35 C
785 31-10-2018 17:20:00 8.9 C 84 % 6.35 C
786 31-10-2018 17:25:00 8.9 C 85 % 6.52 C
787 31-10-2018 17:30:00 8.9 C 85 % 6.52 C
788 31-10-2018 17:35:00 8.9 C 85 % 6.52 C
789 31-10-2018 17:40:00 8.8 C 85 % 6.42 C
790 31-10-2018 17:45:00 8.8 C 86 % 6.59 C
791 31-10-2018 17:50:00 8.8 C 85 % 6.42 C
792 31-10-2018 17:55:00 8.7 C 85 % 6.32 C
793 31-10-2018 18:00:00 8.7 C 86 % 6.49 C
794 31-10-2018 18:05:00 8.7 C 86 % 6.49 C
795 31-10-2018 18:10:00 8.6 C 86 % 6.39 C
796 31-10-2018 18:15:00 8.6 C 86 % 6.39 C
797 31-10-2018 18:20:00 8.5 C 86 % 6.3 C
798 31-10-2018 18:25:00 8.5 C 87 % 6.46 C
799 31-10-2018 18:30:00 8.4 C 87 % 6.37 C
800 31-10-2018 18:35:00 8.4 C 87 % 6.37 C
Sensor: Nr:Datum:Temp:Feuchte:Taupunkt:
Aussen-T/F 801 31-10-2018 18:40:00 8.3 C 87 % 6.27 C
802 31-10-2018 18:45:00 8.3 C 87 % 6.27 C
803 31-10-2018 18:50:00 8.3 C 87 % 6.27 C
804 31-10-2018 18:55:00 8.3 C 87 % 6.27 C
805 31-10-2018 19:00:00 8.3 C 88 % 6.43 C
806 31-10-2018 19:05:00 8.3 C 88 % 6.43 C
807 31-10-2018 19:10:00 8.3 C 88 % 6.43 C
808 31-10-2018 19:15:00 8.3 C 88 % 6.43 C
809 31-10-2018 19:20:00 8.3 C 88 % 6.43 C
810 31-10-2018 19:25:00 8.3 C 88 % 6.43 C
811 31-10-2018 19:30:00 8.3 C 88 % 6.43 C
812 31-10-2018 19:35:00 8.4 C 88 % 6.53 C
813 31-10-2018 19:40:00 8.4 C 88 % 6.53 C
814 31-10-2018 19:45:00 8.3 C 88 % 6.43 C
815 31-10-2018 19:50:00 8.3 C 88 % 6.43 C
816 31-10-2018 19:55:00 8.3 C 88 % 6.43 C
817 31-10-2018 20:00:00 8.3 C 89 % 6.6 C
818 31-10-2018 20:05:00 8.4 C 89 % 6.7 C
819 31-10-2018 20:10:00 8.4 C 89 % 6.7 C
820 31-10-2018 20:15:00 8.3 C 89 % 6.6 C
821 31-10-2018 20:20:00 8.3 C 89 % 6.6 C
822 31-10-2018 20:25:00 8.3 C 89 % 6.6 C
823 31-10-2018 20:30:00 8.3 C 89 % 6.6 C
824 31-10-2018 20:35:00 8.3 C 89 % 6.6 C
825 31-10-2018 20:40:00 8.4 C 89 % 6.7 C
Sensor: Nr:Datum:Temp:Feuchte:Taupunkt:
Aussen-T/F 826 31-10-2018 20:45:00 8.5 C 89 % 6.79 C
827 31-10-2018 20:50:00 8.6 C 90 % 7.06 C
828 31-10-2018 20:55:00 8.6 C 90 % 7.06 C
829 31-10-2018 21:00:00 8.5 C 90 % 6.96 C
830 31-10-2018 21:05:00 8.4 C 90 % 6.86 C
831 31-10-2018 21:10:00 8.4 C 91 % 7.02 C
832 31-10-2018 21:15:00 8.3 C 91 % 6.92 C
833 31-10-2018 21:20:00 8.3 C 91 % 6.92 C
834 31-10-2018 21:25:00 8.2 C 91 % 6.82 C
835 31-10-2018 21:30:00 8.2 C 91 % 6.82 C
836 31-10-2018 21:35:00 8.1 C 91 % 6.72 C
837 31-10-2018 21:40:00 7.9 C 91 % 6.52 C
838 31-10-2018 21:45:00 7.8 C 91 % 6.43 C
839 31-10-2018 21:50:00 7.6 C 90 % 6.07 C
840 31-10-2018 21:55:00 7.5 C 90 % 5.97 C
841 31-10-2018 22:00:00 7.4 C 91 % 6.03 C
842 31-10-2018 22:05:00 7.3 C 91 % 5.93 C
843 31-10-2018 22:10:00 7.2 C 91 % 5.83 C
844 31-10-2018 22:15:00 7.2 C 92 % 5.99 C
845 31-10-2018 22:20:00 7.2 C 91 % 5.83 C
846 31-10-2018 22:25:00 7.1 C 92 % 5.89 C
847 31-10-2018 22:30:00 7.1 C 92 % 5.89 C
848 31-10-2018 22:35:00 6.9 C 92 % 5.69 C
849 31-10-2018 22:40:00 6.8 C 92 % 5.59 C
850 31-10-2018 22:45:00 6.8 C 92 % 5.59 C
Sensor: Nr:Datum:Temp:Feuchte:Taupunkt:
Aussen-T/F 851 31-10-2018 22:50:00 6.8 C 92 % 5.59 C
852 31-10-2018 22:55:00 6.7 C 92 % 5.49 C
853 31-10-2018 23:00:00 6.7 C 92 % 5.49 C
854 31-10-2018 23:05:00 6.7 C 92 % 5.49 C
855 31-10-2018 23:10:00 6.6 C 92 % 5.4 C
856 31-10-2018 23:15:00 6.6 C 92 % 5.4 C
857 31-10-2018 23:20:00 6.4 C 92 % 5.2 C
858 31-10-2018 23:25:00 6.4 C 92 % 5.2 C
859 31-10-2018 23:30:00 6.3 C 92 % 5.1 C
860 31-10-2018 23:35:00 6.3 C 92 % 5.1 C
861 31-10-2018 23:40:00 6.2 C 92 % 5 C
862 31-10-2018 23:45:00 6.1 C 92 % 4.9 C
863 31-10-2018 23:50:00 6.1 C 92 % 4.9 C
864 31-10-2018 23:55:00 6 C 92 % 4.8 C
865 01-11-2018 00:00:00 5.9 C 92 % 4.7 C
866 01-11-2018 00:05:00 5.7 C 92 % 4.5 C
867 01-11-2018 00:10:00 5.6 C 92 % 4.41 C
868 01-11-2018 00:15:00 5.6 C 93 % 4.56 C
869 01-11-2018 00:20:00 5.6 C 93 % 4.56 C
870 01-11-2018 00:25:00 5.4 C 93 % 4.36 C
871 01-11-2018 00:30:00 5.3 C 93 % 4.26 C
872 01-11-2018 00:35:00 5.3 C 93 % 4.26 C
873 01-11-2018 00:40:00 5.4 C 93 % 4.36 C
874 01-11-2018 00:45:00 5.3 C 93 % 4.26 C
875 01-11-2018 00:50:00 5.3 C 93 % 4.26 C
Sensor: Nr:Datum:Temp:Feuchte:Taupunkt:
Aussen-T/F 876 01-11-2018 00:55:00 5.2 C 93 % 4.16 C
877 01-11-2018 01:00:00 5.1 C 93 % 4.06 C
878 01-11-2018 01:05:00 5.1 C 93 % 4.06 C
879 01-11-2018 01:10:00 5 C 94 % 4.12 C
880 01-11-2018 01:15:00 5.1 C 94 % 4.22 C
881 01-11-2018 01:20:00 4.9 C 94 % 4.02 C
882 01-11-2018 01:25:00 4.8 C 93 % 3.77 C
883 01-11-2018 01:30:00 4.8 C 93 % 3.77 C
884 01-11-2018 01:35:00 4.7 C 94 % 3.82 C
885 01-11-2018 01:40:00 4.6 C 94 % 3.72 C
886 01-11-2018 01:45:00 4.5 C 94 % 3.62 C
887 01-11-2018 01:50:00 4.5 C 94 % 3.62 C
888 01-11-2018 01:55:00 4.4 C 94 % 3.52 C
889 01-11-2018 02:00:00 4.3 C 94 % 3.42 C
890 01-11-2018 02:05:00 4.3 C 94 % 3.42 C
891 01-11-2018 02:10:00 4.2 C 94 % 3.32 C
892 01-11-2018 02:15:00 4.2 C 94 % 3.32 C
893 01-11-2018 02:20:00 4.2 C 94 % 3.32 C
894 01-11-2018 02:25:00 4.1 C 94 % 3.22 C
895 01-11-2018 02:30:00 4 C 94 % 3.12 C
896 01-11-2018 02:35:00 4 C 94 % 3.12 C
897 01-11-2018 02:40:00 4 C 94 % 3.12 C
898 01-11-2018 02:45:00 3.9 C 94 % 3.02 C
899 01-11-2018 02:50:00 3.9 C 94 % 3.02 C
900 01-11-2018 02:55:00 3.8 C 94 % 2.93 C
Sensor: Nr:Datum:Temp:Feuchte:Taupunkt:
Aussen-T/F 901 01-11-2018 03:00:00 3.8 C 94 % 2.93 C
902 01-11-2018 03:05:00 3.7 C 94 % 2.83 C
903 01-11-2018 03:10:00 3.6 C 94 % 2.73 C
904 01-11-2018 03:15:00 3.7 C 95 % 2.98 C
905 01-11-2018 03:20:00 3.8 C 95 % 3.07 C
906 01-11-2018 03:25:00 3.9 C 95 % 3.17 C
907 01-11-2018 03:30:00 3.8 C 95 % 3.07 C
908 01-11-2018 03:35:00 3.8 C 95 % 3.07 C
909 01-11-2018 03:40:00 3.8 C 95 % 3.07 C
910 01-11-2018 03:45:00 3.8 C 95 % 3.07 C
911 01-11-2018 03:50:00 3.8 C 95 % 3.07 C
912 01-11-2018 03:55:00 3.8 C 95 % 3.07 C
913 01-11-2018 04:00:00 4 C 95 % 3.27 C
914 01-11-2018 04:05:00 4.2 C 96 % 3.62 C
915 01-11-2018 04:10:00 4.3 C 96 % 3.72 C
916 01-11-2018 04:15:00 4.4 C 96 % 3.82 C
917 01-11-2018 04:20:00 4.3 C 96 % 3.72 C
918 01-11-2018 04:25:00 4.3 C 95 % 3.57 C
919 01-11-2018 04:30:00 4.2 C 95 % 3.47 C
920 01-11-2018 04:35:00 4.1 C 95 % 3.37 C
921 01-11-2018 04:40:00 3.9 C 95 % 3.17 C
922 01-11-2018 04:45:00 3.8 C 95 % 3.07 C
923 01-11-2018 04:50:00 3.7 C 95 % 2.98 C
924 01-11-2018 04:55:00 3.5 C 95 % 2.78 C
925 01-11-2018 05:00:00 3.4 C 95 % 2.68 C
Sensor: Nr:Datum:Temp:Feuchte:Taupunkt:
Aussen-T/F 926 01-11-2018 05:05:00 3.3 C 95 % 2.58 C
927 01-11-2018 05:10:00 3.2 C 95 % 2.48 C
928 01-11-2018 05:15:00 3.1 C 95 % 2.38 C
929 01-11-2018 05:20:00 3 C 95 % 2.28 C
930 01-11-2018 05:25:00 3.1 C 95 % 2.38 C
931 01-11-2018 05:30:00 3.1 C 95 % 2.38 C
932 01-11-2018 05:35:00 3.2 C 95 % 2.48 C
933 01-11-2018 05:40:00 3.2 C 95 % 2.48 C
934 01-11-2018 05:45:00 3.1 C 95 % 2.38 C
935 01-11-2018 05:50:00 3.1 C 95 % 2.38 C
936 01-11-2018 05:55:00 3.1 C 95 % 2.38 C
937 01-11-2018 06:00:00 3.1 C 95 % 2.38 C
938 01-11-2018 06:05:00 3.1 C 95 % 2.38 C
939 01-11-2018 06:10:00 3.2 C 96 % 2.63 C
940 01-11-2018 06:15:00 3.2 C 96 % 2.63 C
941 01-11-2018 06:20:00 3.2 C 96 % 2.63 C
942 01-11-2018 06:25:00 3.2 C 96 % 2.63 C
943 01-11-2018 06:30:00 3.1 C 96 % 2.53 C
944 01-11-2018 06:35:00 3.1 C 96 % 2.53 C
945 01-11-2018 06:40:00 3.1 C 95 % 2.38 C
946 01-11-2018 06:45:00 3.1 C 96 % 2.53 C
947 01-11-2018 06:50:00 3.1 C 96 % 2.53 C
948 01-11-2018 06:55:00 3.1 C 96 % 2.53 C
949 01-11-2018 07:00:00 3.1 C 96 % 2.53 C
950 01-11-2018 07:05:00 3.1 C 96 % 2.53 C
Sensor: Nr:Datum:Temp:Feuchte:Taupunkt:
Aussen-T/F 951 01-11-2018 07:10:00 3.2 C 96 % 2.63 C
952 01-11-2018 07:15:00 3.3 C 96 % 2.72 C
953 01-11-2018 07:20:00 3.4 C 96 % 2.82 C
954 01-11-2018 07:25:00 3.4 C 96 % 2.82 C
955 01-11-2018 07:30:00 3.4 C 96 % 2.82 C
956 01-11-2018 07:35:00 3.4 C 96 % 2.82 C
957 01-11-2018 07:40:00 3.4 C 96 % 2.82 C
958 01-11-2018 07:45:00 3.5 C 96 % 2.92 C
959 01-11-2018 07:50:00 3.5 C 96 % 2.92 C
960 01-11-2018 07:55:00 3.6 C 96 % 3.02 C
961 01-11-2018 08:00:00 3.6 C 96 % 3.02 C
962 01-11-2018 08:05:00 3.7 C 96 % 3.12 C
963 01-11-2018 08:10:00 3.8 C 96 % 3.22 C
964 01-11-2018 08:15:00 3.8 C 96 % 3.22 C
965 01-11-2018 08:20:00 3.9 C 96 % 3.32 C
966 01-11-2018 08:25:00 4 C 96 % 3.42 C
967 01-11-2018 08:30:00 4.1 C 96 % 3.52 C
968 01-11-2018 08:35:00 4.2 C 96 % 3.62 C
969 01-11-2018 08:40:00 4.2 C 96 % 3.62 C
970 01-11-2018 08:45:00 4.2 C 96 % 3.62 C
971 01-11-2018 08:50:00 4.2 C 96 % 3.62 C
972 01-11-2018 08:55:00 4.3 C 96 % 3.72 C
973 01-11-2018 09:00:00 4.3 C 96 % 3.72 C
974 01-11-2018 09:05:00 4.4 C 97 % 3.97 C
975 01-11-2018 09:10:00 4.6 C 96 % 4.02 C
Sensor: Nr:Datum:Temp:Feuchte:Taupunkt:
Aussen-T/F 976 01-11-2018 09:15:00 4.6 C 96 % 4.02 C
977 01-11-2018 09:20:00 4.7 C 96 % 4.12 C
978 01-11-2018 09:25:00 4.7 C 97 % 4.27 C
979 01-11-2018 09:30:00 4.7 C 97 % 4.27 C
980 01-11-2018 09:35:00 4.7 C 96 % 4.12 C
981 01-11-2018 09:40:00 4.7 C 96 % 4.12 C
982 01-11-2018 09:45:00 4.8 C 96 % 4.22 C
983 01-11-2018 09:50:00 4.9 C 96 % 4.32 C
984 01-11-2018 09:55:00 4.9 C 96 % 4.32 C
985 01-11-2018 10:00:00 5.1 C 97 % 4.66 C
986 01-11-2018 10:05:00 5.1 C 97 % 4.66 C
987 01-11-2018 10:10:00 5.2 C 97 % 4.76 C
988 01-11-2018 10:15:00 5.3 C 96 % 4.72 C
989 01-11-2018 10:20:00 5.3 C 96 % 4.72 C
990 01-11-2018 10:25:00 5.3 C 96 % 4.72 C
991 01-11-2018 10:30:00 5.3 C 97 % 4.86 C
992 01-11-2018 10:35:00 5.4 C 97 % 4.96 C
993 01-11-2018 10:40:00 5.5 C 97 % 5.06 C
994 01-11-2018 10:45:00 5.6 C 96 % 5.01 C
995 01-11-2018 10:50:00 5.7 C 97 % 5.26 C
996 01-11-2018 10:55:00 5.7 C 97 % 5.26 C
997 01-11-2018 11:00:00 5.8 C 97 % 5.36 C
998 01-11-2018 11:05:00 5.8 C 96 % 5.21 C
999 01-11-2018 11:10:00 5.9 C 96 % 5.31 C
1000 01-11-2018 11:15:00 6 C 97 % 5.56 C
Sensor: Nr:Datum:Temp:Feuchte:Taupunkt:
Aussen-T/F 1001 01-11-2018 11:20:00 6.1 C 97 % 5.66 C
1002 01-11-2018 11:25:00 6.2 C 96 % 5.61 C
1003 01-11-2018 11:30:00 6.2 C 96 % 5.61 C
1004 01-11-2018 11:35:00 6.2 C 96 % 5.61 C
1005 01-11-2018 11:40:00 6.3 C 96 % 5.71 C
1006 01-11-2018 11:45:00 6.4 C 96 % 5.81 C
1007 01-11-2018 11:50:00 6.4 C 96 % 5.81 C
1008 01-11-2018 11:55:00 6.6 C 96 % 6.01 C
1009 01-11-2018 12:00:00 6.7 C 96 % 6.11 C
1010 01-11-2018 12:05:00 6.7 C 95 % 5.96 C
1011 01-11-2018 12:10:00 6.7 C 95 % 5.96 C
1012 01-11-2018 12:15:00 6.7 C 95 % 5.96 C
1013 01-11-2018 12:20:00 6.8 C 95 % 6.06 C
1014 01-11-2018 12:25:00 6.8 C 95 % 6.06 C
1015 01-11-2018 12:30:00 6.9 C 95 % 6.16 C
1016 01-11-2018 12:35:00 7 C 95 % 6.26 C
1017 01-11-2018 12:40:00 7.1 C 95 % 6.35 C
1018 01-11-2018 12:45:00 7.2 C 95 % 6.45 C
1019 01-11-2018 12:50:00 7.3 C 95 % 6.55 C
1020 01-11-2018 12:55:00 7.3 C 95 % 6.55 C
1021 01-11-2018 13:00:00 7.3 C 94 % 6.4 C
1022 01-11-2018 13:05:00 7.4 C 94 % 6.5 C
1023 01-11-2018 13:10:00 7.4 C 94 % 6.5 C
1024 01-11-2018 13:15:00 7.6 C 93 % 6.54 C
1025 01-11-2018 13:20:00 7.7 C 94 % 6.8 C
Sensor: Nr:Datum:Temp:Feuchte:Taupunkt:
Aussen-T/F 1026 01-11-2018 13:25:00 7.7 C 94 % 6.8 C
1027 01-11-2018 13:30:00 7.8 C 93 % 6.74 C
1028 01-11-2018 13:35:00 7.9 C 93 % 6.84 C
1029 01-11-2018 13:40:00 8 C 93 % 6.94 C
1030 01-11-2018 13:45:00 8.1 C 93 % 7.04 C
1031 01-11-2018 13:50:00 8.2 C 93 % 7.14 C
1032 01-11-2018 13:55:00 8.2 C 93 % 7.14 C
1033 01-11-2018 14:00:00 8.2 C 93 % 7.14 C
1034 01-11-2018 14:05:00 8.3 C 93 % 7.24 C
1035 01-11-2018 14:10:00 8.3 C 93 % 7.24 C
1036 01-11-2018 14:15:00 8.4 C 93 % 7.34 C
1037 01-11-2018 14:20:00 8.4 C 93 % 7.34 C
1038 01-11-2018 14:25:00 8.4 C 93 % 7.34 C
1039 01-11-2018 14:30:00 8.5 C 93 % 7.43 C
1040 01-11-2018 14:35:00 8.5 C 92 % 7.28 C
1041 01-11-2018 14:40:00 8.6 C 92 % 7.38 C
1042 01-11-2018 14:45:00 8.7 C 92 % 7.47 C
1043 01-11-2018 14:50:00 8.7 C 93 % 7.63 C
1044 01-11-2018 14:55:00 8.8 C 93 % 7.73 C
1045 01-11-2018 15:00:00 8.8 C 93 % 7.73 C
1046 01-11-2018 15:05:00 8.8 C 93 % 7.73 C
1047 01-11-2018 15:10:00 8.8 C 93 % 7.73 C
1048 01-11-2018 15:15:00 8.9 C 93 % 7.83 C
1049 01-11-2018 15:20:00 8.9 C 93 % 7.83 C
1050 01-11-2018 15:25:00 8.9 C 94 % 7.99 C
Sensor: Nr:Datum:Temp:Feuchte:Taupunkt:
Aussen-T/F 1051 01-11-2018 15:30:00 9 C 94 % 8.09 C
1052 01-11-2018 15:35:00 9 C 94 % 8.09 C
1053 01-11-2018 15:40:00 9 C 94 % 8.09 C
1054 01-11-2018 15:45:00 9 C 94 % 8.09 C
1055 01-11-2018 15:50:00 9.1 C 94 % 8.19 C
1056 01-11-2018 15:55:00 9.1 C 94 % 8.19 C
1057 01-11-2018 16:00:00 9.1 C 94 % 8.19 C
1058 01-11-2018 16:05:00 9.2 C 94 % 8.29 C
1059 01-11-2018 16:10:00 9.2 C 94 % 8.29 C
1060 01-11-2018 16:15:00 9.2 C 94 % 8.29 C
1061 01-11-2018 16:20:00 9.2 C 94 % 8.29 C
1062 01-11-2018 16:25:00 9.1 C 94 % 8.19 C
1063 01-11-2018 16:30:00 9.1 C 94 % 8.19 C
1064 01-11-2018 16:35:00 9.1 C 94 % 8.19 C
1065 01-11-2018 16:40:00 9.1 C 94 % 8.19 C
1066 01-11-2018 16:45:00 9 C 94 % 8.09 C
1067 01-11-2018 16:50:00 8.9 C 94 % 7.99 C
1068 01-11-2018 16:55:00 8.7 C 94 % 7.79 C
1069 01-11-2018 17:00:00 8.6 C 93 % 7.53 C
1070 01-11-2018 17:05:00 8.3 C 93 % 7.24 C
1071 01-11-2018 17:10:00 8.1 C 93 % 7.04 C
1072 01-11-2018 17:15:00 7.8 C 93 % 6.74 C
1073 01-11-2018 17:20:00 7.7 C 93 % 6.64 C
1074 01-11-2018 17:25:00 7.6 C 94 % 6.7 C
1075 01-11-2018 17:30:00 7.5 C 94 % 6.6 C
Sensor: Nr:Datum:Temp:Feuchte:Taupunkt:
Aussen-T/F 1076 01-11-2018 17:35:00 7.4 C 94 % 6.5 C
1077 01-11-2018 17:40:00 7.4 C 94 % 6.5 C
1078 01-11-2018 17:45:00 7.3 C 94 % 6.4 C
1079 01-11-2018 17:50:00 7.2 C 94 % 6.3 C
1080 01-11-2018 17:55:00 7.1 C 94 % 6.2 C
1081 01-11-2018 18:00:00 7 C 94 % 6.1 C
1082 01-11-2018 18:05:00 7 C 94 % 6.1 C
1083 01-11-2018 18:10:00 7.2 C 95 % 6.45 C
1084 01-11-2018 18:15:00 7.3 C 95 % 6.55 C
1085 01-11-2018 18:20:00 7.4 C 96 % 6.8 C
1086 01-11-2018 18:25:00 7.5 C 96 % 6.9 C
1087 01-11-2018 18:30:00 7.6 C 96 % 7 C
1088 01-11-2018 18:35:00 7.6 C 96 % 7 C
1089 01-11-2018 18:40:00 7.6 C 96 % 7 C
1090 01-11-2018 18:45:00 7.6 C 96 % 7 C
1091 01-11-2018 18:50:00 7.6 C 96 % 7 C
1092 01-11-2018 18:55:00 7.6 C 96 % 7 C
1093 01-11-2018 19:00:00 7.6 C 95 % 6.85 C
1094 01-11-2018 19:05:00 7.3 C 95 % 6.55 C
1095 01-11-2018 19:10:00 7.1 C 95 % 6.35 C
1096 01-11-2018 19:15:00 6.8 C 95 % 6.06 C
1097 01-11-2018 19:20:00 6.7 C 95 % 5.96 C
1098 01-11-2018 19:25:00 6.6 C 95 % 5.86 C
1099 01-11-2018 19:30:00 6.6 C 95 % 5.86 C
1100 01-11-2018 19:35:00 6.5 C 95 % 5.76 C
Sensor: Nr:Datum:Temp:Feuchte:Taupunkt:
Aussen-T/F 1101 01-11-2018 19:40:00 6.5 C 95 % 5.76 C
1102 01-11-2018 19:45:00 6.6 C 95 % 5.86 C
1103 01-11-2018 19:50:00 6.6 C 96 % 6.01 C
1104 01-11-2018 19:55:00 6.7 C 96 % 6.11 C
1105 01-11-2018 20:00:00 6.7 C 96 % 6.11 C
1106 01-11-2018 20:05:00 6.8 C 96 % 6.21 C
1107 01-11-2018 20:10:00 6.8 C 96 % 6.21 C
1108 01-11-2018 20:15:00 6.7 C 96 % 6.11 C
1109 01-11-2018 20:20:00 6.6 C 96 % 6.01 C
1110 01-11-2018 20:25:00 6.6 C 96 % 6.01 C
1111 01-11-2018 20:30:00 6.6 C 96 % 6.01 C
1112 01-11-2018 20:35:00 6.6 C 96 % 6.01 C
1113 01-11-2018 20:40:00 6.6 C 96 % 6.01 C
1114 01-11-2018 20:45:00 6.7 C 96 % 6.11 C
1115 01-11-2018 20:50:00 6.7 C 96 % 6.11 C
1116 01-11-2018 20:55:00 6.7 C 96 % 6.11 C
1117 01-11-2018 21:00:00 6.8 C 96 % 6.21 C
1118 01-11-2018 21:05:00 6.8 C 96 % 6.21 C
1119 01-11-2018 21:10:00 6.9 C 96 % 6.31 C
1120 01-11-2018 21:15:00 7 C 96 % 6.41 C
1121 01-11-2018 21:20:00 7.1 C 96 % 6.51 C
1122 01-11-2018 21:25:00 7.2 C 96 % 6.61 C
1123 01-11-2018 21:30:00 7.3 C 96 % 6.71 C
1124 01-11-2018 21:35:00 7.4 C 97 % 6.96 C
1125 01-11-2018 21:40:00 7.6 C 97 % 7.16 C
Sensor: Nr:Datum:Temp:Feuchte:Taupunkt:
Aussen-T/F 1126 01-11-2018 21:45:00 7.7 C 97 % 7.25 C
1127 01-11-2018 21:50:00 7.9 C 97 % 7.45 C
1128 01-11-2018 21:55:00 8.1 C 97 % 7.65 C
1129 01-11-2018 22:00:00 8.1 C 97 % 7.65 C
1130 01-11-2018 22:05:00 8.2 C 97 % 7.75 C
1131 01-11-2018 22:10:00 8.3 C 97 % 7.85 C
1132 01-11-2018 22:15:00 8.5 C 97 % 8.05 C
1133 01-11-2018 22:20:00 8.7 C 97 % 8.25 C
1134 01-11-2018 22:25:00 8.8 C 97 % 8.35 C
1135 01-11-2018 22:30:00 8.9 C 97 % 8.45 C
1136 01-11-2018 22:35:00 9 C 97 % 8.55 C
1137 01-11-2018 22:40:00 9.1 C 97 % 8.65 C
1138 01-11-2018 22:45:00 9.1 C 97 % 8.65 C
1139 01-11-2018 22:50:00 9.2 C 97 % 8.75 C
1140 01-11-2018 22:55:00 9.2 C 97 % 8.75 C
1141 01-11-2018 23:00:00 9.2 C 97 % 8.75 C
1142 01-11-2018 23:05:00 9.2 C 97 % 8.75 C
1143 01-11-2018 23:10:00 9.2 C 97 % 8.75 C
1144 01-11-2018 23:15:00 9.2 C 97 % 8.75 C
1145 01-11-2018 23:20:00 9.3 C 97 % 8.85 C
1146 01-11-2018 23:25:00 9.3 C 97 % 8.85 C
1147 01-11-2018 23:30:00 9.3 C 97 % 8.85 C
1148 01-11-2018 23:35:00 9.4 C 97 % 8.95 C
1149 01-11-2018 23:40:00 9.4 C 97 % 8.95 C
1150 01-11-2018 23:45:00 9.4 C 97 % 8.95 C
Sensor: Nr:Datum:Temp:Feuchte:Taupunkt:
Aussen-T/F 1151 01-11-2018 23:50:00 9.4 C 97 % 8.95 C
1152 01-11-2018 23:55:00 9.4 C 97 % 8.95 C
1153 02-11-2018 00:00:00 9.3 C 97 % 8.85 C
1154 02-11-2018 00:05:00 9.3 C 97 % 8.85 C
1155 02-11-2018 00:10:00 9.3 C 97 % 8.85 C
1156 02-11-2018 00:15:00 9.3 C 97 % 8.85 C
1157 02-11-2018 00:20:00 9.3 C 97 % 8.85 C
1158 02-11-2018 00:25:00 9.2 C 97 % 8.75 C
1159 02-11-2018 00:30:00 8.9 C 96 % 8.3 C
1160 02-11-2018 00:35:00 8.7 C 96 % 8.1 C
1161 02-11-2018 00:40:00 8.7 C 97 % 8.25 C
1162 02-11-2018 00:45:00 8.8 C 97 % 8.35 C
1163 02-11-2018 00:50:00 8.9 C 97 % 8.45 C
1164 02-11-2018 00:55:00 8.9 C 97 % 8.45 C
1165 02-11-2018 01:00:00 9 C 97 % 8.55 C
1166 02-11-2018 01:05:00 9.1 C 97 % 8.65 C
1167 02-11-2018 01:10:00 9.1 C 97 % 8.65 C
1168 02-11-2018 01:15:00 9.1 C 97 % 8.65 C
1169 02-11-2018 01:20:00 9.1 C 97 % 8.65 C
1170 02-11-2018 01:25:00 9.1 C 97 % 8.65 C
1171 02-11-2018 01:30:00 9.1 C 97 % 8.65 C
1172 02-11-2018 01:35:00 9.2 C 97 % 8.75 C
1173 02-11-2018 01:40:00 9.2 C 97 % 8.75 C
1174 02-11-2018 01:45:00 9.2 C 97 % 8.75 C
1175 02-11-2018 01:50:00 9.2 C 97 % 8.75 C
Sensor: Nr:Datum:Temp:Feuchte:Taupunkt:
Aussen-T/F 1176 02-11-2018 01:55:00 9.2 C 97 % 8.75 C
1177 02-11-2018 02:00:00 9.2 C 97 % 8.75 C
1178 02-11-2018 02:05:00 9.3 C 97 % 8.85 C
1179 02-11-2018 02:10:00 9.3 C 97 % 8.85 C
1180 02-11-2018 02:15:00 9.2 C 97 % 8.75 C
1181 02-11-2018 02:20:00 9.2 C 97 % 8.75 C
1182 02-11-2018 02:25:00 9.2 C 97 % 8.75 C
1183 02-11-2018 02:30:00 9.2 C 97 % 8.75 C
1184 02-11-2018 02:35:00 9.2 C 97 % 8.75 C
1185 02-11-2018 02:40:00 9.2 C 97 % 8.75 C
1186 02-11-2018 02:45:00 9.2 C 97 % 8.75 C
1187 02-11-2018 02:50:00 9.2 C 97 % 8.75 C
1188 02-11-2018 02:55:00 9.3 C 97 % 8.85 C
1189 02-11-2018 03:00:00 9.3 C 97 % 8.85 C
1190 02-11-2018 03:05:00 9.3 C 97 % 8.85 C
1191 02-11-2018 03:10:00 9.3 C 97 % 8.85 C
1192 02-11-2018 03:15:00 9.3 C 97 % 8.85 C
1193 02-11-2018 03:20:00 9.2 C 97 % 8.75 C
1194 02-11-2018 03:25:00 9.2 C 96 % 8.6 C
1195 02-11-2018 03:30:00 9.1 C 97 % 8.65 C
1196 02-11-2018 03:35:00 9.1 C 97 % 8.65 C
1197 02-11-2018 03:40:00 9.1 C 97 % 8.65 C
1198 02-11-2018 03:45:00 9.1 C 97 % 8.65 C
1199 02-11-2018 03:50:00 9.1 C 97 % 8.65 C
1200 02-11-2018 03:55:00 9.1 C 97 % 8.65 C
Sensor: Nr:Datum:Temp:Feuchte:Taupunkt:
Aussen-T/F 1201 02-11-2018 04:00:00 9.1 C 97 % 8.65 C
1202 02-11-2018 04:05:00 9.1 C 97 % 8.65 C
1203 02-11-2018 04:10:00 9.1 C 97 % 8.65 C
1204 02-11-2018 04:15:00 9.1 C 97 % 8.65 C
1205 02-11-2018 04:20:00 9.1 C 97 % 8.65 C
1206 02-11-2018 04:25:00 9.1 C 97 % 8.65 C
1207 02-11-2018 04:30:00 9.1 C 97 % 8.65 C
1208 02-11-2018 04:35:00 9.1 C 97 % 8.65 C
1209 02-11-2018 04:40:00 9.1 C 97 % 8.65 C
1210 02-11-2018 04:45:00 9.1 C 97 % 8.65 C
1211 02-11-2018 04:50:00 9.1 C 97 % 8.65 C
1212 02-11-2018 04:55:00 9.1 C 97 % 8.65 C
1213 02-11-2018 05:00:00 9.1 C 97 % 8.65 C
1214 02-11-2018 05:05:00 9.1 C 97 % 8.65 C
1215 02-11-2018 05:10:00 9.1 C 97 % 8.65 C
1216 02-11-2018 05:15:00 9.1 C 97 % 8.65 C
1217 02-11-2018 05:20:00 9.1 C 97 % 8.65 C
1218 02-11-2018 05:25:00 9.1 C 97 % 8.65 C
1219 02-11-2018 05:30:00 9.1 C 97 % 8.65 C
1220 02-11-2018 05:35:00 9.1 C 97 % 8.65 C
1221 02-11-2018 05:40:00 9.1 C 97 % 8.65 C
1222 02-11-2018 05:45:00 9 C 97 % 8.55 C
1223 02-11-2018 05:50:00 9 C 97 % 8.55 C
1224 02-11-2018 05:55:00 8.9 C 97 % 8.45 C
1225 02-11-2018 06:00:00 9 C 97 % 8.55 C
Sensor: Nr:Datum:Temp:Feuchte:Taupunkt:
Aussen-T/F 1226 02-11-2018 06:05:00 9 C 97 % 8.55 C
1227 02-11-2018 06:10:00 9 C 97 % 8.55 C
1228 02-11-2018 06:15:00 8.9 C 97 % 8.45 C
1229 02-11-2018 06:20:00 8.9 C 97 % 8.45 C
1230 02-11-2018 06:25:00 8.9 C 97 % 8.45 C
1231 02-11-2018 06:30:00 8.9 C 97 % 8.45 C
1232 02-11-2018 06:35:00 8.9 C 97 % 8.45 C
1233 02-11-2018 06:40:00 8.9 C 97 % 8.45 C
1234 02-11-2018 06:45:00 8.9 C 97 % 8.45 C
1235 02-11-2018 06:50:00 8.9 C 97 % 8.45 C
1236 02-11-2018 06:55:00 8.9 C 97 % 8.45 C
1237 02-11-2018 07:00:00 8.9 C 97 % 8.45 C
1238 02-11-2018 07:05:00 8.9 C 96 % 8.3 C
1239 02-11-2018 07:10:00 8.9 C 96 % 8.3 C
1240 02-11-2018 07:15:00 8.8 C 96 % 8.2 C
1241 02-11-2018 07:20:00 8.8 C 96 % 8.2 C
1242 02-11-2018 07:25:00 8.7 C 96 % 8.1 C
1243 02-11-2018 07:30:00 8.7 C 96 % 8.1 C
1244 02-11-2018 07:35:00 8.7 C 96 % 8.1 C
1245 02-11-2018 07:40:00 8.7 C 96 % 8.1 C
1246 02-11-2018 07:45:00 8.7 C 96 % 8.1 C
1247 02-11-2018 07:50:00 8.7 C 96 % 8.1 C
1248 02-11-2018 07:55:00 8.8 C 96 % 8.2 C
1249 02-11-2018 08:00:00 8.8 C 96 % 8.2 C
1250 02-11-2018 08:05:00 8.8 C 96 % 8.2 C
Sensor: Nr:Datum:Temp:Feuchte:Taupunkt:
Aussen-T/F 1251 02-11-2018 08:10:00 8.8 C 96 % 8.2 C
1252 02-11-2018 08:15:00 8.8 C 96 % 8.2 C
1253 02-11-2018 08:20:00 8.7 C 96 % 8.1 C
1254 02-11-2018 08:25:00 8.7 C 96 % 8.1 C
1255 02-11-2018 08:30:00 8.6 C 96 % 8 C
1256 02-11-2018 08:35:00 8.6 C 96 % 8 C
1257 02-11-2018 08:40:00 8.6 C 96 % 8 C
1258 02-11-2018 08:45:00 8.6 C 96 % 8 C
1259 02-11-2018 08:50:00 8.5 C 96 % 7.9 C
1260 02-11-2018 08:55:00 8.4 C 96 % 7.8 C
1261 02-11-2018 09:00:00 8.4 C 96 % 7.8 C
1262 02-11-2018 09:05:00 8.4 C 96 % 7.8 C
1263 02-11-2018 09:10:00 8.6 C 96 % 8 C
1264 02-11-2018 09:15:00 8.6 C 96 % 8 C
1265 02-11-2018 09:20:00 8.7 C 96 % 8.1 C
1266 02-11-2018 09:25:00 8.7 C 96 % 8.1 C
1267 02-11-2018 09:30:00 8.8 C 96 % 8.2 C
1268 02-11-2018 09:35:00 9 C 96 % 8.4 C
1269 02-11-2018 09:40:00 9.2 C 96 % 8.6 C
1270 02-11-2018 09:45:00 9.3 C 97 % 8.85 C
1271 02-11-2018 09:50:00 9.4 C 96 % 8.8 C
1272 02-11-2018 09:55:00 9.6 C 96 % 8.99 C
1273 02-11-2018 10:00:00 9.7 C 96 % 9.09 C
1274 02-11-2018 10:05:00 9.7 C 96 % 9.09 C
1275 02-11-2018 10:10:00 9.8 C 96 % 9.19 C
Sensor: Nr:Datum:Temp:Feuchte:Taupunkt:
Aussen-T/F 1276 02-11-2018 10:15:00 9.9 C 95 % 9.14 C
1277 02-11-2018 10:20:00 10.1 C 94 % 9.18 C
1278 02-11-2018 10:25:00 10.1 C 94 % 9.18 C
1279 02-11-2018 10:30:00 10.2 C 93 % 9.12 C
1280 02-11-2018 10:35:00 10.4 C 93 % 9.32 C
1281 02-11-2018 10:40:00 10.5 C 92 % 9.26 C
1282 02-11-2018 10:45:00 10.6 C 92 % 9.36 C
1283 02-11-2018 10:50:00 10.7 C 91 % 9.29 C
1284 02-11-2018 10:55:00 10.7 C 90 % 9.13 C
1285 02-11-2018 11:00:00 10.8 C 89 % 9.06 C
1286 02-11-2018 11:05:00 10.9 C 89 % 9.16 C
1287 02-11-2018 11:10:00 11 C 88 % 9.09 C
1288 02-11-2018 11:15:00 11.1 C 88 % 9.19 C
1289 02-11-2018 11:20:00 11.2 C 88 % 9.29 C
1290 02-11-2018 11:25:00 11.2 C 88 % 9.29 C
1291 02-11-2018 11:30:00 11.3 C 87 % 9.22 C
1292 02-11-2018 11:35:00 11.3 C 86 % 9.05 C
1293 02-11-2018 11:40:00 11.4 C 87 % 9.32 C
1294 02-11-2018 11:45:00 11.4 C 85 % 8.97 C
1295 02-11-2018 11:50:00 11.6 C 86 % 9.34 C
1296 02-11-2018 11:55:00 11.6 C 84 % 8.99 C
1297 02-11-2018 12:00:00 11.6 C 83 % 8.81 C
1298 02-11-2018 12:05:00 11.6 C 83 % 8.81 C
1299 02-11-2018 12:10:00 11.7 C 84 % 9.09 C
1300 02-11-2018 12:15:00 11.7 C 83 % 8.91 C
Sensor: Nr:Datum:Temp:Feuchte:Taupunkt:
Aussen-T/F 1301 02-11-2018 12:20:00 11.7 C 83 % 8.91 C
1302 02-11-2018 12:25:00 11.7 C 83 % 8.91 C
1303 02-11-2018 12:30:00 11.7 C 82 % 8.73 C
1304 02-11-2018 12:35:00 11.7 C 83 % 8.91 C
1305 02-11-2018 12:40:00 11.7 C 83 % 8.91 C
1306 02-11-2018 12:45:00 11.5 C 82 % 8.54 C
1307 02-11-2018 12:50:00 11.4 C 83 % 8.62 C
1308 02-11-2018 12:55:00 11.4 C 83 % 8.62 C
1309 02-11-2018 13:00:00 11.4 C 82 % 8.44 C
1310 02-11-2018 13:05:00 11.3 C 82 % 8.34 C
1311 02-11-2018 13:10:00 11.3 C 82 % 8.34 C
1312 02-11-2018 13:15:00 11.2 C 82 % 8.25 C
1313 02-11-2018 13:20:00 11.2 C 83 % 8.42 C
1314 02-11-2018 13:25:00 11 C 85 % 8.58 C
1315 02-11-2018 13:30:00 10.8 C 86 % 8.56 C
1316 02-11-2018 13:35:00 10.7 C 87 % 8.63 C
1317 02-11-2018 13:40:00 10.7 C 88 % 8.8 C
1318 02-11-2018 13:45:00 10.6 C 89 % 8.86 C
1319 02-11-2018 13:50:00 10.4 C 89 % 8.67 C
1320 02-11-2018 13:55:00 10.3 C 89 % 8.57 C
1321 02-11-2018 14:00:00 10.2 C 90 % 8.64 C
1322 02-11-2018 14:05:00 10.1 C 91 % 8.7 C
1323 02-11-2018 14:10:00 10.1 C 91 % 8.7 C
1324 02-11-2018 14:15:00 10 C 92 % 8.76 C
1325 02-11-2018 14:20:00 10 C 92 % 8.76 C
Sensor: Nr:Datum:Temp:Feuchte:Taupunkt:
Aussen-T/F 1326 02-11-2018 14:25:00 9.9 C 92 % 8.66 C
1327 02-11-2018 14:30:00 9.9 C 92 % 8.66 C
1328 02-11-2018 14:35:00 9.8 C 92 % 8.56 C
1329 02-11-2018 14:40:00 9.8 C 92 % 8.56 C
1330 02-11-2018 14:45:00 9.8 C 92 % 8.56 C
1331 02-11-2018 14:50:00 9.7 C 93 % 8.62 C
1332 02-11-2018 14:55:00 9.6 C 93 % 8.53 C
1333 02-11-2018 15:00:00 9.6 C 93 % 8.53 C
1334 02-11-2018 15:05:00 9.6 C 93 % 8.53 C
1335 02-11-2018 15:10:00 9.6 C 93 % 8.53 C
1336 02-11-2018 15:15:00 9.6 C 93 % 8.53 C
1337 02-11-2018 15:20:00 9.6 C 94 % 8.68 C
1338 02-11-2018 15:25:00 9.7 C 94 % 8.78 C
1339 02-11-2018 15:30:00 9.7 C 94 % 8.78 C
1340 02-11-2018 15:35:00 9.7 C 94 % 8.78 C
1341 02-11-2018 15:40:00 9.7 C 94 % 8.78 C
1342 02-11-2018 15:45:00 9.5 C 93 % 8.43 C
1343 02-11-2018 15:50:00 9.4 C 94 % 8.48 C
1344 02-11-2018 15:55:00 9.4 C 94 % 8.48 C
1345 02-11-2018 16:00:00 9.3 C 93 % 8.23 C
1346 02-11-2018 16:05:00 9.2 C 93 % 8.13 C
1347 02-11-2018 16:10:00 9.2 C 94 % 8.29 C
1348 02-11-2018 16:15:00 9.1 C 94 % 8.19 C
1349 02-11-2018 16:20:00 9.1 C 94 % 8.19 C
1350 02-11-2018 16:25:00 9 C 93 % 7.93 C
Sensor: Nr:Datum:Temp:Feuchte:Taupunkt:
Aussen-T/F 1351 02-11-2018 16:30:00 8.9 C 93 % 7.83 C
1352 02-11-2018 16:35:00 8.8 C 94 % 7.89 C
1353 02-11-2018 16:40:00 8.8 C 94 % 7.89 C
1354 02-11-2018 16:45:00 8.8 C 93 % 7.73 C
1355 02-11-2018 16:50:00 8.7 C 93 % 7.63 C
1356 02-11-2018 16:55:00 8.7 C 93 % 7.63 C
1357 02-11-2018 17:00:00 8.7 C 93 % 7.63 C
1358 02-11-2018 17:05:00 8.7 C 94 % 7.79 C
1359 02-11-2018 17:10:00 8.7 C 93 % 7.63 C
1360 02-11-2018 17:15:00 8.7 C 93 % 7.63 C
1361 02-11-2018 17:20:00 8.6 C 94 % 7.69 C
1362 02-11-2018 17:25:00 8.6 C 94 % 7.69 C
1363 02-11-2018 17:30:00 8.5 C 94 % 7.59 C
1364 02-11-2018 17:35:00 8.5 C 94 % 7.59 C
1365 02-11-2018 17:40:00 8.5 C 93 % 7.43 C
1366 02-11-2018 17:45:00 8.5 C 93 % 7.43 C
1367 02-11-2018 17:50:00 8.5 C 93 % 7.43 C
1368 02-11-2018 17:55:00 8.5 C 93 % 7.43 C
1369 02-11-2018 18:00:00 8.5 C 93 % 7.43 C
1370 02-11-2018 18:05:00 8.4 C 94 % 7.49 C
1371 02-11-2018 18:10:00 8.4 C 94 % 7.49 C
1372 02-11-2018 18:15:00 8.4 C 94 % 7.49 C
1373 02-11-2018 18:20:00 8.3 C 94 % 7.39 C
1374 02-11-2018 18:25:00 8.3 C 94 % 7.39 C
1375 02-11-2018 18:30:00 8.2 C 94 % 7.29 C
Sensor: Nr:Datum:Temp:Feuchte:Taupunkt:
Aussen-T/F 1376 02-11-2018 18:35:00 8.2 C 94 % 7.29 C
1377 02-11-2018 18:40:00 8.1 C 94 % 7.19 C
1378 02-11-2018 18:45:00 8.1 C 94 % 7.19 C
1379 02-11-2018 18:50:00 8.1 C 94 % 7.19 C
1380 02-11-2018 18:55:00 8 C 94 % 7.09 C
1381 02-11-2018 19:00:00 7.9 C 94 % 7 C
1382 02-11-2018 19:05:00 7.9 C 95 % 7.15 C
1383 02-11-2018 19:10:00 7.8 C 94 % 6.9 C
1384 02-11-2018 19:15:00 7.8 C 94 % 6.9 C
1385 02-11-2018 19:20:00 7.8 C 95 % 7.05 C
1386 02-11-2018 19:25:00 7.7 C 95 % 6.95 C
1387 02-11-2018 19:30:00 7.7 C 95 % 6.95 C
1388 02-11-2018 19:35:00 7.7 C 95 % 6.95 C
1389 02-11-2018 19:40:00 7.6 C 95 % 6.85 C
1390 02-11-2018 19:45:00 7.5 C 95 % 6.75 C
1391 02-11-2018 19:50:00 7.4 C 95 % 6.65 C
1392 02-11-2018 19:55:00 7.4 C 95 % 6.65 C
1393 02-11-2018 20:00:00 7.3 C 95 % 6.55 C
1394 02-11-2018 20:05:00 7.3 C 95 % 6.55 C
1395 02-11-2018 20:10:00 7.2 C 95 % 6.45 C
1396 02-11-2018 20:15:00 7.2 C 95 % 6.45 C
1397 02-11-2018 20:20:00 7.2 C 95 % 6.45 C
1398 02-11-2018 20:25:00 7.1 C 95 % 6.35 C
1399 02-11-2018 20:30:00 7.1 C 95 % 6.35 C
1400 02-11-2018 20:35:00 7.1 C 95 % 6.35 C
Sensor: Nr:Datum:Temp:Feuchte:Taupunkt:
Aussen-T/F 1401 02-11-2018 20:40:00 7.1 C 95 % 6.35 C
1402 02-11-2018 20:45:00 7.1 C 95 % 6.35 C
1403 02-11-2018 20:50:00 7 C 95 % 6.26 C
1404 02-11-2018 20:55:00 7 C 95 % 6.26 C
1405 02-11-2018 21:00:00 7 C 95 % 6.26 C
1406 02-11-2018 21:05:00 7 C 95 % 6.26 C
1407 02-11-2018 21:10:00 7 C 95 % 6.26 C
1408 02-11-2018 21:15:00 7 C 95 % 6.26 C
1409 02-11-2018 21:20:00 7 C 95 % 6.26 C
1410 02-11-2018 21:25:00 7 C 95 % 6.26 C
1411 02-11-2018 21:30:00 7 C 95 % 6.26 C
1412 02-11-2018 21:35:00 7 C 95 % 6.26 C
1413 02-11-2018 21:40:00 7 C 95 % 6.26 C
1414 02-11-2018 21:45:00 7 C 96 % 6.41 C
1415 02-11-2018 21:50:00 7 C 96 % 6.41 C
1416 02-11-2018 21:55:00 7 C 96 % 6.41 C
1417 02-11-2018 22:00:00 7 C 96 % 6.41 C
1418 02-11-2018 22:05:00 6.9 C 95 % 6.16 C
1419 02-11-2018 22:10:00 6.8 C 95 % 6.06 C
1420 02-11-2018 22:15:00 6.7 C 95 % 5.96 C
1421 02-11-2018 22:20:00 6.5 C 95 % 5.76 C
1422 02-11-2018 22:25:00 6.3 C 95 % 5.56 C
1423 02-11-2018 22:30:00 6.3 C 95 % 5.56 C
1424 02-11-2018 22:35:00 6.2 C 95 % 5.46 C
1425 02-11-2018 22:40:00 6.1 C 95 % 5.36 C
Sensor: Nr:Datum:Temp:Feuchte:Taupunkt:
Aussen-T/F 1426 02-11-2018 22:45:00 5.9 C 95 % 5.16 C
1427 02-11-2018 22:50:00 5.8 C 95 % 5.06 C
1428 02-11-2018 22:55:00 5.7 C 95 % 4.96 C
1429 02-11-2018 23:00:00 5.6 C 95 % 4.86 C
1430 02-11-2018 23:05:00 5.6 C 95 % 4.86 C
1431 02-11-2018 23:10:00 5.6 C 95 % 4.86 C
1432 02-11-2018 23:15:00 5.6 C 95 % 4.86 C
1433 02-11-2018 23:20:00 5.4 C 95 % 4.66 C
1434 02-11-2018 23:25:00 5.4 C 95 % 4.66 C
1435 02-11-2018 23:30:00 5.3 C 95 % 4.57 C
1436 02-11-2018 23:35:00 5.2 C 95 % 4.47 C
1437 02-11-2018 23:40:00 5.1 C 95 % 4.37 C
1438 02-11-2018 23:45:00 5.1 C 96 % 4.52 C
1439 02-11-2018 23:50:00 5.1 C 96 % 4.52 C
1440 02-11-2018 23:55:00 5.1 C 95 % 4.37 C
1441 03-11-2018 00:00:00 4.9 C 95 % 4.17 C
1442 03-11-2018 00:05:00 4.9 C 95 % 4.17 C
1443 03-11-2018 00:10:00 4.8 C 95 % 4.07 C
1444 03-11-2018 00:15:00 4.7 C 95 % 3.97 C
1445 03-11-2018 00:20:00 4.6 C 95 % 3.87 C
1446 03-11-2018 00:25:00 4.4 C 95 % 3.67 C
1447 03-11-2018 00:30:00 4.3 C 95 % 3.57 C
1448 03-11-2018 00:35:00 4.3 C 95 % 3.57 C
1449 03-11-2018 00:40:00 4.1 C 95 % 3.37 C
1450 03-11-2018 00:45:00 4 C 95 % 3.27 C
Sensor: Nr:Datum:Temp:Feuchte:Taupunkt:
Aussen-T/F 1451 03-11-2018 00:50:00 3.9 C 95 % 3.17 C
1452 03-11-2018 00:55:00 3.9 C 96 % 3.32 C
1453 03-11-2018 01:00:00 3.8 C 96 % 3.22 C
1454 03-11-2018 01:05:00 3.7 C 95 % 2.98 C
1455 03-11-2018 01:10:00 3.6 C 95 % 2.88 C
1456 03-11-2018 01:15:00 3.5 C 95 % 2.78 C
1457 03-11-2018 01:20:00 3.4 C 95 % 2.68 C
1458 03-11-2018 01:25:00 3.3 C 95 % 2.58 C
1459 03-11-2018 01:30:00 3.2 C 95 % 2.48 C
1460 03-11-2018 01:35:00 3.2 C 96 % 2.63 C
1461 03-11-2018 01:40:00 3.2 C 96 % 2.63 C
1462 03-11-2018 01:45:00 3.2 C 95 % 2.48 C
1463 03-11-2018 01:50:00 3.1 C 96 % 2.53 C
1464 03-11-2018 01:55:00 3.1 C 96 % 2.53 C
1465 03-11-2018 02:00:00 3.1 C 96 % 2.53 C
1466 03-11-2018 02:05:00 3.1 C 96 % 2.53 C
1467 03-11-2018 02:10:00 3.1 C 96 % 2.53 C
1468 03-11-2018 02:15:00 3 C 96 % 2.43 C
1469 03-11-2018 02:20:00 2.9 C 96 % 2.33 C
1470 03-11-2018 02:25:00 2.8 C 96 % 2.23 C
1471 03-11-2018 02:30:00 2.8 C 95 % 2.08 C
1472 03-11-2018 02:35:00 2.6 C 96 % 2.03 C
1473 03-11-2018 02:40:00 2.5 C 96 % 1.93 C
1474 03-11-2018 02:45:00 2.4 C 95 % 1.68 C
1475 03-11-2018 02:50:00 2.4 C 96 % 1.83 C
Sensor: Nr:Datum:Temp:Feuchte:Taupunkt:
Aussen-T/F 1476 03-11-2018 02:55:00 2.4 C 96 % 1.83 C
1477 03-11-2018 03:00:00 2.4 C 96 % 1.83 C
1478 03-11-2018 03:05:00 2.4 C 96 % 1.83 C
1479 03-11-2018 03:10:00 2.3 C 96 % 1.73 C
1480 03-11-2018 03:15:00 2.3 C 96 % 1.73 C
1481 03-11-2018 03:20:00 2.2 C 96 % 1.63 C
1482 03-11-2018 03:25:00 2.2 C 96 % 1.63 C
1483 03-11-2018 03:30:00 2.2 C 96 % 1.63 C
1484 03-11-2018 03:35:00 2.3 C 96 % 1.73 C
1485 03-11-2018 03:40:00 2.3 C 96 % 1.73 C
1486 03-11-2018 03:45:00 2.4 C 96 % 1.83 C
1487 03-11-2018 03:50:00 2.4 C 96 % 1.83 C
1488 03-11-2018 03:55:00 2.5 C 96 % 1.93 C
1489 03-11-2018 04:00:00 2.6 C 96 % 2.03 C
1490 03-11-2018 04:05:00 2.7 C 96 % 2.13 C
1491 03-11-2018 04:10:00 2.7 C 96 % 2.13 C
1492 03-11-2018 04:15:00 2.7 C 96 % 2.13 C
1493 03-11-2018 04:20:00 2.7 C 96 % 2.13 C
1494 03-11-2018 04:25:00 2.7 C 96 % 2.13 C
1495 03-11-2018 04:30:00 2.7 C 96 % 2.13 C
1496 03-11-2018 04:35:00 2.7 C 96 % 2.13 C
1497 03-11-2018 04:40:00 2.7 C 96 % 2.13 C
1498 03-11-2018 04:45:00 2.8 C 97 % 2.37 C
1499 03-11-2018 04:50:00 2.8 C 97 % 2.37 C
1500 03-11-2018 04:55:00 2.8 C 97 % 2.37 C
Sensor: Nr:Datum:Temp:Feuchte:Taupunkt:
Aussen-T/F 1501 03-11-2018 05:00:00 2.8 C 97 % 2.37 C
1502 03-11-2018 05:05:00 2.8 C 97 % 2.37 C
1503 03-11-2018 05:10:00 2.7 C 96 % 2.13 C
1504 03-11-2018 05:15:00 2.7 C 96 % 2.13 C
1505 03-11-2018 05:20:00 2.6 C 96 % 2.03 C
1506 03-11-2018 05:25:00 2.6 C 96 % 2.03 C
1507 03-11-2018 05:30:00 2.6 C 96 % 2.03 C
1508 03-11-2018 05:35:00 2.7 C 96 % 2.13 C
1509 03-11-2018 05:40:00 2.7 C 96 % 2.13 C
1510 03-11-2018 05:45:00 2.7 C 96 % 2.13 C
1511 03-11-2018 05:50:00 2.7 C 96 % 2.13 C
1512 03-11-2018 05:55:00 2.7 C 96 % 2.13 C
1513 03-11-2018 06:00:00 2.7 C 96 % 2.13 C
1514 03-11-2018 06:05:00 2.7 C 96 % 2.13 C
1515 03-11-2018 06:10:00 2.7 C 96 % 2.13 C
1516 03-11-2018 06:15:00 2.7 C 96 % 2.13 C
1517 03-11-2018 06:20:00 2.8 C 97 % 2.37 C
1518 03-11-2018 06:25:00 2.8 C 96 % 2.23 C
1519 03-11-2018 06:30:00 2.8 C 96 % 2.23 C
1520 03-11-2018 06:35:00 2.9 C 97 % 2.47 C
1521 03-11-2018 06:40:00 2.9 C 97 % 2.47 C
1522 03-11-2018 06:45:00 2.9 C 97 % 2.47 C
1523 03-11-2018 06:50:00 2.9 C 97 % 2.47 C
1524 03-11-2018 06:55:00 2.9 C 97 % 2.47 C
1525 03-11-2018 07:00:00 2.8 C 97 % 2.37 C
Sensor: Nr:Datum:Temp:Feuchte:Taupunkt:
Aussen-T/F 1526 03-11-2018 07:05:00 2.8 C 97 % 2.37 C
1527 03-11-2018 07:10:00 2.8 C 96 % 2.23 C
1528 03-11-2018 07:15:00 2.8 C 97 % 2.37 C
1529 03-11-2018 07:20:00 2.8 C 97 % 2.37 C
1530 03-11-2018 07:25:00 2.8 C 97 % 2.37 C
1531 03-11-2018 07:30:00 2.8 C 97 % 2.37 C
1532 03-11-2018 07:35:00 2.8 C 97 % 2.37 C
1533 03-11-2018 07:40:00 2.8 C 97 % 2.37 C
1534 03-11-2018 07:45:00 2.8 C 97 % 2.37 C
1535 03-11-2018 07:50:00 2.8 C 97 % 2.37 C
1536 03-11-2018 07:55:00 2.8 C 97 % 2.37 C
1537 03-11-2018 08:00:00 2.9 C 97 % 2.47 C
1538 03-11-2018 08:05:00 2.9 C 97 % 2.47 C
1539 03-11-2018 08:10:00 2.9 C 97 % 2.47 C
1540 03-11-2018 08:15:00 2.9 C 97 % 2.47 C
1541 03-11-2018 08:20:00 3 C 97 % 2.57 C
1542 03-11-2018 08:25:00 3.1 C 97 % 2.67 C
1543 03-11-2018 08:30:00 3.1 C 97 % 2.67 C
1544 03-11-2018 08:35:00 3.1 C 97 % 2.67 C
1545 03-11-2018 08:40:00 3.1 C 97 % 2.67 C
1546 03-11-2018 08:45:00 3.1 C 97 % 2.67 C
1547 03-11-2018 08:50:00 3.2 C 97 % 2.77 C
1548 03-11-2018 08:55:00 3.2 C 97 % 2.77 C
1549 03-11-2018 09:00:00 3.2 C 97 % 2.77 C
1550 03-11-2018 09:05:00 3.2 C 97 % 2.77 C
Sensor: Nr:Datum:Temp:Feuchte:Taupunkt:
Aussen-T/F 1551 03-11-2018 09:10:00 3.2 C 97 % 2.77 C
1552 03-11-2018 09:15:00 3.2 C 97 % 2.77 C
1553 03-11-2018 09:20:00 3.2 C 97 % 2.77 C
1554 03-11-2018 09:25:00 3.2 C 97 % 2.77 C
1555 03-11-2018 09:30:00 3.2 C 97 % 2.77 C
1556 03-11-2018 09:35:00 3.3 C 97 % 2.87 C
1557 03-11-2018 09:40:00 3.3 C 97 % 2.87 C
1558 03-11-2018 09:45:00 3.3 C 97 % 2.87 C
1559 03-11-2018 09:50:00 3.4 C 97 % 2.97 C
1560 03-11-2018 09:55:00 3.4 C 97 % 2.97 C
1561 03-11-2018 10:00:00 3.4 C 97 % 2.97 C
1562 03-11-2018 10:05:00 3.4 C 97 % 2.97 C
1563 03-11-2018 10:10:00 3.5 C 97 % 3.07 C
1564 03-11-2018 10:15:00 3.6 C 97 % 3.17 C
1565 03-11-2018 10:20:00 3.6 C 97 % 3.17 C
1566 03-11-2018 10:25:00 3.6 C 97 % 3.17 C
1567 03-11-2018 10:30:00 3.7 C 97 % 3.27 C
1568 03-11-2018 10:35:00 3.7 C 97 % 3.27 C
1569 03-11-2018 10:40:00 3.8 C 97 % 3.37 C
1570 03-11-2018 10:45:00 3.8 C 97 % 3.37 C
1571 03-11-2018 10:50:00 3.9 C 97 % 3.47 C
1572 03-11-2018 10:55:00 3.9 C 97 % 3.47 C
1573 03-11-2018 11:00:00 3.8 C 97 % 3.37 C
1574 03-11-2018 11:05:00 3.8 C 97 % 3.37 C
1575 03-11-2018 11:10:00 3.9 C 97 % 3.47 C
Sensor: Nr:Datum:Temp:Feuchte:Taupunkt:
Aussen-T/F 1576 03-11-2018 11:15:00 3.9 C 97 % 3.47 C
1577 03-11-2018 11:20:00 3.9 C 97 % 3.47 C
1578 03-11-2018 11:25:00 3.9 C 97 % 3.47 C
1579 03-11-2018 11:30:00 3.9 C 97 % 3.47 C
1580 03-11-2018 11:35:00 4 C 97 % 3.57 C
1581 03-11-2018 11:40:00 4 C 97 % 3.57 C
1582 03-11-2018 11:45:00 4.1 C 97 % 3.67 C
1583 03-11-2018 11:50:00 4.1 C 97 % 3.67 C
1584 03-11-2018 11:55:00 4.2 C 97 % 3.77 C
1585 03-11-2018 12:00:00 4.2 C 97 % 3.77 C
1586 03-11-2018 12:05:00 4.2 C 97 % 3.77 C
1587 03-11-2018 12:10:00 4.3 C 97 % 3.87 C
1588 03-11-2018 12:15:00 4.3 C 97 % 3.87 C
1589 03-11-2018 12:20:00 4.4 C 97 % 3.97 C
1590 03-11-2018 12:25:00 4.6 C 97 % 4.17 C
1591 03-11-2018 12:30:00 4.6 C 97 % 4.17 C
1592 03-11-2018 12:35:00 4.7 C 97 % 4.27 C
1593 03-11-2018 12:40:00 4.7 C 97 % 4.27 C
1594 03-11-2018 12:45:00 4.7 C 97 % 4.27 C
1595 03-11-2018 12:50:00 4.7 C 97 % 4.27 C
1596 03-11-2018 12:55:00 4.8 C 97 % 4.37 C
1597 03-11-2018 13:00:00 4.8 C 97 % 4.37 C
1598 03-11-2018 13:05:00 4.8 C 97 % 4.37 C
1599 03-11-2018 13:10:00 4.8 C 97 % 4.37 C
1600 03-11-2018 13:15:00 4.9 C 97 % 4.46 C
Sensor: Nr:Datum:Temp:Feuchte:Taupunkt:
Aussen-T/F 1601 03-11-2018 13:20:00 4.9 C 97 % 4.46 C
1602 03-11-2018 13:25:00 4.8 C 97 % 4.37 C
1603 03-11-2018 13:30:00 4.8 C 97 % 4.37 C
1604 03-11-2018 13:35:00 4.9 C 97 % 4.46 C
1605 03-11-2018 13:40:00 5.1 C 97 % 4.66 C
1606 03-11-2018 13:45:00 5.1 C 97 % 4.66 C
1607 03-11-2018 13:50:00 5.2 C 97 % 4.76 C
1608 03-11-2018 13:55:00 5.3 C 97 % 4.86 C
1609 03-11-2018 14:00:00 5.3 C 97 % 4.86 C
1610 03-11-2018 14:05:00 5.3 C 97 % 4.86 C
1611 03-11-2018 14:10:00 5.3 C 97 % 4.86 C
1612 03-11-2018 14:15:00 5.3 C 97 % 4.86 C
1613 03-11-2018 14:20:00 5.2 C 97 % 4.76 C
1614 03-11-2018 14:25:00 5.2 C 97 % 4.76 C
1615 03-11-2018 14:30:00 5.3 C 97 % 4.86 C
1616 03-11-2018 14:35:00 5.3 C 97 % 4.86 C
1617 03-11-2018 14:40:00 5.3 C 97 % 4.86 C
1618 03-11-2018 14:45:00 5.3 C 97 % 4.86 C
1619 03-11-2018 14:50:00 5.3 C 97 % 4.86 C
1620 03-11-2018 14:55:00 5.3 C 97 % 4.86 C
1621 03-11-2018 15:00:00 5.2 C 97 % 4.76 C
1622 03-11-2018 15:05:00 5.1 C 97 % 4.66 C
1623 03-11-2018 15:10:00 5.1 C 97 % 4.66 C
1624 03-11-2018 15:15:00 5.1 C 97 % 4.66 C
1625 03-11-2018 15:20:00 5.1 C 97 % 4.66 C
Sensor: Nr:Datum:Temp:Feuchte:Taupunkt:
Aussen-T/F 1626 03-11-2018 15:25:00 5.1 C 97 % 4.66 C
1627 03-11-2018 15:30:00 5.1 C 97 % 4.66 C
1628 03-11-2018 15:35:00 5 C 97 % 4.56 C
1629 03-11-2018 15:40:00 5.1 C 97 % 4.66 C
1630 03-11-2018 15:45:00 5.1 C 97 % 4.66 C
1631 03-11-2018 15:50:00 5.1 C 96 % 4.52 C
1632 03-11-2018 15:55:00 5 C 96 % 4.42 C
1633 03-11-2018 16:00:00 5 C 97 % 4.56 C
1634 03-11-2018 16:05:00 5 C 97 % 4.56 C
1635 03-11-2018 16:10:00 4.9 C 96 % 4.32 C
1636 03-11-2018 16:15:00 4.9 C 96 % 4.32 C
1637 03-11-2018 16:20:00 4.8 C 96 % 4.22 C
1638 03-11-2018 16:25:00 4.8 C 96 % 4.22 C
1639 03-11-2018 16:30:00 4.8 C 96 % 4.22 C
1640 03-11-2018 16:35:00 4.8 C 96 % 4.22 C
1641 03-11-2018 16:40:00 4.8 C 96 % 4.22 C
1642 03-11-2018 16:45:00 4.8 C 96 % 4.22 C
1643 03-11-2018 16:50:00 4.7 C 96 % 4.12 C
1644 03-11-2018 16:55:00 4.7 C 96 % 4.12 C
1645 03-11-2018 17:00:00 4.7 C 96 % 4.12 C
1646 03-11-2018 17:05:00 4.6 C 96 % 4.02 C
1647 03-11-2018 17:10:00 4.6 C 96 % 4.02 C
1648 03-11-2018 17:15:00 4.5 C 96 % 3.92 C
1649 03-11-2018 17:20:00 4.4 C 96 % 3.82 C
1650 03-11-2018 17:25:00 4.3 C 96 % 3.72 C
Sensor: Nr:Datum:Temp:Feuchte:Taupunkt:
Aussen-T/F 1651 03-11-2018 17:30:00 4.3 C 96 % 3.72 C
1652 03-11-2018 17:35:00 4.2 C 96 % 3.62 C
1653 03-11-2018 17:40:00 4.1 C 96 % 3.52 C
1654 03-11-2018 17:45:00 4.1 C 96 % 3.52 C
1655 03-11-2018 17:50:00 3.9 C 96 % 3.32 C
1656 03-11-2018 17:55:00 3.9 C 96 % 3.32 C
1657 03-11-2018 18:00:00 3.8 C 96 % 3.22 C
1658 03-11-2018 18:05:00 3.9 C 96 % 3.32 C
1659 03-11-2018 18:10:00 3.8 C 96 % 3.22 C
1660 03-11-2018 18:15:00 3.8 C 96 % 3.22 C
1661 03-11-2018 18:20:00 3.8 C 96 % 3.22 C
1662 03-11-2018 18:25:00 3.8 C 96 % 3.22 C
1663 03-11-2018 18:30:00 3.8 C 96 % 3.22 C
1664 03-11-2018 18:35:00 3.7 C 96 % 3.12 C
1665 03-11-2018 18:40:00 3.6 C 96 % 3.02 C
1666 03-11-2018 18:45:00 3.5 C 96 % 2.92 C
1667 03-11-2018 18:50:00 3.3 C 96 % 2.72 C
1668 03-11-2018 18:55:00 3.2 C 96 % 2.63 C
1669 03-11-2018 19:00:00 3.1 C 96 % 2.53 C
1670 03-11-2018 19:05:00 3 C 96 % 2.43 C
1671 03-11-2018 19:10:00 3 C 96 % 2.43 C
1672 03-11-2018 19:15:00 2.9 C 96 % 2.33 C
1673 03-11-2018 19:20:00 2.9 C 96 % 2.33 C
1674 03-11-2018 19:25:00 2.8 C 96 % 2.23 C
1675 03-11-2018 19:30:00 2.7 C 96 % 2.13 C
Sensor: Nr:Datum:Temp:Feuchte:Taupunkt:
Aussen-T/F 1676 03-11-2018 19:35:00 2.7 C 96 % 2.13 C
1677 03-11-2018 19:40:00 2.7 C 96 % 2.13 C
1678 03-11-2018 19:45:00 2.7 C 96 % 2.13 C
1679 03-11-2018 19:50:00 2.8 C 96 % 2.23 C
1680 03-11-2018 19:55:00 2.8 C 96 % 2.23 C
1681 03-11-2018 20:00:00 2.8 C 96 % 2.23 C
1682 03-11-2018 20:05:00 2.8 C 96 % 2.23 C
1683 03-11-2018 20:10:00 2.8 C 97 % 2.37 C
1684 03-11-2018 20:15:00 2.9 C 97 % 2.47 C
1685 03-11-2018 20:20:00 2.9 C 97 % 2.47 C
1686 03-11-2018 20:25:00 2.8 C 97 % 2.37 C
1687 03-11-2018 20:30:00 2.8 C 96 % 2.23 C
1688 03-11-2018 20:35:00 2.8 C 96 % 2.23 C
1689 03-11-2018 20:40:00 2.7 C 96 % 2.13 C
1690 03-11-2018 20:45:00 2.7 C 96 % 2.13 C
1691 03-11-2018 20:50:00 2.7 C 96 % 2.13 C
1692 03-11-2018 20:55:00 2.7 C 96 % 2.13 C
1693 03-11-2018 21:00:00 2.7 C 97 % 2.27 C
1694 03-11-2018 21:05:00 2.7 C 96 % 2.13 C
1695 03-11-2018 21:10:00 2.8 C 97 % 2.37 C
1696 03-11-2018 21:15:00 2.8 C 97 % 2.37 C
1697 03-11-2018 21:20:00 2.8 C 96 % 2.23 C
1698 03-11-2018 21:25:00 2.8 C 96 % 2.23 C
1699 03-11-2018 21:30:00 2.8 C 96 % 2.23 C
1700 03-11-2018 21:35:00 2.8 C 97 % 2.37 C
Sensor: Nr:Datum:Temp:Feuchte:Taupunkt:
Aussen-T/F 1701 03-11-2018 21:40:00 2.8 C 97 % 2.37 C
1702 03-11-2018 21:45:00 2.7 C 96 % 2.13 C
1703 03-11-2018 21:50:00 2.7 C 96 % 2.13 C
1704 03-11-2018 21:55:00 2.7 C 96 % 2.13 C
1705 03-11-2018 22:00:00 2.7 C 97 % 2.27 C
1706 03-11-2018 22:05:00 2.7 C 97 % 2.27 C
1707 03-11-2018 22:10:00 2.7 C 97 % 2.27 C
1708 03-11-2018 22:15:00 2.7 C 97 % 2.27 C
1709 03-11-2018 22:20:00 2.7 C 97 % 2.27 C
1710 03-11-2018 22:25:00 2.7 C 97 % 2.27 C
1711 03-11-2018 22:30:00 2.7 C 97 % 2.27 C
1712 03-11-2018 22:35:00 2.7 C 97 % 2.27 C
1713 03-11-2018 22:40:00 2.6 C 97 % 2.17 C
1714 03-11-2018 22:45:00 2.6 C 97 % 2.17 C
1715 03-11-2018 22:50:00 2.6 C 97 % 2.17 C
1716 03-11-2018 22:55:00 2.6 C 97 % 2.17 C
1717 03-11-2018 23:00:00 2.6 C 97 % 2.17 C
1718 03-11-2018 23:05:00 2.7 C 97 % 2.27 C
1719 03-11-2018 23:10:00 2.7 C 97 % 2.27 C
1720 03-11-2018 23:15:00 2.7 C 97 % 2.27 C
1721 03-11-2018 23:20:00 2.7 C 97 % 2.27 C
1722 03-11-2018 23:25:00 2.7 C 97 % 2.27 C
1723 03-11-2018 23:30:00 2.7 C 97 % 2.27 C
1724 03-11-2018 23:35:00 2.7 C 97 % 2.27 C
1725 03-11-2018 23:40:00 2.6 C 97 % 2.17 C
Sensor: Nr:Datum:Temp:Feuchte:Taupunkt:
Aussen-T/F 1726 03-11-2018 23:45:00 2.6 C 97 % 2.17 C
1727 03-11-2018 23:50:00 2.6 C 97 % 2.17 C
1728 03-11-2018 23:55:00 2.6 C 97 % 2.17 C
1729 04-11-2018 00:00:00 2.6 C 97 % 2.17 C
1730 04-11-2018 00:05:00 2.6 C 97 % 2.17 C
1731 04-11-2018 00:10:00 2.6 C 97 % 2.17 C
1732 04-11-2018 00:15:00 2.6 C 97 % 2.17 C
1733 04-11-2018 00:20:00 2.6 C 97 % 2.17 C
1734 04-11-2018 00:25:00 2.6 C 97 % 2.17 C
1735 04-11-2018 00:30:00 2.6 C 97 % 2.17 C
1736 04-11-2018 00:35:00 2.6 C 97 % 2.17 C
1737 04-11-2018 00:40:00 2.6 C 97 % 2.17 C
1738 04-11-2018 00:45:00 2.6 C 97 % 2.17 C
1739 04-11-2018 00:50:00 2.7 C 97 % 2.27 C
1740 04-11-2018 00:55:00 2.7 C 97 % 2.27 C
1741 04-11-2018 01:00:00 2.7 C 97 % 2.27 C
1742 04-11-2018 01:05:00 2.8 C 97 % 2.37 C
1743 04-11-2018 01:10:00 2.8 C 97 % 2.37 C
1744 04-11-2018 01:15:00 2.8 C 97 % 2.37 C
1745 04-11-2018 01:20:00 2.9 C 97 % 2.47 C
1746 04-11-2018 01:25:00 2.9 C 97 % 2.47 C
1747 04-11-2018 01:30:00 2.9 C 97 % 2.47 C
1748 04-11-2018 01:35:00 2.9 C 97 % 2.47 C
1749 04-11-2018 01:40:00 2.9 C 97 % 2.47 C
1750 04-11-2018 01:45:00 3 C 97 % 2.57 C
Sensor: Nr:Datum:Temp:Feuchte:Taupunkt:
Aussen-T/F 1751 04-11-2018 01:50:00 3 C 97 % 2.57 C
1752 04-11-2018 01:55:00 3.1 C 97 % 2.67 C
1753 04-11-2018 02:00:00 3.1 C 97 % 2.67 C
1754 04-11-2018 02:05:00 3.1 C 97 % 2.67 C
1755 04-11-2018 02:10:00 3.1 C 97 % 2.67 C
1756 04-11-2018 02:15:00 3.2 C 97 % 2.77 C
1757 04-11-2018 02:20:00 3.2 C 97 % 2.77 C
1758 04-11-2018 02:25:00 3.2 C 97 % 2.77 C
1759 04-11-2018 02:30:00 3.2 C 97 % 2.77 C
1760 04-11-2018 02:35:00 3.2 C 97 % 2.77 C
1761 04-11-2018 02:40:00 3.3 C 97 % 2.87 C
1762 04-11-2018 02:45:00 3.3 C 97 % 2.87 C
1763 04-11-2018 02:50:00 3.3 C 97 % 2.87 C
1764 04-11-2018 02:55:00 3.3 C 97 % 2.87 C
1765 04-11-2018 03:00:00 3.3 C 97 % 2.87 C
1766 04-11-2018 03:05:00 3.3 C 97 % 2.87 C
1767 04-11-2018 03:10:00 3.3 C 97 % 2.87 C
1768 04-11-2018 03:15:00 3.4 C 97 % 2.97 C
1769 04-11-2018 03:20:00 3.4 C 97 % 2.97 C
1770 04-11-2018 03:25:00 3.5 C 97 % 3.07 C
1771 04-11-2018 03:30:00 3.5 C 97 % 3.07 C
1772 04-11-2018 03:35:00 3.6 C 97 % 3.17 C
1773 04-11-2018 03:40:00 3.6 C 97 % 3.17 C
1774 04-11-2018 03:45:00 3.6 C 97 % 3.17 C
1775 04-11-2018 03:50:00 3.6 C 97 % 3.17 C
Sensor: Nr:Datum:Temp:Feuchte:Taupunkt:
Aussen-T/F 1776 04-11-2018 03:55:00 3.6 C 97 % 3.17 C
1777 04-11-2018 04:00:00 3.7 C 97 % 3.27 C
1778 04-11-2018 04:05:00 3.7 C 97 % 3.27 C
1779 04-11-2018 04:10:00 3.7 C 97 % 3.27 C
1780 04-11-2018 04:15:00 3.7 C 97 % 3.27 C
1781 04-11-2018 04:20:00 3.7 C 97 % 3.27 C
1782 04-11-2018 04:25:00 3.7 C 97 % 3.27 C
1783 04-11-2018 04:30:00 3.8 C 97 % 3.37 C
1784 04-11-2018 04:35:00 3.8 C 97 % 3.37 C
1785 04-11-2018 04:40:00 3.8 C 97 % 3.37 C
1786 04-11-2018 04:45:00 3.8 C 97 % 3.37 C
1787 04-11-2018 04:50:00 3.9 C 97 % 3.47 C
1788 04-11-2018 04:55:00 3.9 C 97 % 3.47 C
1789 04-11-2018 05:00:00 3.9 C 97 % 3.47 C
1790 04-11-2018 05:05:00 3.9 C 97 % 3.47 C
1791 04-11-2018 05:10:00 3.9 C 97 % 3.47 C
1792 04-11-2018 05:15:00 3.9 C 97 % 3.47 C
1793 04-11-2018 05:20:00 4 C 97 % 3.57 C
1794 04-11-2018 05:25:00 4 C 97 % 3.57 C
1795 04-11-2018 05:30:00 4.1 C 97 % 3.67 C
1796 04-11-2018 05:35:00 4.1 C 97 % 3.67 C
1797 04-11-2018 05:40:00 4.1 C 97 % 3.67 C
1798 04-11-2018 05:45:00 4.1 C 97 % 3.67 C
1799 04-11-2018 05:50:00 4.1 C 97 % 3.67 C
1800 04-11-2018 05:55:00 4.1 C 97 % 3.67 C
Sensor: Nr:Datum:Temp:Feuchte:Taupunkt:
Aussen-T/F 1801 04-11-2018 06:00:00 4.2 C 97 % 3.77 C
1802 04-11-2018 06:05:00 4.2 C 97 % 3.77 C
1803 04-11-2018 06:10:00 4.2 C 97 % 3.77 C
1804 04-11-2018 06:15:00 4.2 C 97 % 3.77 C
1805 04-11-2018 06:20:00 4.2 C 97 % 3.77 C
1806 04-11-2018 06:25:00 4.2 C 97 % 3.77 C
1807 04-11-2018 06:30:00 4.2 C 97 % 3.77 C
1808 04-11-2018 06:35:00 4.2 C 97 % 3.77 C
1809 04-11-2018 06:40:00 4.2 C 97 % 3.77 C
1810 04-11-2018 06:45:00 4.2 C 97 % 3.77 C
1811 04-11-2018 06:50:00 4.2 C 97 % 3.77 C
1812 04-11-2018 06:55:00 4.2 C 97 % 3.77 C
1813 04-11-2018 07:00:00 4.3 C 97 % 3.87 C
1814 04-11-2018 07:05:00 4.3 C 97 % 3.87 C
1815 04-11-2018 07:10:00 4.3 C 97 % 3.87 C
1816 04-11-2018 07:15:00 4.3 C 97 % 3.87 C
1817 04-11-2018 07:20:00 4.3 C 97 % 3.87 C
1818 04-11-2018 07:25:00 4.4 C 97 % 3.97 C
1819 04-11-2018 07:30:00 4.4 C 97 % 3.97 C
1820 04-11-2018 07:35:00 4.4 C 97 % 3.97 C
1821 04-11-2018 07:40:00 4.5 C 97 % 4.07 C
1822 04-11-2018 07:45:00 4.5 C 97 % 4.07 C
1823 04-11-2018 07:50:00 4.6 C 97 % 4.17 C
1824 04-11-2018 07:55:00 4.6 C 97 % 4.17 C
1825 04-11-2018 08:00:00 4.6 C 97 % 4.17 C
Sensor: Nr:Datum:Temp:Feuchte:Taupunkt:
Aussen-T/F 1826 04-11-2018 08:05:00 4.6 C 97 % 4.17 C
1827 04-11-2018 08:10:00 4.7 C 97 % 4.27 C
1828 04-11-2018 08:15:00 4.7 C 97 % 4.27 C
1829 04-11-2018 08:20:00 4.7 C 97 % 4.27 C
1830 04-11-2018 08:25:00 4.7 C 97 % 4.27 C
1831 04-11-2018 08:30:00 4.7 C 97 % 4.27 C
1832 04-11-2018 08:35:00 4.7 C 97 % 4.27 C
1833 04-11-2018 08:40:00 4.8 C 97 % 4.37 C
1834 04-11-2018 08:45:00 4.8 C 97 % 4.37 C
1835 04-11-2018 08:50:00 4.8 C 97 % 4.37 C
1836 04-11-2018 08:55:00 4.8 C 97 % 4.37 C
1837 04-11-2018 09:00:00 4.9 C 97 % 4.46 C
1838 04-11-2018 09:05:00 4.9 C 97 % 4.46 C
1839 04-11-2018 09:10:00 4.9 C 97 % 4.46 C
1840 04-11-2018 09:15:00 5 C 97 % 4.56 C
1841 04-11-2018 09:20:00 5.1 C 97 % 4.66 C
1842 04-11-2018 09:25:00 5.1 C 97 % 4.66 C
1843 04-11-2018 09:30:00 5.1 C 97 % 4.66 C
1844 04-11-2018 09:35:00 5.2 C 97 % 4.76 C
1845 04-11-2018 09:40:00 5.3 C 97 % 4.86 C
1846 04-11-2018 09:45:00 5.3 C 97 % 4.86 C
1847 04-11-2018 09:50:00 5.4 C 97 % 4.96 C
1848 04-11-2018 09:55:00 5.5 C 97 % 5.06 C
1849 04-11-2018 10:00:00 5.6 C 97 % 5.16 C
1850 04-11-2018 10:05:00 5.7 C 97 % 5.26 C
Sensor: Nr:Datum:Temp:Feuchte:Taupunkt:
Aussen-T/F 1851 04-11-2018 10:10:00 5.7 C 97 % 5.26 C
1852 04-11-2018 10:15:00 5.8 C 97 % 5.36 C
1853 04-11-2018 10:20:00 5.8 C 97 % 5.36 C
1854 04-11-2018 10:25:00 5.8 C 97 % 5.36 C
1855 04-11-2018 10:30:00 5.9 C 97 % 5.46 C
1856 04-11-2018 10:35:00 5.9 C 97 % 5.46 C
1857 04-11-2018 10:40:00 5.9 C 97 % 5.46 C
1858 04-11-2018 10:45:00 6.1 C 97 % 5.66 C
1859 04-11-2018 10:50:00 6.1 C 97 % 5.66 C
1860 04-11-2018 10:55:00 6.2 C 97 % 5.76 C
1861 04-11-2018 11:00:00 6.3 C 97 % 5.86 C
1862 04-11-2018 11:05:00 6.4 C 97 % 5.96 C
1863 04-11-2018 11:10:00 6.5 C 97 % 6.06 C
1864 04-11-2018 11:15:00 6.6 C 97 % 6.16 C
1865 04-11-2018 11:20:00 6.6 C 96 % 6.01 C
1866 04-11-2018 11:25:00 6.7 C 96 % 6.11 C
1867 04-11-2018 11:30:00 6.8 C 96 % 6.21 C
1868 04-11-2018 11:35:00 6.8 C 96 % 6.21 C
1869 04-11-2018 11:40:00 6.9 C 96 % 6.31 C
1870 04-11-2018 11:45:00 7 C 96 % 6.41 C
1871 04-11-2018 11:50:00 7.1 C 96 % 6.51 C
1872 04-11-2018 11:55:00 7.2 C 95 % 6.45 C
1873 04-11-2018 12:00:00 7.2 C 95 % 6.45 C
1874 04-11-2018 12:05:00 7.3 C 95 % 6.55 C
1875 04-11-2018 12:10:00 7.3 C 95 % 6.55 C
Sensor: Nr:Datum:Temp:Feuchte:Taupunkt:
Aussen-T/F 1876 04-11-2018 12:15:00 7.4 C 95 % 6.65 C
1877 04-11-2018 12:20:00 7.5 C 95 % 6.75 C
1878 04-11-2018 12:25:00 7.6 C 94 % 6.7 C
1879 04-11-2018 12:30:00 7.6 C 94 % 6.7 C
1880 04-11-2018 12:35:00 7.7 C 94 % 6.8 C
1881 04-11-2018 12:40:00 7.8 C 94 % 6.9 C
1882 04-11-2018 12:45:00 7.8 C 94 % 6.9 C
1883 04-11-2018 12:50:00 7.9 C 93 % 6.84 C
1884 04-11-2018 12:55:00 7.9 C 93 % 6.84 C
1885 04-11-2018 13:00:00 7.9 C 93 % 6.84 C
1886 04-11-2018 13:05:00 8 C 93 % 6.94 C
1887 04-11-2018 13:10:00 8.1 C 93 % 7.04 C
1888 04-11-2018 13:15:00 8.1 C 93 % 7.04 C
1889 04-11-2018 13:20:00 8.2 C 93 % 7.14 C
1890 04-11-2018 13:25:00 8.3 C 93 % 7.24 C
1891 04-11-2018 13:30:00 8.3 C 93 % 7.24 C
1892 04-11-2018 13:35:00 8.4 C 92 % 7.18 C
1893 04-11-2018 13:40:00 8.6 C 92 % 7.38 C
1894 04-11-2018 13:45:00 8.6 C 92 % 7.38 C
1895 04-11-2018 13:50:00 8.7 C 92 % 7.47 C
1896 04-11-2018 13:55:00 8.8 C 91 % 7.41 C
1897 04-11-2018 14:00:00 8.8 C 91 % 7.41 C
1898 04-11-2018 14:05:00 8.9 C 91 % 7.51 C
1899 04-11-2018 14:10:00 9 C 91 % 7.61 C
1900 04-11-2018 14:15:00 9.1 C 91 % 7.71 C
Sensor: Nr:Datum:Temp:Feuchte:Taupunkt:
Aussen-T/F 1901 04-11-2018 14:20:00 9.1 C 91 % 7.71 C
1902 04-11-2018 14:25:00 9.2 C 91 % 7.81 C
1903 04-11-2018 14:30:00 9.2 C 91 % 7.81 C
1904 04-11-2018 14:35:00 9.3 C 91 % 7.91 C
1905 04-11-2018 14:40:00 9.3 C 91 % 7.91 C
1906 04-11-2018 14:45:00 9.4 C 90 % 7.85 C
1907 04-11-2018 14:50:00 9.4 C 90 % 7.85 C
1908 04-11-2018 14:55:00 9.5 C 91 % 8.11 C
1909 04-11-2018 15:00:00 9.6 C 91 % 8.21 C
1910 04-11-2018 15:05:00 9.7 C 91 % 8.3 C
1911 04-11-2018 15:10:00 9.8 C 91 % 8.4 C
1912 04-11-2018 15:15:00 9.8 C 91 % 8.4 C
1913 04-11-2018 15:20:00 9.9 C 91 % 8.5 C
1914 04-11-2018 15:25:00 10 C 91 % 8.6 C
1915 04-11-2018 15:30:00 10.1 C 91 % 8.7 C
1916 04-11-2018 15:35:00 10.1 C 90 % 8.54 C
1917 04-11-2018 15:40:00 10.1 C 90 % 8.54 C
1918 04-11-2018 15:45:00 10.1 C 90 % 8.54 C
1919 04-11-2018 15:50:00 10.1 C 90 % 8.54 C
1920 04-11-2018 15:55:00 10.1 C 90 % 8.54 C
1921 04-11-2018 16:00:00 10.1 C 91 % 8.7 C
1922 04-11-2018 16:05:00 10.1 C 91 % 8.7 C
1923 04-11-2018 16:10:00 10.1 C 91 % 8.7 C
1924 04-11-2018 16:15:00 10.2 C 91 % 8.8 C
1925 04-11-2018 16:20:00 10.2 C 92 % 8.96 C
Sensor: Nr:Datum:Temp:Feuchte:Taupunkt:
Aussen-T/F 1926 04-11-2018 16:25:00 10.2 C 92 % 8.96 C
1927 04-11-2018 16:30:00 10.2 C 92 % 8.96 C
1928 04-11-2018 16:35:00 10.2 C 92 % 8.96 C
1929 04-11-2018 16:40:00 10.2 C 92 % 8.96 C
1930 04-11-2018 16:45:00 10.2 C 92 % 8.96 C
1931 04-11-2018 16:50:00 10.1 C 93 % 9.02 C
1932 04-11-2018 16:55:00 10.1 C 93 % 9.02 C
1933 04-11-2018 17:00:00 10.1 C 93 % 9.02 C
1934 04-11-2018 17:05:00 10 C 93 % 8.92 C
1935 04-11-2018 17:10:00 9.9 C 93 % 8.82 C
1936 04-11-2018 17:15:00 9.9 C 93 % 8.82 C
1937 04-11-2018 17:20:00 9.9 C 93 % 8.82 C
1938 04-11-2018 17:25:00 9.8 C 93 % 8.72 C
1939 04-11-2018 17:30:00 9.8 C 94 % 8.88 C
1940 04-11-2018 17:35:00 9.8 C 94 % 8.88 C
1941 04-11-2018 17:40:00 9.8 C 94 % 8.88 C
1942 04-11-2018 17:45:00 9.8 C 94 % 8.88 C
1943 04-11-2018 17:50:00 9.8 C 94 % 8.88 C
1944 04-11-2018 17:55:00 9.7 C 94 % 8.78 C
1945 04-11-2018 18:00:00 9.7 C 94 % 8.78 C
1946 04-11-2018 18:05:00 9.7 C 94 % 8.78 C
1947 04-11-2018 18:10:00 9.7 C 94 % 8.78 C
1948 04-11-2018 18:15:00 9.7 C 94 % 8.78 C
1949 04-11-2018 18:20:00 9.7 C 94 % 8.78 C
1950 04-11-2018 18:25:00 9.7 C 94 % 8.78 C
Sensor: Nr:Datum:Temp:Feuchte:Taupunkt:
Aussen-T/F 1951 04-11-2018 18:30:00 9.7 C 94 % 8.78 C
1952 04-11-2018 18:35:00 9.7 C 94 % 8.78 C
1953 04-11-2018 18:40:00 9.7 C 94 % 8.78 C
1954 04-11-2018 18:45:00 9.7 C 94 % 8.78 C
1955 04-11-2018 18:50:00 9.7 C 94 % 8.78 C
1956 04-11-2018 18:55:00 9.7 C 94 % 8.78 C
1957 04-11-2018 19:00:00 9.7 C 94 % 8.78 C
1958 04-11-2018 19:05:00 9.7 C 95 % 8.94 C
1959 04-11-2018 19:10:00 9.7 C 95 % 8.94 C
1960 04-11-2018 19:15:00 9.7 C 95 % 8.94 C
1961 04-11-2018 19:20:00 9.7 C 95 % 8.94 C
1962 04-11-2018 19:25:00 9.7 C 95 % 8.94 C
1963 04-11-2018 19:30:00 9.7 C 95 % 8.94 C
1964 04-11-2018 19:35:00 9.7 C 95 % 8.94 C
1965 04-11-2018 19:40:00 9.7 C 95 % 8.94 C
1966 04-11-2018 19:45:00 9.7 C 95 % 8.94 C
1967 04-11-2018 19:50:00 9.7 C 95 % 8.94 C
1968 04-11-2018 19:55:00 9.7 C 95 % 8.94 C
1969 04-11-2018 20:00:00 9.7 C 95 % 8.94 C
1970 04-11-2018 20:05:00 9.7 C 95 % 8.94 C
1971 04-11-2018 20:10:00 9.7 C 95 % 8.94 C
1972 04-11-2018 20:15:00 9.7 C 95 % 8.94 C
1973 04-11-2018 20:20:00 9.7 C 95 % 8.94 C
1974 04-11-2018 20:25:00 9.7 C 95 % 8.94 C
1975 04-11-2018 20:30:00 9.7 C 95 % 8.94 C
Sensor: Nr:Datum:Temp:Feuchte:Taupunkt:
Aussen-T/F 1976 04-11-2018 20:35:00 9.7 C 95 % 8.94 C
1977 04-11-2018 20:40:00 9.7 C 95 % 8.94 C
1978 04-11-2018 20:45:00 9.7 C 95 % 8.94 C
1979 04-11-2018 20:50:00 9.7 C 95 % 8.94 C
1980 04-11-2018 20:55:00 9.8 C 95 % 9.04 C
1981 04-11-2018 21:00:00 9.8 C 95 % 9.04 C
1982 04-11-2018 21:05:00 9.8 C 95 % 9.04 C
1983 04-11-2018 21:10:00 9.8 C 95 % 9.04 C
1984 04-11-2018 21:15:00 9.8 C 95 % 9.04 C
1985 04-11-2018 21:20:00 9.8 C 95 % 9.04 C
1986 04-11-2018 21:25:00 9.8 C 95 % 9.04 C
1987 04-11-2018 21:30:00 9.8 C 95 % 9.04 C
1988 04-11-2018 21:35:00 9.8 C 95 % 9.04 C
1989 04-11-2018 21:40:00 9.8 C 95 % 9.04 C
1990 04-11-2018 21:45:00 9.8 C 95 % 9.04 C
1991 04-11-2018 21:50:00 9.8 C 95 % 9.04 C
1992 04-11-2018 21:55:00 9.8 C 95 % 9.04 C
1993 04-11-2018 22:00:00 9.8 C 95 % 9.04 C
1994 04-11-2018 22:05:00 9.8 C 95 % 9.04 C
1995 04-11-2018 22:10:00 9.8 C 95 % 9.04 C
1996 04-11-2018 22:15:00 9.8 C 95 % 9.04 C
1997 04-11-2018 22:20:00 9.8 C 95 % 9.04 C
1998 04-11-2018 22:25:00 9.8 C 95 % 9.04 C
1999 04-11-2018 22:30:00 9.8 C 95 % 9.04 C
2000 04-11-2018 22:35:00 9.8 C 95 % 9.04 C
Sensor: Nr:Datum:Temp:Feuchte:Taupunkt:
Aussen-T/F 2001 04-11-2018 22:40:00 9.8 C 95 % 9.04 C
2002 04-11-2018 22:45:00 9.8 C 95 % 9.04 C
2003 04-11-2018 22:50:00 9.8 C 95 % 9.04 C
2004 04-11-2018 22:55:00 9.8 C 95 % 9.04 C
2005 04-11-2018 23:00:00 9.8 C 95 % 9.04 C
2006 04-11-2018 23:05:00 9.8 C 95 % 9.04 C
2007 04-11-2018 23:10:00 9.8 C 95 % 9.04 C
2008 04-11-2018 23:15:00 9.8 C 95 % 9.04 C
2009 04-11-2018 23:20:00 9.8 C 95 % 9.04 C
2010 04-11-2018 23:25:00 9.8 C 95 % 9.04 C
2011 04-11-2018 23:30:00 9.8 C 95 % 9.04 C
2012 04-11-2018 23:35:00 9.8 C 95 % 9.04 C
2013 04-11-2018 23:40:00 9.9 C 95 % 9.14 C
2014 04-11-2018 23:45:00 9.8 C 95 % 9.04 C
2015 04-11-2018 23:50:00 9.8 C 95 % 9.04 C
2016 04-11-2018 23:55:00 9.8 C 95 % 9.04 C
2017 05-11-2018 00:00:00 9.8 C 95 % 9.04 C
2018 05-11-2018 00:05:00 9.8 C 95 % 9.04 C
2019 05-11-2018 00:10:00 9.8 C 95 % 9.04 C
2020 05-11-2018 00:15:00 9.8 C 95 % 9.04 C
2021 05-11-2018 00:20:00 9.8 C 95 % 9.04 C
2022 05-11-2018 00:25:00 9.8 C 95 % 9.04 C
2023 05-11-2018 00:30:00 9.8 C 95 % 9.04 C
2024 05-11-2018 00:35:00 9.8 C 95 % 9.04 C
2025 05-11-2018 00:40:00 9.8 C 95 % 9.04 C
Sensor: Nr:Datum:Temp:Feuchte:Taupunkt:
Aussen-T/F 2026 05-11-2018 00:45:00 9.8 C 95 % 9.04 C
2027 05-11-2018 00:50:00 9.8 C 95 % 9.04 C
2028 05-11-2018 00:55:00 9.8 C 95 % 9.04 C
2029 05-11-2018 01:00:00 9.8 C 95 % 9.04 C
2030 05-11-2018 01:05:00 9.8 C 95 % 9.04 C
2031 05-11-2018 01:10:00 9.8 C 95 % 9.04 C
2032 05-11-2018 01:15:00 9.8 C 95 % 9.04 C
2033 05-11-2018 01:20:00 9.8 C 95 % 9.04 C
2034 05-11-2018 01:25:00 9.8 C 95 % 9.04 C
2035 05-11-2018 01:30:00 9.8 C 95 % 9.04 C
2036 05-11-2018 01:35:00 9.8 C 95 % 9.04 C
2037 05-11-2018 01:40:00 9.8 C 95 % 9.04 C
2038 05-11-2018 01:45:00 9.7 C 95 % 8.94 C
2039 05-11-2018 01:50:00 9.7 C 95 % 8.94 C
2040 05-11-2018 01:55:00 9.7 C 95 % 8.94 C
2041 05-11-2018 02:00:00 9.7 C 95 % 8.94 C
2042 05-11-2018 02:05:00 9.7 C 95 % 8.94 C
2043 05-11-2018 02:10:00 9.7 C 95 % 8.94 C
2044 05-11-2018 02:15:00 9.7 C 95 % 8.94 C
2045 05-11-2018 02:20:00 9.7 C 95 % 8.94 C
2046 05-11-2018 02:25:00 9.7 C 95 % 8.94 C
2047 05-11-2018 02:30:00 9.7 C 95 % 8.94 C
2048 05-11-2018 02:35:00 9.7 C 95 % 8.94 C
2049 05-11-2018 02:40:00 9.7 C 95 % 8.94 C
2050 05-11-2018 02:45:00 9.7 C 95 % 8.94 C
Sensor: Nr:Datum:Temp:Feuchte:Taupunkt:
Aussen-T/F 2051 05-11-2018 02:50:00 9.7 C 95 % 8.94 C
2052 05-11-2018 02:55:00 9.7 C 95 % 8.94 C
2053 05-11-2018 03:00:00 9.7 C 95 % 8.94 C
2054 05-11-2018 03:05:00 9.7 C 95 % 8.94 C
2055 05-11-2018 03:10:00 9.7 C 95 % 8.94 C
2056 05-11-2018 03:15:00 9.7 C 95 % 8.94 C
2057 05-11-2018 03:20:00 9.7 C 95 % 8.94 C
2058 05-11-2018 03:25:00 9.7 C 95 % 8.94 C
2059 05-11-2018 03:30:00 9.7 C 95 % 8.94 C
2060 05-11-2018 03:35:00 9.7 C 95 % 8.94 C
2061 05-11-2018 03:40:00 9.7 C 95 % 8.94 C
2062 05-11-2018 03:45:00 9.7 C 95 % 8.94 C
2063 05-11-2018 03:50:00 9.7 C 95 % 8.94 C
2064 05-11-2018 03:55:00 9.7 C 95 % 8.94 C
2065 05-11-2018 04:00:00 9.7 C 95 % 8.94 C
2066 05-11-2018 04:05:00 9.7 C 95 % 8.94 C
2067 05-11-2018 04:10:00 9.7 C 95 % 8.94 C
2068 05-11-2018 04:15:00 9.7 C 95 % 8.94 C
2069 05-11-2018 04:20:00 9.7 C 95 % 8.94 C
2070 05-11-2018 04:25:00 9.7 C 95 % 8.94 C
2071 05-11-2018 04:30:00 9.7 C 95 % 8.94 C
2072 05-11-2018 04:35:00 9.7 C 95 % 8.94 C
2073 05-11-2018 04:40:00 9.7 C 95 % 8.94 C
2074 05-11-2018 04:45:00 9.7 C 95 % 8.94 C
2075 05-11-2018 04:50:00 9.7 C 95 % 8.94 C
Sensor: Nr:Datum:Temp:Feuchte:Taupunkt:
Aussen-T/F 2076 05-11-2018 04:55:00 9.7 C 95 % 8.94 C
2077 05-11-2018 05:00:00 9.7 C 95 % 8.94 C
2078 05-11-2018 05:05:00 9.7 C 95 % 8.94 C
2079 05-11-2018 05:10:00 9.8 C 95 % 9.04 C
2080 05-11-2018 05:15:00 9.8 C 95 % 9.04 C
2081 05-11-2018 05:20:00 9.8 C 95 % 9.04 C
2082 05-11-2018 05:25:00 9.8 C 95 % 9.04 C
2083 05-11-2018 05:30:00 9.8 C 95 % 9.04 C
2084 05-11-2018 05:35:00 9.8 C 95 % 9.04 C
2085 05-11-2018 05:40:00 9.8 C 95 % 9.04 C
2086 05-11-2018 05:45:00 9.8 C 95 % 9.04 C
2087 05-11-2018 05:50:00 9.8 C 95 % 9.04 C
2088 05-11-2018 05:55:00 9.8 C 95 % 9.04 C
2089 05-11-2018 06:00:00 9.8 C 95 % 9.04 C
2090 05-11-2018 06:05:00 9.8 C 95 % 9.04 C
2091 05-11-2018 06:10:00 9.8 C 95 % 9.04 C
2092 05-11-2018 06:15:00 9.9 C 95 % 9.14 C
2093 05-11-2018 06:20:00 9.8 C 95 % 9.04 C
2094 05-11-2018 06:25:00 9.9 C 95 % 9.14 C
2095 05-11-2018 06:30:00 9.9 C 95 % 9.14 C
2096 05-11-2018 06:35:00 9.9 C 95 % 9.14 C
2097 05-11-2018 06:40:00 9.9 C 95 % 9.14 C
2098 05-11-2018 06:45:00 9.9 C 95 % 9.14 C
2099 05-11-2018 06:50:00 9.9 C 95 % 9.14 C
2100 05-11-2018 06:55:00 9.9 C 95 % 9.14 C
Sensor: Nr:Datum:Temp:Feuchte:Taupunkt:
Aussen-T/F 2101 05-11-2018 07:00:00 9.9 C 95 % 9.14 C
2102 05-11-2018 07:05:00 9.9 C 95 % 9.14 C
2103 05-11-2018 07:10:00 9.9 C 95 % 9.14 C
2104 05-11-2018 07:15:00 9.9 C 95 % 9.14 C
2105 05-11-2018 07:20:00 9.9 C 95 % 9.14 C
2106 05-11-2018 07:25:00 9.9 C 95 % 9.14 C
2107 05-11-2018 07:30:00 9.9 C 95 % 9.14 C
2108 05-11-2018 07:35:00 9.9 C 95 % 9.14 C
2109 05-11-2018 07:40:00 9.9 C 95 % 9.14 C
2110 05-11-2018 07:45:00 10 C 95 % 9.24 C
2111 05-11-2018 07:50:00 10 C 95 % 9.24 C
2112 05-11-2018 07:55:00 10 C 95 % 9.24 C
2113 05-11-2018 08:00:00 10 C 95 % 9.24 C
2114 05-11-2018 08:05:00 10.1 C 95 % 9.34 C
2115 05-11-2018 08:10:00 10.1 C 95 % 9.34 C
2116 05-11-2018 08:15:00 10.1 C 95 % 9.34 C
2117 05-11-2018 08:20:00 10.1 C 95 % 9.34 C
2118 05-11-2018 08:25:00 10.1 C 95 % 9.34 C
2119 05-11-2018 08:30:00 10.2 C 95 % 9.44 C
2120 05-11-2018 08:35:00 10.2 C 95 % 9.44 C
2121 05-11-2018 08:40:00 10.2 C 95 % 9.44 C
2122 05-11-2018 08:45:00 10.3 C 95 % 9.54 C
2123 05-11-2018 08:50:00 10.3 C 95 % 9.54 C
2124 05-11-2018 08:55:00 10.4 C 95 % 9.63 C
2125 05-11-2018 09:00:00 10.4 C 95 % 9.63 C
Sensor: Nr:Datum:Temp:Feuchte:Taupunkt:
Aussen-T/F 2126 05-11-2018 09:05:00 10.5 C 95 % 9.73 C
2127 05-11-2018 09:10:00 10.6 C 95 % 9.83 C
2128 05-11-2018 09:15:00 10.6 C 95 % 9.83 C
2129 05-11-2018 09:20:00 10.6 C 95 % 9.83 C
2130 05-11-2018 09:25:00 10.7 C 95 % 9.93 C
2131 05-11-2018 09:30:00 10.7 C 95 % 9.93 C
2132 05-11-2018 09:35:00 10.7 C 95 % 9.93 C
2133 05-11-2018 09:40:00 10.8 C 95 % 10.03 C
2134 05-11-2018 09:45:00 10.8 C 95 % 10.03 C
2135 05-11-2018 09:50:00 10.8 C 95 % 10.03 C
2136 05-11-2018 09:55:00 10.8 C 95 % 10.03 C
2137 05-11-2018 10:00:00 10.9 C 95 % 10.13 C
2138 05-11-2018 10:05:00 10.9 C 95 % 10.13 C
2139 05-11-2018 10:10:00 11 C 95 % 10.23 C
2140 05-11-2018 10:15:00 10.9 C 94 % 9.97 C
2141 05-11-2018 10:20:00 10.9 C 94 % 9.97 C
2142 05-11-2018 10:25:00 11.1 C 94 % 10.17 C
2143 05-11-2018 10:30:00 11.1 C 94 % 10.17 C
2144 05-11-2018 10:35:00 11.2 C 93 % 10.11 C
2145 05-11-2018 10:40:00 11.2 C 93 % 10.11 C
2146 05-11-2018 10:45:00 11.3 C 93 % 10.21 C
2147 05-11-2018 10:50:00 11.4 C 93 % 10.31 C
2148 05-11-2018 10:55:00 11.4 C 92 % 10.15 C
2149 05-11-2018 11:00:00 11.6 C 92 % 10.35 C
2150 05-11-2018 11:05:00 11.6 C 92 % 10.35 C
Sensor: Nr:Datum:Temp:Feuchte:Taupunkt:
Aussen-T/F 2151 05-11-2018 11:10:00 11.7 C 92 % 10.44 C
2152 05-11-2018 11:15:00 11.8 C 91 % 10.38 C
2153 05-11-2018 11:20:00 11.9 C 91 % 10.48 C
2154 05-11-2018 11:25:00 11.9 C 90 % 10.31 C
2155 05-11-2018 11:30:00 12.1 C 89 % 10.34 C
2156 05-11-2018 11:35:00 12.2 C 89 % 10.44 C
2157 05-11-2018 11:40:00 12.2 C 89 % 10.44 C
2158 05-11-2018 11:45:00 12.3 C 88 % 10.37 C
2159 05-11-2018 11:50:00 12.4 C 88 % 10.47 C
2160 05-11-2018 11:55:00 12.4 C 87 % 10.3 C
2161 05-11-2018 12:00:00 12.6 C 87 % 10.5 C
2162 05-11-2018 12:05:00 12.7 C 88 % 10.77 C
2163 05-11-2018 12:10:00 12.8 C 86 % 10.52 C
2164 05-11-2018 12:15:00 12.9 C 87 % 10.79 C
2165 05-11-2018 12:20:00 12.9 C 85 % 10.44 C
2166 05-11-2018 12:25:00 12.9 C 85 % 10.44 C
2167 05-11-2018 12:30:00 12.9 C 85 % 10.44 C
2168 05-11-2018 12:35:00 12.9 C 85 % 10.44 C
2169 05-11-2018 12:40:00 12.8 C 85 % 10.34 C
2170 05-11-2018 12:45:00 12.8 C 86 % 10.52 C
2171 05-11-2018 12:50:00 12.9 C 86 % 10.62 C
2172 05-11-2018 12:55:00 12.9 C 86 % 10.62 C
2173 05-11-2018 13:00:00 12.9 C 85 % 10.44 C
2174 05-11-2018 13:05:00 13 C 85 % 10.54 C
2175 05-11-2018 13:10:00 13.1 C 85 % 10.64 C
Sensor: Nr:Datum:Temp:Feuchte:Taupunkt:
Aussen-T/F 2176 05-11-2018 13:15:00 13.2 C 84 % 10.56 C
2177 05-11-2018 13:20:00 13.2 C 83 % 10.38 C
2178 05-11-2018 13:25:00 13.2 C 83 % 10.38 C
2179 05-11-2018 13:30:00 13.3 C 83 % 10.48 C
2180 05-11-2018 13:35:00 13.3 C 83 % 10.48 C
2181 05-11-2018 13:40:00 13.4 C 83 % 10.57 C
2182 05-11-2018 13:45:00 13.4 C 82 % 10.39 C
2183 05-11-2018 13:50:00 13.4 C 82 % 10.39 C
2184 05-11-2018 13:55:00 13.4 C 82 % 10.39 C
2185 05-11-2018 14:00:00 13.4 C 82 % 10.39 C
2186 05-11-2018 14:05:00 13.4 C 82 % 10.39 C
2187 05-11-2018 14:10:00 13.4 C 82 % 10.39 C
2188 05-11-2018 14:15:00 13.4 C 83 % 10.57 C
2189 05-11-2018 14:20:00 13.5 C 82 % 10.49 C
2190 05-11-2018 14:25:00 13.5 C 82 % 10.49 C
2191 05-11-2018 14:30:00 13.6 C 82 % 10.59 C
2192 05-11-2018 14:35:00 13.6 C 83 % 10.77 C
2193 05-11-2018 14:40:00 13.7 C 82 % 10.69 C
2194 05-11-2018 14:45:00 13.6 C 82 % 10.59 C
2195 05-11-2018 14:50:00 13.6 C 82 % 10.59 C
2196 05-11-2018 14:55:00 13.6 C 81 % 10.4 C
2197 05-11-2018 15:00:00 13.6 C 82 % 10.59 C
2198 05-11-2018 15:05:00 13.6 C 82 % 10.59 C
2199 05-11-2018 15:10:00 13.6 C 82 % 10.59 C
2200 05-11-2018 15:15:00 13.6 C 82 % 10.59 C
Sensor: Nr:Datum:Temp:Feuchte:Taupunkt:
Aussen-T/F 2201 05-11-2018 15:20:00 13.6 C 82 % 10.59 C
2202 05-11-2018 15:25:00 13.7 C 81 % 10.5 C
2203 05-11-2018 15:30:00 13.7 C 81 % 10.5 C
2204 05-11-2018 15:35:00 13.7 C 81 % 10.5 C
2205 05-11-2018 15:40:00 13.7 C 83 % 10.87 C
2206 05-11-2018 15:45:00 13.6 C 83 % 10.77 C
2207 05-11-2018 15:50:00 13.5 C 83 % 10.67 C
2208 05-11-2018 15:55:00 13.3 C 83 % 10.48 C
2209 05-11-2018 16:00:00 13.2 C 84 % 10.56 C
2210 05-11-2018 16:05:00 13.1 C 84 % 10.46 C
2211 05-11-2018 16:10:00 12.9 C 85 % 10.44 C
2212 05-11-2018 16:15:00 12.7 C 85 % 10.25 C
2213 05-11-2018 16:20:00 12.5 C 86 % 10.22 C
2214 05-11-2018 16:25:00 12.3 C 86 % 10.03 C
2215 05-11-2018 16:30:00 12.1 C 87 % 10 C
2216 05-11-2018 16:35:00 11.9 C 87 % 9.81 C
2217 05-11-2018 16:40:00 11.7 C 88 % 9.78 C
2218 05-11-2018 16:45:00 11.6 C 88 % 9.68 C
2219 05-11-2018 16:50:00 11.4 C 88 % 9.49 C
2220 05-11-2018 16:55:00 11.2 C 89 % 9.46 C
2221 05-11-2018 17:00:00 11.1 C 89 % 9.36 C
2222 05-11-2018 17:05:00 10.9 C 90 % 9.33 C
2223 05-11-2018 17:10:00 10.8 C 90 % 9.23 C
2224 05-11-2018 17:15:00 10.7 C 90 % 9.13 C
2225 05-11-2018 17:20:00 10.6 C 91 % 9.19 C
Sensor: Nr:Datum:Temp:Feuchte:Taupunkt:
Aussen-T/F 2226 05-11-2018 17:25:00 10.5 C 91 % 9.09 C
2227 05-11-2018 17:30:00 10.4 C 91 % 9 C
2228 05-11-2018 17:35:00 10.4 C 91 % 9 C
2229 05-11-2018 17:40:00 10.3 C 91 % 8.9 C
2230 05-11-2018 17:45:00 10.3 C 92 % 9.06 C
2231 05-11-2018 17:50:00 10.3 C 92 % 9.06 C
2232 05-11-2018 17:55:00 10.2 C 92 % 8.96 C
2233 05-11-2018 18:00:00 10.2 C 92 % 8.96 C
2234 05-11-2018 18:05:00 10.2 C 92 % 8.96 C
2235 05-11-2018 18:10:00 10.1 C 92 % 8.86 C
2236 05-11-2018 18:15:00 9.9 C 92 % 8.66 C
2237 05-11-2018 18:20:00 9.9 C 92 % 8.66 C
2238 05-11-2018 18:25:00 9.8 C 93 % 8.72 C
2239 05-11-2018 18:30:00 9.8 C 92 % 8.56 C
2240 05-11-2018 18:35:00 9.7 C 93 % 8.62 C
2241 05-11-2018 18:40:00 9.7 C 93 % 8.62 C
2242 05-11-2018 18:45:00 9.7 C 93 % 8.62 C
2243 05-11-2018 18:50:00 9.7 C 94 % 8.78 C
2244 05-11-2018 18:55:00 9.7 C 94 % 8.78 C
2245 05-11-2018 19:00:00 9.7 C 94 % 8.78 C
2246 05-11-2018 19:05:00 9.7 C 94 % 8.78 C
2247 05-11-2018 19:10:00 9.7 C 94 % 8.78 C
2248 05-11-2018 19:15:00 9.7 C 94 % 8.78 C
2249 05-11-2018 19:20:00 9.6 C 94 % 8.68 C
2250 05-11-2018 19:25:00 9.6 C 94 % 8.68 C
Sensor: Nr:Datum:Temp:Feuchte:Taupunkt:
Aussen-T/F 2251 05-11-2018 19:30:00 9.6 C 94 % 8.68 C
2252 05-11-2018 19:35:00 9.6 C 94 % 8.68 C
2253 05-11-2018 19:40:00 9.6 C 94 % 8.68 C
2254 05-11-2018 19:45:00 9.5 C 94 % 8.58 C
2255 05-11-2018 19:50:00 9.5 C 94 % 8.58 C
2256 05-11-2018 19:55:00 9.4 C 94 % 8.48 C
2257 05-11-2018 20:00:00 9.3 C 94 % 8.39 C
2258 05-11-2018 20:05:00 9.3 C 94 % 8.39 C
2259 05-11-2018 20:10:00 9.2 C 94 % 8.29 C
2260 05-11-2018 20:15:00 9.1 C 94 % 8.19 C
2261 05-11-2018 20:20:00 8.9 C 94 % 7.99 C
2262 05-11-2018 20:25:00 8.8 C 94 % 7.89 C
2263 05-11-2018 20:30:00 8.7 C 94 % 7.79 C
2264 05-11-2018 20:35:00 8.7 C 94 % 7.79 C
2265 05-11-2018 20:40:00 8.9 C 95 % 8.14 C
2266 05-11-2018 20:45:00 8.8 C 95 % 8.04 C
2267 05-11-2018 20:50:00 8.8 C 95 % 8.04 C
2268 05-11-2018 20:55:00 8.7 C 95 % 7.94 C
2269 05-11-2018 21:00:00 8.6 C 95 % 7.85 C
2270 05-11-2018 21:05:00 8.4 C 94 % 7.49 C
2271 05-11-2018 21:10:00 8.2 C 94 % 7.29 C
2272 05-11-2018 21:15:00 8 C 94 % 7.09 C
2273 05-11-2018 21:20:00 7.9 C 94 % 7 C
2274 05-11-2018 21:25:00 7.8 C 94 % 6.9 C
2275 05-11-2018 21:30:00 7.7 C 94 % 6.8 C
Sensor: Nr:Datum:Temp:Feuchte:Taupunkt:
Aussen-T/F 2276 05-11-2018 21:35:00 7.8 C 95 % 7.05 C
2277 05-11-2018 21:40:00 7.8 C 95 % 7.05 C
2278 05-11-2018 21:45:00 7.9 C 95 % 7.15 C
2279 05-11-2018 21:50:00 8.1 C 96 % 7.5 C
2280 05-11-2018 21:55:00 8.1 C 95 % 7.35 C
2281 05-11-2018 22:00:00 8 C 95 % 7.25 C
2282 05-11-2018 22:05:00 8 C 95 % 7.25 C
2283 05-11-2018 22:10:00 8 C 95 % 7.25 C
2284 05-11-2018 22:15:00 8 C 96 % 7.4 C
2285 05-11-2018 22:20:00 8.1 C 96 % 7.5 C
2286 05-11-2018 22:25:00 8.1 C 96 % 7.5 C
2287 05-11-2018 22:30:00 8.1 C 96 % 7.5 C
2288 05-11-2018 22:35:00 8.1 C 96 % 7.5 C
2289 05-11-2018 22:40:00 8.1 C 96 % 7.5 C
2290 05-11-2018 22:45:00 7.8 C 95 % 7.05 C
2291 05-11-2018 22:50:00 7.7 C 95 % 6.95 C
2292 05-11-2018 22:55:00 7.6 C 95 % 6.85 C
2293 05-11-2018 23:00:00 7.4 C 95 % 6.65 C
2294 05-11-2018 23:05:00 7.3 C 95 % 6.55 C
2295 05-11-2018 23:10:00 7 C 95 % 6.26 C
2296 05-11-2018 23:15:00 6.9 C 95 % 6.16 C
2297 05-11-2018 23:20:00 6.9 C 95 % 6.16 C
2298 05-11-2018 23:25:00 6.8 C 95 % 6.06 C
2299 05-11-2018 23:30:00 6.7 C 95 % 5.96 C
2300 05-11-2018 23:35:00 6.8 C 96 % 6.21 C
Sensor: Nr:Datum:Temp:Feuchte:Taupunkt:
Aussen-T/F 2301 05-11-2018 23:40:00 6.7 C 95 % 5.96 C
2302 05-11-2018 23:45:00 6.5 C 95 % 5.76 C
2303 05-11-2018 23:50:00 6.5 C 95 % 5.76 C
2304 05-11-2018 23:55:00 6.5 C 96 % 5.91 C
2305 06-11-2018 00:00:00 6.4 C 96 % 5.81 C
2306 06-11-2018 00:05:00 6.4 C 96 % 5.81 C
2307 06-11-2018 00:10:00 6.3 C 95 % 5.56 C
2308 06-11-2018 00:15:00 6.3 C 96 % 5.71 C
2309 06-11-2018 00:20:00 6.4 C 96 % 5.81 C
2310 06-11-2018 00:25:00 6.7 C 96 % 6.11 C
2311 06-11-2018 00:30:00 6.8 C 96 % 6.21 C
2312 06-11-2018 00:35:00 6.7 C 96 % 6.11 C
2313 06-11-2018 00:40:00 6.7 C 96 % 6.11 C
2314 06-11-2018 00:45:00 6.6 C 96 % 6.01 C
2315 06-11-2018 00:50:00 6.5 C 96 % 5.91 C
2316 06-11-2018 00:55:00 6.4 C 96 % 5.81 C
2317 06-11-2018 01:00:00 6.4 C 96 % 5.81 C
2318 06-11-2018 01:05:00 6.6 C 96 % 6.01 C
2319 06-11-2018 01:10:00 6.6 C 97 % 6.16 C
2320 06-11-2018 01:15:00 6.7 C 97 % 6.26 C
2321 06-11-2018 01:20:00 6.7 C 97 % 6.26 C
2322 06-11-2018 01:25:00 6.6 C 97 % 6.16 C
2323 06-11-2018 01:30:00 6.6 C 96 % 6.01 C
2324 06-11-2018 01:35:00 6.6 C 96 % 6.01 C
2325 06-11-2018 01:40:00 6.6 C 96 % 6.01 C
Sensor: Nr:Datum:Temp:Feuchte:Taupunkt:
Aussen-T/F 2326 06-11-2018 01:45:00 6.6 C 96 % 6.01 C
2327 06-11-2018 01:50:00 6.6 C 96 % 6.01 C
2328 06-11-2018 01:55:00 6.6 C 96 % 6.01 C
2329 06-11-2018 02:00:00 6.5 C 96 % 5.91 C
2330 06-11-2018 02:05:00 6.5 C 96 % 5.91 C
2331 06-11-2018 02:10:00 6.4 C 96 % 5.81 C
2332 06-11-2018 02:15:00 6.4 C 96 % 5.81 C
2333 06-11-2018 02:20:00 6.4 C 97 % 5.96 C
2334 06-11-2018 02:25:00 6.4 C 97 % 5.96 C
2335 06-11-2018 02:30:00 6.4 C 97 % 5.96 C
2336 06-11-2018 02:35:00 6.4 C 97 % 5.96 C
2337 06-11-2018 02:40:00 6.4 C 97 % 5.96 C
2338 06-11-2018 02:45:00 6.4 C 97 % 5.96 C
2339 06-11-2018 02:50:00 6.4 C 97 % 5.96 C
2340 06-11-2018 02:55:00 6.4 C 97 % 5.96 C
2341 06-11-2018 03:00:00 6.4 C 97 % 5.96 C
2342 06-11-2018 03:05:00 6.4 C 97 % 5.96 C
2343 06-11-2018 03:10:00 6.4 C 97 % 5.96 C
2344 06-11-2018 03:15:00 6.3 C 97 % 5.86 C
2345 06-11-2018 03:20:00 6.3 C 96 % 5.71 C
2346 06-11-2018 03:25:00 6.2 C 96 % 5.61 C
2347 06-11-2018 03:30:00 6.2 C 96 % 5.61 C
2348 06-11-2018 03:35:00 6.2 C 96 % 5.61 C
2349 06-11-2018 03:40:00 6.2 C 97 % 5.76 C
2350 06-11-2018 03:45:00 6.1 C 97 % 5.66 C
Sensor: Nr:Datum:Temp:Feuchte:Taupunkt:
Aussen-T/F 2351 06-11-2018 03:50:00 6 C 97 % 5.56 C
2352 06-11-2018 03:55:00 5.9 C 96 % 5.31 C
2353 06-11-2018 04:00:00 5.8 C 96 % 5.21 C
2354 06-11-2018 04:05:00 5.8 C 96 % 5.21 C
2355 06-11-2018 04:10:00 5.8 C 97 % 5.36 C
2356 06-11-2018 04:15:00 5.8 C 97 % 5.36 C
2357 06-11-2018 04:20:00 5.7 C 97 % 5.26 C
2358 06-11-2018 04:25:00 5.7 C 96 % 5.11 C
2359 06-11-2018 04:30:00 5.7 C 96 % 5.11 C
2360 06-11-2018 04:35:00 5.7 C 97 % 5.26 C
2361 06-11-2018 04:40:00 5.7 C 97 % 5.26 C
2362 06-11-2018 04:45:00 5.7 C 97 % 5.26 C
2363 06-11-2018 04:50:00 5.7 C 97 % 5.26 C
2364 06-11-2018 04:55:00 5.7 C 97 % 5.26 C
2365 06-11-2018 05:00:00 5.7 C 97 % 5.26 C
2366 06-11-2018 05:05:00 5.7 C 97 % 5.26 C
2367 06-11-2018 05:10:00 5.7 C 97 % 5.26 C
2368 06-11-2018 05:15:00 5.7 C 97 % 5.26 C
2369 06-11-2018 05:20:00 5.7 C 97 % 5.26 C
2370 06-11-2018 05:25:00 5.6 C 97 % 5.16 C
2371 06-11-2018 05:30:00 5.7 C 97 % 5.26 C
2372 06-11-2018 05:35:00 5.7 C 97 % 5.26 C
2373 06-11-2018 05:40:00 5.7 C 97 % 5.26 C
2374 06-11-2018 05:45:00 5.7 C 97 % 5.26 C
2375 06-11-2018 05:50:00 5.7 C 97 % 5.26 C
Sensor: Nr:Datum:Temp:Feuchte:Taupunkt:
Aussen-T/F 2376 06-11-2018 05:55:00 5.7 C 97 % 5.26 C
2377 06-11-2018 06:00:00 5.7 C 97 % 5.26 C
2378 06-11-2018 06:05:00 5.7 C 97 % 5.26 C
2379 06-11-2018 06:10:00 5.8 C 97 % 5.36 C
2380 06-11-2018 06:15:00 5.8 C 97 % 5.36 C
2381 06-11-2018 06:20:00 5.8 C 97 % 5.36 C
2382 06-11-2018 06:25:00 5.8 C 97 % 5.36 C
2383 06-11-2018 06:30:00 5.9 C 97 % 5.46 C
2384 06-11-2018 06:35:00 5.9 C 97 % 5.46 C
2385 06-11-2018 06:40:00 6 C 97 % 5.56 C
2386 06-11-2018 06:45:00 6.1 C 97 % 5.66 C
2387 06-11-2018 06:50:00 6.2 C 97 % 5.76 C
2388 06-11-2018 06:55:00 6.2 C 97 % 5.76 C
2389 06-11-2018 07:00:00 6.2 C 97 % 5.76 C
2390 06-11-2018 07:05:00 6.2 C 97 % 5.76 C
2391 06-11-2018 07:10:00 6.2 C 97 % 5.76 C
2392 06-11-2018 07:15:00 6.2 C 97 % 5.76 C
2393 06-11-2018 07:20:00 6.1 C 97 % 5.66 C
2394 06-11-2018 07:25:00 6.1 C 97 % 5.66 C
2395 06-11-2018 07:30:00 6.2 C 97 % 5.76 C
2396 06-11-2018 07:35:00 6.2 C 97 % 5.76 C
2397 06-11-2018 07:40:00 6.1 C 97 % 5.66 C
2398 06-11-2018 07:45:00 6.1 C 97 % 5.66 C
2399 06-11-2018 07:50:00 6.1 C 97 % 5.66 C
2400 06-11-2018 07:55:00 6.1 C 97 % 5.66 C
Sensor: Nr:Datum:Temp:Feuchte:Taupunkt:
Aussen-T/F 2401 06-11-2018 08:00:00 5.9 C 97 % 5.46 C
2402 06-11-2018 08:05:00 5.9 C 97 % 5.46 C
2403 06-11-2018 08:10:00 5.8 C 97 % 5.36 C
2404 06-11-2018 08:15:00 5.9 C 97 % 5.46 C
2405 06-11-2018 08:20:00 5.9 C 97 % 5.46 C
2406 06-11-2018 08:25:00 5.9 C 97 % 5.46 C
2407 06-11-2018 08:30:00 5.9 C 97 % 5.46 C
2408 06-11-2018 08:35:00 6.1 C 97 % 5.66 C
2409 06-11-2018 08:40:00 6.1 C 97 % 5.66 C
2410 06-11-2018 08:45:00 6.1 C 97 % 5.66 C
2411 06-11-2018 08:50:00 6.2 C 97 % 5.76 C
2412 06-11-2018 08:55:00 6.2 C 97 % 5.76 C
2413 06-11-2018 09:00:00 6.3 C 97 % 5.86 C
2414 06-11-2018 09:05:00 6.4 C 97 % 5.96 C
2415 06-11-2018 09:10:00 6.5 C 97 % 6.06 C
2416 06-11-2018 09:15:00 6.6 C 97 % 6.16 C
2417 06-11-2018 09:20:00 6.6 C 97 % 6.16 C
2418 06-11-2018 09:25:00 6.7 C 97 % 6.26 C
2419 06-11-2018 09:30:00 6.8 C 97 % 6.36 C
2420 06-11-2018 09:35:00 7 C 98 % 6.71 C
2421 06-11-2018 09:40:00 7.1 C 97 % 6.66 C
2422 06-11-2018 09:45:00 7.1 C 97 % 6.66 C
2423 06-11-2018 09:50:00 7.2 C 97 % 6.76 C
2424 06-11-2018 09:55:00 7.3 C 98 % 7.01 C
2425 06-11-2018 10:00:00 7.3 C 98 % 7.01 C
Sensor: Nr:Datum:Temp:Feuchte:Taupunkt:
Aussen-T/F 2426 06-11-2018 10:05:00 7.4 C 97 % 6.96 C
2427 06-11-2018 10:10:00 7.4 C 97 % 6.96 C
2428 06-11-2018 10:15:00 7.5 C 97 % 7.06 C
2429 06-11-2018 10:20:00 7.6 C 98 % 7.3 C
2430 06-11-2018 10:25:00 7.7 C 98 % 7.4 C
2431 06-11-2018 10:30:00 7.8 C 97 % 7.35 C
2432 06-11-2018 10:35:00 7.9 C 98 % 7.6 C
2433 06-11-2018 10:40:00 8.1 C 98 % 7.8 C
2434 06-11-2018 10:45:00 8.2 C 98 % 7.9 C
2435 06-11-2018 10:50:00 8.3 C 98 % 8 C
2436 06-11-2018 10:55:00 8.4 C 98 % 8.1 C
2437 06-11-2018 11:00:00 8.4 C 98 % 8.1 C
2438 06-11-2018 11:05:00 8.6 C 98 % 8.3 C
2439 06-11-2018 11:10:00 8.6 C 98 % 8.3 C
2440 06-11-2018 11:15:00 8.7 C 98 % 8.4 C
2441 06-11-2018 11:20:00 8.8 C 98 % 8.5 C
2442 06-11-2018 11:25:00 8.9 C 98 % 8.6 C
2443 06-11-2018 11:30:00 9.1 C 98 % 8.8 C
2444 06-11-2018 11:35:00 9.1 C 98 % 8.8 C
2445 06-11-2018 11:40:00 9.2 C 98 % 8.9 C
2446 06-11-2018 11:45:00 9.3 C 98 % 9 C
2447 06-11-2018 11:50:00 9.4 C 98 % 9.1 C
2448 06-11-2018 11:55:00 9.6 C 98 % 9.3 C
2449 06-11-2018 12:00:00 9.7 C 98 % 9.4 C
2450 06-11-2018 12:05:00 9.8 C 98 % 9.5 C
Sensor: Nr:Datum:Temp:Feuchte:Taupunkt:
Aussen-T/F 2451 06-11-2018 12:10:00 9.9 C 98 % 9.6 C
2452 06-11-2018 12:15:00 10 C 98 % 9.7 C
2453 06-11-2018 12:20:00 10.1 C 97 % 9.65 C
2454 06-11-2018 12:25:00 10.2 C 97 % 9.75 C
2455 06-11-2018 12:30:00 10.4 C 97 % 9.94 C
2456 06-11-2018 12:35:00 10.6 C 97 % 10.14 C
2457 06-11-2018 12:40:00 10.7 C 97 % 10.24 C
2458 06-11-2018 12:45:00 10.8 C 97 % 10.34 C
2459 06-11-2018 12:50:00 10.9 C 97 % 10.44 C
2460 06-11-2018 12:55:00 11 C 97 % 10.54 C
2461 06-11-2018 13:00:00 11.1 C 96 % 10.49 C
2462 06-11-2018 13:05:00 11.1 C 96 % 10.49 C
2463 06-11-2018 13:10:00 11.2 C 96 % 10.59 C
2464 06-11-2018 13:15:00 11.2 C 96 % 10.59 C
2465 06-11-2018 13:20:00 11.3 C 96 % 10.69 C
2466 06-11-2018 13:25:00 11.4 C 96 % 10.79 C
2467 06-11-2018 13:30:00 11.5 C 96 % 10.88 C
2468 06-11-2018 13:35:00 11.6 C 96 % 10.98 C
2469 06-11-2018 13:40:00 11.7 C 96 % 11.08 C
2470 06-11-2018 13:45:00 11.8 C 96 % 11.18 C
2471 06-11-2018 13:50:00 11.8 C 95 % 11.03 C
2472 06-11-2018 13:55:00 11.9 C 96 % 11.28 C
2473 06-11-2018 14:00:00 12 C 96 % 11.38 C
2474 06-11-2018 14:05:00 12.1 C 95 % 11.32 C
2475 06-11-2018 14:10:00 12.2 C 95 % 11.42 C
Sensor: Nr:Datum:Temp:Feuchte:Taupunkt:
Aussen-T/F 2476 06-11-2018 14:15:00 12.2 C 95 % 11.42 C
2477 06-11-2018 14:20:00 12.3 C 95 % 11.52 C
2478 06-11-2018 14:25:00 12.3 C 95 % 11.52 C
2479 06-11-2018 14:30:00 12.4 C 95 % 11.62 C
2480 06-11-2018 14:35:00 12.4 C 94 % 11.46 C
2481 06-11-2018 14:40:00 12.5 C 94 % 11.56 C
2482 06-11-2018 14:45:00 12.6 C 93 % 11.5 C
2483 06-11-2018 14:50:00 12.6 C 94 % 11.66 C
2484 06-11-2018 14:55:00 12.7 C 93 % 11.6 C
2485 06-11-2018 15:00:00 12.7 C 93 % 11.6 C
2486 06-11-2018 15:05:00 12.7 C 93 % 11.6 C
2487 06-11-2018 15:10:00 12.8 C 93 % 11.7 C
2488 06-11-2018 15:15:00 12.8 C 92 % 11.53 C
2489 06-11-2018 15:20:00 12.8 C 92 % 11.53 C
2490 06-11-2018 15:25:00 12.8 C 92 % 11.53 C
2491 06-11-2018 15:30:00 12.8 C 92 % 11.53 C
2492 06-11-2018 15:35:00 12.8 C 92 % 11.53 C
2493 06-11-2018 15:40:00 12.9 C 92 % 11.63 C
2494 06-11-2018 15:45:00 12.8 C 91 % 11.37 C
2495 06-11-2018 15:50:00 12.8 C 91 % 11.37 C
2496 06-11-2018 15:55:00 12.8 C 91 % 11.37 C
2497 06-11-2018 16:00:00 12.8 C 91 % 11.37 C
2498 06-11-2018 16:05:00 12.7 C 90 % 11.1 C
2499 06-11-2018 16:10:00 12.6 C 91 % 11.17 C
2500 06-11-2018 16:15:00 12.6 C 91 % 11.17 C
Sensor: Nr:Datum:Temp:Feuchte:Taupunkt:
Aussen-T/F 2501 06-11-2018 16:20:00 12.4 C 90 % 10.81 C
2502 06-11-2018 16:25:00 12.3 C 91 % 10.87 C
2503 06-11-2018 16:30:00 12.2 C 91 % 10.78 C
2504 06-11-2018 16:35:00 12.1 C 91 % 10.68 C
2505 06-11-2018 16:40:00 12 C 91 % 10.58 C
2506 06-11-2018 16:45:00 11.9 C 91 % 10.48 C
2507 06-11-2018 16:50:00 11.8 C 91 % 10.38 C
2508 06-11-2018 16:55:00 11.7 C 91 % 10.28 C
2509 06-11-2018 17:00:00 11.7 C 92 % 10.44 C
2510 06-11-2018 17:05:00 11.6 C 92 % 10.35 C
2511 06-11-2018 17:10:00 11.5 C 92 % 10.25 C
2512 06-11-2018 17:15:00 11.3 C 91 % 9.89 C
2513 06-11-2018 17:20:00 11.1 C 91 % 9.69 C
2514 06-11-2018 17:25:00 11 C 92 % 9.75 C
2515 06-11-2018 17:30:00 10.9 C 92 % 9.65 C
2516 06-11-2018 17:35:00 10.9 C 93 % 9.81 C
2517 06-11-2018 17:40:00 10.9 C 93 % 9.81 C
2518 06-11-2018 17:45:00 10.8 C 93 % 9.71 C
2519 06-11-2018 17:50:00 10.8 C 93 % 9.71 C
2520 06-11-2018 17:55:00 10.8 C 93 % 9.71 C
2521 06-11-2018 18:00:00 10.7 C 93 % 9.62 C
2522 06-11-2018 18:05:00 10.6 C 93 % 9.52 C
2523 06-11-2018 18:10:00 10.5 C 93 % 9.42 C
2524 06-11-2018 18:15:00 10.4 C 93 % 9.32 C
2525 06-11-2018 18:20:00 10.3 C 93 % 9.22 C
Sensor: Nr:Datum:Temp:Feuchte:Taupunkt:
Aussen-T/F 2526 06-11-2018 18:25:00 10.2 C 93 % 9.12 C
2527 06-11-2018 18:30:00 10.1 C 94 % 9.18 C
2528 06-11-2018 18:35:00 10.1 C 93 % 9.02 C
2529 06-11-2018 18:40:00 9.9 C 94 % 8.98 C
2530 06-11-2018 18:45:00 9.9 C 94 % 8.98 C
2531 06-11-2018 18:50:00 9.9 C 94 % 8.98 C
2532 06-11-2018 18:55:00 9.8 C 94 % 8.88 C
2533 06-11-2018 19:00:00 9.6 C 93 % 8.53 C
2534 06-11-2018 19:05:00 9.4 C 94 % 8.48 C
2535 06-11-2018 19:10:00 9.4 C 94 % 8.48 C
2536 06-11-2018 19:15:00 9.5 C 94 % 8.58 C
2537 06-11-2018 19:20:00 9.5 C 94 % 8.58 C
2538 06-11-2018 19:25:00 9.4 C 95 % 8.64 C
2539 06-11-2018 19:30:00 9.5 C 95 % 8.74 C
2540 06-11-2018 19:35:00 9.4 C 94 % 8.48 C
2541 06-11-2018 19:40:00 9.3 C 94 % 8.39 C
2542 06-11-2018 19:45:00 9.1 C 94 % 8.19 C
2543 06-11-2018 19:50:00 9.1 C 94 % 8.19 C
2544 06-11-2018 19:55:00 8.9 C 95 % 8.14 C
2545 06-11-2018 20:00:00 8.9 C 95 % 8.14 C
2546 06-11-2018 20:05:00 8.9 C 95 % 8.14 C
2547 06-11-2018 20:10:00 8.9 C 95 % 8.14 C
2548 06-11-2018 20:15:00 8.9 C 95 % 8.14 C
2549 06-11-2018 20:20:00 8.9 C 95 % 8.14 C
2550 06-11-2018 20:25:00 8.8 C 95 % 8.04 C
Sensor: Nr:Datum:Temp:Feuchte:Taupunkt:
Aussen-T/F 2551 06-11-2018 20:30:00 8.9 C 95 % 8.14 C
2552 06-11-2018 20:35:00 8.9 C 95 % 8.14 C
2553 06-11-2018 20:40:00 8.9 C 95 % 8.14 C
2554 06-11-2018 20:45:00 8.9 C 95 % 8.14 C
2555 06-11-2018 20:50:00 8.9 C 95 % 8.14 C
2556 06-11-2018 20:55:00 8.9 C 96 % 8.3 C
2557 06-11-2018 21:00:00 8.9 C 96 % 8.3 C
2558 06-11-2018 21:05:00 8.9 C 96 % 8.3 C
2559 06-11-2018 21:10:00 8.9 C 96 % 8.3 C
2560 06-11-2018 21:15:00 8.9 C 96 % 8.3 C
2561 06-11-2018 21:20:00 8.8 C 96 % 8.2 C
2562 06-11-2018 21:25:00 8.8 C 96 % 8.2 C
2563 06-11-2018 21:30:00 8.8 C 96 % 8.2 C
2564 06-11-2018 21:35:00 8.7 C 95 % 7.94 C
2565 06-11-2018 21:40:00 8.6 C 95 % 7.85 C
2566 06-11-2018 21:45:00 8.4 C 95 % 7.65 C
2567 06-11-2018 21:50:00 8.3 C 95 % 7.55 C
2568 06-11-2018 21:55:00 8.4 C 96 % 7.8 C
2569 06-11-2018 22:00:00 8.4 C 96 % 7.8 C
2570 06-11-2018 22:05:00 8.4 C 96 % 7.8 C
2571 06-11-2018 22:10:00 8.4 C 96 % 7.8 C
2572 06-11-2018 22:15:00 8.3 C 96 % 7.7 C
2573 06-11-2018 22:20:00 8.2 C 96 % 7.6 C
2574 06-11-2018 22:25:00 8.1 C 96 % 7.5 C
2575 06-11-2018 22:30:00 7.9 C 95 % 7.15 C
Sensor: Nr:Datum:Temp:Feuchte:Taupunkt:
Aussen-T/F 2576 06-11-2018 22:35:00 7.8 C 95 % 7.05 C
2577 06-11-2018 22:40:00 7.7 C 96 % 7.1 C
2578 06-11-2018 22:45:00 7.8 C 96 % 7.2 C
2579 06-11-2018 22:50:00 7.9 C 96 % 7.3 C
2580 06-11-2018 22:55:00 8 C 96 % 7.4 C
2581 06-11-2018 23:00:00 7.9 C 96 % 7.3 C
2582 06-11-2018 23:05:00 7.8 C 96 % 7.2 C
2583 06-11-2018 23:10:00 7.8 C 96 % 7.2 C
2584 06-11-2018 23:15:00 7.7 C 96 % 7.1 C
2585 06-11-2018 23:20:00 7.7 C 96 % 7.1 C
2586 06-11-2018 23:25:00 7.7 C 96 % 7.1 C
2587 06-11-2018 23:30:00 7.8 C 96 % 7.2 C
2588 06-11-2018 23:35:00 7.8 C 96 % 7.2 C
2589 06-11-2018 23:40:00 7.7 C 96 % 7.1 C
2590 06-11-2018 23:45:00 7.6 C 96 % 7 C
2591 06-11-2018 23:50:00 7.5 C 96 % 6.9 C
2592 06-11-2018 23:55:00 7.4 C 96 % 6.8 C
2593 07-11-2018 00:00:00 7.4 C 96 % 6.8 C
2594 07-11-2018 00:05:00 7.3 C 96 % 6.71 C
2595 07-11-2018 00:10:00 7.3 C 96 % 6.71 C
2596 07-11-2018 00:15:00 7.3 C 96 % 6.71 C
2597 07-11-2018 00:20:00 7.3 C 96 % 6.71 C
2598 07-11-2018 00:25:00 7.3 C 96 % 6.71 C
2599 07-11-2018 00:30:00 7.4 C 97 % 6.96 C
2600 07-11-2018 00:35:00 7.4 C 97 % 6.96 C
Sensor: Nr:Datum:Temp:Feuchte:Taupunkt:
Aussen-T/F 2601 07-11-2018 00:40:00 7.5 C 97 % 7.06 C
2602 07-11-2018 00:45:00 7.6 C 97 % 7.16 C
2603 07-11-2018 00:50:00 7.7 C 97 % 7.25 C
2604 07-11-2018 00:55:00 7.6 C 96 % 7 C
2605 07-11-2018 01:00:00 7.3 C 96 % 6.71 C
2606 07-11-2018 01:05:00 7.2 C 96 % 6.61 C
2607 07-11-2018 01:10:00 7 C 96 % 6.41 C
2608 07-11-2018 01:15:00 6.9 C 96 % 6.31 C
2609 07-11-2018 01:20:00 6.9 C 96 % 6.31 C
2610 07-11-2018 01:25:00 6.8 C 96 % 6.21 C
2611 07-11-2018 01:30:00 6.7 C 96 % 6.11 C
2612 07-11-2018 01:35:00 6.6 C 96 % 6.01 C
2613 07-11-2018 01:40:00 6.5 C 96 % 5.91 C
2614 07-11-2018 01:45:00 6.5 C 96 % 5.91 C
2615 07-11-2018 01:50:00 6.4 C 96 % 5.81 C
2616 07-11-2018 01:55:00 6.4 C 96 % 5.81 C
2617 07-11-2018 02:00:00 6.4 C 96 % 5.81 C
2618 07-11-2018 02:05:00 6.4 C 96 % 5.81 C
2619 07-11-2018 02:10:00 6.4 C 97 % 5.96 C
2620 07-11-2018 02:15:00 6.3 C 96 % 5.71 C
2621 07-11-2018 02:20:00 6.3 C 96 % 5.71 C
2622 07-11-2018 02:25:00 6.2 C 96 % 5.61 C
2623 07-11-2018 02:30:00 6.2 C 96 % 5.61 C
2624 07-11-2018 02:35:00 6.2 C 96 % 5.61 C
2625 07-11-2018 02:40:00 6.2 C 96 % 5.61 C
Sensor: Nr:Datum:Temp:Feuchte:Taupunkt:
Aussen-T/F 2626 07-11-2018 02:45:00 6.3 C 97 % 5.86 C
2627 07-11-2018 02:50:00 6.3 C 97 % 5.86 C
2628 07-11-2018 02:55:00 6.2 C 96 % 5.61 C
2629 07-11-2018 03:00:00 6.1 C 96 % 5.51 C
2630 07-11-2018 03:05:00 5.9 C 96 % 5.31 C
2631 07-11-2018 03:10:00 5.9 C 97 % 5.46 C
2632 07-11-2018 03:15:00 6 C 97 % 5.56 C
2633 07-11-2018 03:20:00 6.1 C 97 % 5.66 C
2634 07-11-2018 03:25:00 6.2 C 97 % 5.76 C
2635 07-11-2018 03:30:00 6.2 C 97 % 5.76 C
2636 07-11-2018 03:35:00 6.1 C 97 % 5.66 C
2637 07-11-2018 03:40:00 6.1 C 97 % 5.66 C
2638 07-11-2018 03:45:00 6.1 C 97 % 5.66 C
2639 07-11-2018 03:50:00 6.2 C 97 % 5.76 C
2640 07-11-2018 03:55:00 6.2 C 97 % 5.76 C
2641 07-11-2018 04:00:00 6.3 C 97 % 5.86 C
2642 07-11-2018 04:05:00 6.5 C 97 % 6.06 C
2643 07-11-2018 04:10:00 6.6 C 97 % 6.16 C
2644 07-11-2018 04:15:00 6.6 C 97 % 6.16 C
2645 07-11-2018 04:20:00 6.6 C 97 % 6.16 C
2646 07-11-2018 04:25:00 6.5 C 97 % 6.06 C
2647 07-11-2018 04:30:00 6.4 C 97 % 5.96 C
2648 07-11-2018 04:35:00 6.2 C 97 % 5.76 C
2649 07-11-2018 04:40:00 6 C 97 % 5.56 C
2650 07-11-2018 04:45:00 5.8 C 96 % 5.21 C
Sensor: Nr:Datum:Temp:Feuchte:Taupunkt:
Aussen-T/F 2651 07-11-2018 04:50:00 5.7 C 97 % 5.26 C
2652 07-11-2018 04:55:00 5.7 C 97 % 5.26 C
2653 07-11-2018 05:00:00 5.7 C 97 % 5.26 C
2654 07-11-2018 05:05:00 5.7 C 97 % 5.26 C
2655 07-11-2018 05:10:00 5.6 C 97 % 5.16 C
2656 07-11-2018 05:15:00 5.6 C 97 % 5.16 C
2657 07-11-2018 05:20:00 5.6 C 97 % 5.16 C
2658 07-11-2018 05:25:00 5.6 C 97 % 5.16 C
2659 07-11-2018 05:30:00 5.5 C 97 % 5.06 C
2660 07-11-2018 05:35:00 5.3 C 97 % 4.86 C
2661 07-11-2018 05:40:00 5.3 C 97 % 4.86 C
2662 07-11-2018 05:45:00 5.3 C 97 % 4.86 C
2663 07-11-2018 05:50:00 5.3 C 97 % 4.86 C
2664 07-11-2018 05:55:00 5.2 C 97 % 4.76 C
2665 07-11-2018 06:00:00 5.1 C 97 % 4.66 C
2666 07-11-2018 06:05:00 5.1 C 97 % 4.66 C
2667 07-11-2018 06:10:00 5.1 C 97 % 4.66 C
2668 07-11-2018 06:15:00 4.9 C 97 % 4.46 C
2669 07-11-2018 06:20:00 4.9 C 97 % 4.46 C
2670 07-11-2018 06:25:00 5 C 97 % 4.56 C
2671 07-11-2018 06:30:00 4.9 C 97 % 4.46 C
2672 07-11-2018 06:35:00 4.9 C 97 % 4.46 C
2673 07-11-2018 06:40:00 4.9 C 97 % 4.46 C
2674 07-11-2018 06:45:00 4.8 C 97 % 4.37 C
2675 07-11-2018 06:50:00 4.8 C 97 % 4.37 C
Sensor: Nr:Datum:Temp:Feuchte:Taupunkt:
Aussen-T/F 2676 07-11-2018 06:55:00 4.7 C 97 % 4.27 C
2677 07-11-2018 07:00:00 4.7 C 97 % 4.27 C
2678 07-11-2018 07:05:00 4.7 C 97 % 4.27 C
2679 07-11-2018 07:10:00 4.7 C 97 % 4.27 C
2680 07-11-2018 07:15:00 4.6 C 97 % 4.17 C
2681 07-11-2018 07:20:00 4.5 C 97 % 4.07 C
2682 07-11-2018 07:25:00 4.4 C 97 % 3.97 C
2683 07-11-2018 07:30:00 4.6 C 97 % 4.17 C
2684 07-11-2018 07:35:00 4.7 C 97 % 4.27 C
2685 07-11-2018 07:40:00 4.8 C 97 % 4.37 C
2686 07-11-2018 07:45:00 4.8 C 97 % 4.37 C
2687 07-11-2018 07:50:00 4.7 C 97 % 4.27 C
2688 07-11-2018 07:55:00 4.7 C 97 % 4.27 C
2689 07-11-2018 08:00:00 4.8 C 97 % 4.37 C
2690 07-11-2018 08:05:00 4.9 C 97 % 4.46 C
2691 07-11-2018 08:10:00 4.9 C 97 % 4.46 C
2692 07-11-2018 08:15:00 5 C 97 % 4.56 C
2693 07-11-2018 08:20:00 5 C 97 % 4.56 C
2694 07-11-2018 08:25:00 5 C 97 % 4.56 C
2695 07-11-2018 08:30:00 5.1 C 97 % 4.66 C
2696 07-11-2018 08:35:00 5.1 C 97 % 4.66 C
2697 07-11-2018 08:40:00 5.1 C 97 % 4.66 C
2698 07-11-2018 08:45:00 5.1 C 97 % 4.66 C
2699 07-11-2018 08:50:00 5.2 C 97 % 4.76 C
2700 07-11-2018 08:55:00 5.2 C 97 % 4.76 C
Sensor: Nr:Datum:Temp:Feuchte:Taupunkt:
Aussen-T/F 2701 07-11-2018 09:00:00 5.3 C 97 % 4.86 C
2702 07-11-2018 09:05:00 5.5 C 97 % 5.06 C
2703 07-11-2018 09:10:00 5.8 C 97 % 5.36 C
2704 07-11-2018 09:15:00 5.9 C 97 % 5.46 C
2705 07-11-2018 09:20:00 6.1 C 98 % 5.81 C
2706 07-11-2018 09:25:00 6.1 C 98 % 5.81 C
2707 07-11-2018 09:30:00 6.2 C 97 % 5.76 C
2708 07-11-2018 09:35:00 6.3 C 98 % 6.01 C
2709 07-11-2018 09:40:00 6.5 C 98 % 6.21 C
2710 07-11-2018 09:45:00 6.7 C 98 % 6.41 C
2711 07-11-2018 09:50:00 6.9 C 98 % 6.61 C
2712 07-11-2018 09:55:00 7.1 C 98 % 6.81 C
2713 07-11-2018 10:00:00 7.2 C 98 % 6.91 C
2714 07-11-2018 10:05:00 7.4 C 98 % 7.11 C
2715 07-11-2018 10:10:00 7.6 C 98 % 7.3 C
2716 07-11-2018 10:15:00 7.7 C 98 % 7.4 C
2717 07-11-2018 10:20:00 7.7 C 98 % 7.4 C
2718 07-11-2018 10:25:00 7.8 C 98 % 7.5 C
2719 07-11-2018 10:30:00 7.9 C 98 % 7.6 C
2720 07-11-2018 10:35:00 8.1 C 98 % 7.8 C
2721 07-11-2018 10:40:00 8.2 C 98 % 7.9 C
2722 07-11-2018 10:45:00 8.4 C 98 % 8.1 C
2723 07-11-2018 10:50:00 8.6 C 98 % 8.3 C
2724 07-11-2018 10:55:00 8.8 C 98 % 8.5 C
2725 07-11-2018 11:00:00 8.9 C 98 % 8.6 C
Sensor: Nr:Datum:Temp:Feuchte:Taupunkt:
Aussen-T/F 2726 07-11-2018 11:05:00 8.9 C 98 % 8.6 C
2727 07-11-2018 11:10:00 9.1 C 98 % 8.8 C
2728 07-11-2018 11:15:00 9.2 C 98 % 8.9 C
2729 07-11-2018 11:20:00 9.4 C 98 % 9.1 C
2730 07-11-2018 11:25:00 9.6 C 98 % 9.3 C
2731 07-11-2018 11:30:00 9.8 C 98 % 9.5 C
2732 07-11-2018 11:35:00 9.9 C 98 % 9.6 C
2733 07-11-2018 11:40:00 10.1 C 98 % 9.8 C
2734 07-11-2018 11:45:00 10.1 C 98 % 9.8 C
2735 07-11-2018 11:50:00 10.2 C 98 % 9.9 C
2736 07-11-2018 11:55:00 10.2 C 98 % 9.9 C
2737 07-11-2018 12:00:00 10.3 C 98 % 10 C
2738 07-11-2018 12:05:00 10.3 C 98 % 10 C
2739 07-11-2018 12:10:00 10.4 C 98 % 10.1 C
2740 07-11-2018 12:15:00 10.5 C 98 % 10.2 C
2741 07-11-2018 12:20:00 10.6 C 98 % 10.3 C
2742 07-11-2018 12:25:00 10.7 C 98 % 10.4 C
2743 07-11-2018 12:30:00 10.9 C 98 % 10.6 C
2744 07-11-2018 12:35:00 11.1 C 97 % 10.64 C
2745 07-11-2018 12:40:00 11.3 C 97 % 10.84 C
2746 07-11-2018 12:45:00 11.4 C 96 % 10.79 C
2747 07-11-2018 12:50:00 11.7 C 91 % 10.28 C
2748 07-11-2018 12:55:00 12.1 C 91 % 10.68 C
2749 07-11-2018 13:00:00 12.3 C 89 % 10.54 C
2750 07-11-2018 13:05:00 12.6 C 85 % 10.15 C
Sensor: Nr:Datum:Temp:Feuchte:Taupunkt:
Aussen-T/F 2751 07-11-2018 13:10:00 12.9 C 85 % 10.44 C
2752 07-11-2018 13:15:00 13.2 C 84 % 10.56 C
2753 07-11-2018 13:20:00 13.4 C 83 % 10.57 C
2754 07-11-2018 13:25:00 13.6 C 80 % 10.22 C
2755 07-11-2018 13:30:00 13.9 C 78 % 10.13 C
2756 07-11-2018 13:35:00 14.1 C 80 % 10.71 C
2757 07-11-2018 13:40:00 14.3 C 79 % 10.71 C
2758 07-11-2018 13:45:00 14.4 C 82 % 11.37 C
2759 07-11-2018 13:50:00 14.4 C 82 % 11.37 C
2760 07-11-2018 13:55:00 14.5 C 82 % 11.47 C
2761 07-11-2018 14:00:00 14.4 C 80 % 11 C
2762 07-11-2018 14:05:00 14.7 C 78 % 10.91 C
2763 07-11-2018 14:10:00 14.9 C 80 % 11.48 C
2764 07-11-2018 14:15:00 14.9 C 79 % 11.29 C
2765 07-11-2018 14:20:00 14.9 C 76 % 10.71 C
2766 07-11-2018 14:25:00 15.1 C 76 % 10.9 C
2767 07-11-2018 14:30:00 15.2 C 73 % 10.4 C
2768 07-11-2018 14:35:00 15.4 C 74 % 10.79 C
2769 07-11-2018 14:40:00 15.5 C 76 % 11.29 C
2770 07-11-2018 14:45:00 15.3 C 71 % 10.08 C
2771 07-11-2018 14:50:00 15.3 C 74 % 10.7 C
2772 07-11-2018 14:55:00 15.1 C 74 % 10.5 C
2773 07-11-2018 15:00:00 14.9 C 76 % 10.71 C
2774 07-11-2018 15:05:00 14.7 C 78 % 10.91 C
2775 07-11-2018 15:10:00 14.5 C 79 % 10.91 C
Sensor: Nr:Datum:Temp:Feuchte:Taupunkt:
Aussen-T/F 2776 07-11-2018 15:15:00 14.3 C 79 % 10.71 C
2777 07-11-2018 15:20:00 14.1 C 80 % 10.71 C
2778 07-11-2018 15:25:00 13.9 C 81 % 10.7 C
2779 07-11-2018 15:30:00 13.7 C 81 % 10.5 C
2780 07-11-2018 15:35:00 13.6 C 81 % 10.4 C
2781 07-11-2018 15:40:00 13.5 C 82 % 10.49 C
2782 07-11-2018 15:45:00 13.4 C 82 % 10.39 C
2783 07-11-2018 15:50:00 13.3 C 83 % 10.48 C
2784 07-11-2018 15:55:00 13.2 C 83 % 10.38 C
2785 07-11-2018 16:00:00 13.2 C 84 % 10.56 C
2786 07-11-2018 16:05:00 13.1 C 83 % 10.28 C
2787 07-11-2018 16:10:00 13 C 83 % 10.18 C
2788 07-11-2018 16:15:00 12.9 C 84 % 10.26 C
2789 07-11-2018 16:20:00 12.8 C 84 % 10.17 C
2790 07-11-2018 16:25:00 12.8 C 84 % 10.17 C
2791 07-11-2018 16:30:00 12.7 C 85 % 10.25 C
2792 07-11-2018 16:35:00 12.6 C 85 % 10.15 C
2793 07-11-2018 16:40:00 12.5 C 86 % 10.22 C
2794 07-11-2018 16:45:00 12.4 C 86 % 10.13 C
2795 07-11-2018 16:50:00 12.4 C 86 % 10.13 C
2796 07-11-2018 16:55:00 12.4 C 87 % 10.3 C
2797 07-11-2018 17:00:00 12.3 C 87 % 10.2 C
2798 07-11-2018 17:05:00 12.3 C 87 % 10.2 C
2799 07-11-2018 17:10:00 12.3 C 87 % 10.2 C
2800 07-11-2018 17:15:00 12.3 C 87 % 10.2 C
Sensor: Nr:Datum:Temp:Feuchte:Taupunkt:
Aussen-T/F 2801 07-11-2018 17:20:00 12.3 C 88 % 10.37 C
2802 07-11-2018 17:25:00 12.2 C 88 % 10.27 C
2803 07-11-2018 17:30:00 12.2 C 88 % 10.27 C
2804 07-11-2018 17:35:00 12.2 C 88 % 10.27 C
2805 07-11-2018 17:40:00 12.2 C 88 % 10.27 C
2806 07-11-2018 17:45:00 12.1 C 89 % 10.34 C
2807 07-11-2018 17:50:00 12.1 C 89 % 10.34 C
2808 07-11-2018 17:55:00 12.1 C 89 % 10.34 C
2809 07-11-2018 18:00:00 12.1 C 89 % 10.34 C
2810 07-11-2018 18:05:00 12 C 89 % 10.25 C
2811 07-11-2018 18:10:00 12 C 89 % 10.25 C
2812 07-11-2018 18:15:00 11.9 C 89 % 10.15 C
2813 07-11-2018 18:20:00 11.9 C 89 % 10.15 C
2814 07-11-2018 18:25:00 11.9 C 89 % 10.15 C
2815 07-11-2018 18:30:00 11.9 C 89 % 10.15 C
2816 07-11-2018 18:35:00 11.8 C 88 % 9.88 C
2817 07-11-2018 18:40:00 11.8 C 88 % 9.88 C
2818 07-11-2018 18:45:00 11.8 C 88 % 9.88 C
2819 07-11-2018 18:50:00 11.9 C 88 % 9.98 C
2820 07-11-2018 18:55:00 11.9 C 88 % 9.98 C
2821 07-11-2018 19:00:00 11.9 C 88 % 9.98 C
2822 07-11-2018 19:05:00 11.8 C 88 % 9.88 C
2823 07-11-2018 19:10:00 11.8 C 87 % 9.71 C
2824 07-11-2018 19:15:00 11.8 C 88 % 9.88 C
2825 07-11-2018 19:20:00 11.8 C 88 % 9.88 C
Sensor: Nr:Datum:Temp:Feuchte:Taupunkt:
Aussen-T/F 2826 07-11-2018 19:25:00 11.8 C 88 % 9.88 C
2827 07-11-2018 19:30:00 11.8 C 88 % 9.88 C
2828 07-11-2018 19:35:00 11.9 C 88 % 9.98 C
2829 07-11-2018 19:40:00 11.9 C 88 % 9.98 C
2830 07-11-2018 19:45:00 11.9 C 88 % 9.98 C
2831 07-11-2018 19:50:00 11.9 C 89 % 10.15 C
2832 07-11-2018 19:55:00 11.9 C 89 % 10.15 C
2833 07-11-2018 20:00:00 11.9 C 90 % 10.31 C
2834 07-11-2018 20:05:00 11.8 C 90 % 10.21 C
2835 07-11-2018 20:10:00 11.8 C 90 % 10.21 C
2836 07-11-2018 20:15:00 11.7 C 91 % 10.28 C
2837 07-11-2018 20:20:00 11.7 C 91 % 10.28 C
2838 07-11-2018 20:25:00 11.6 C 91 % 10.18 C
2839 07-11-2018 20:30:00 11.6 C 91 % 10.18 C
2840 07-11-2018 20:35:00 11.5 C 92 % 10.25 C
2841 07-11-2018 20:40:00 11.4 C 92 % 10.15 C
2842 07-11-2018 20:45:00 11.4 C 92 % 10.15 C
2843 07-11-2018 20:50:00 11.3 C 92 % 10.05 C
2844 07-11-2018 20:55:00 11.3 C 92 % 10.05 C
2845 07-11-2018 21:00:00 11.2 C 92 % 9.95 C
2846 07-11-2018 21:05:00 11.2 C 92 % 9.95 C
2847 07-11-2018 21:10:00 11.2 C 92 % 9.95 C
2848 07-11-2018 21:15:00 11.2 C 92 % 9.95 C
2849 07-11-2018 21:20:00 11.2 C 92 % 9.95 C
2850 07-11-2018 21:25:00 11.2 C 92 % 9.95 C
Sensor: Nr:Datum:Temp:Feuchte:Taupunkt:
Aussen-T/F 2851 07-11-2018 21:30:00 11.2 C 92 % 9.95 C
2852 07-11-2018 21:35:00 11.1 C 92 % 9.85 C
2853 07-11-2018 21:40:00 11.1 C 92 % 9.85 C
2854 07-11-2018 21:45:00 11.1 C 93 % 10.01 C
2855 07-11-2018 21:50:00 11.1 C 93 % 10.01 C
2856 07-11-2018 21:55:00 11.1 C 93 % 10.01 C
2857 07-11-2018 22:00:00 11.1 C 93 % 10.01 C
2858 07-11-2018 22:05:00 11.1 C 93 % 10.01 C
2859 07-11-2018 22:10:00 11.1 C 93 % 10.01 C
2860 07-11-2018 22:15:00 11.1 C 93 % 10.01 C
2861 07-11-2018 22:20:00 11.1 C 93 % 10.01 C
2862 07-11-2018 22:25:00 11.1 C 93 % 10.01 C
2863 07-11-2018 22:30:00 11.1 C 93 % 10.01 C
2864 07-11-2018 22:35:00 11.1 C 93 % 10.01 C
2865 07-11-2018 22:40:00 11.1 C 93 % 10.01 C
2866 07-11-2018 22:45:00 11.1 C 93 % 10.01 C
2867 07-11-2018 22:50:00 11.1 C 93 % 10.01 C
2868 07-11-2018 22:55:00 11.1 C 93 % 10.01 C
2869 07-11-2018 23:00:00 11.1 C 93 % 10.01 C
2870 07-11-2018 23:05:00 11 C 93 % 9.91 C
2871 07-11-2018 23:10:00 11 C 93 % 9.91 C
2872 07-11-2018 23:15:00 11 C 93 % 9.91 C
2873 07-11-2018 23:20:00 11 C 93 % 9.91 C
2874 07-11-2018 23:25:00 10.9 C 93 % 9.81 C
2875 07-11-2018 23:30:00 10.9 C 93 % 9.81 C
Sensor: Nr:Datum:Temp:Feuchte:Taupunkt:
Aussen-T/F 2876 07-11-2018 23:35:00 10.9 C 93 % 9.81 C
2877 07-11-2018 23:40:00 10.9 C 93 % 9.81 C
2878 07-11-2018 23:45:00 10.9 C 93 % 9.81 C
2879 07-11-2018 23:50:00 10.8 C 93 % 9.71 C
2880 07-11-2018 23:55:00 10.8 C 93 % 9.71 C
2881 08-11-2018 00:00:00 10.8 C 93 % 9.71 C
2882 08-11-2018 00:05:00 10.8 C 93 % 9.71 C
2883 08-11-2018 00:10:00 10.8 C 93 % 9.71 C
2884 08-11-2018 00:15:00 10.8 C 94 % 9.87 C
2885 08-11-2018 00:20:00 10.8 C 94 % 9.87 C
2886 08-11-2018 00:25:00 10.9 C 94 % 9.97 C
2887 08-11-2018 00:30:00 10.9 C 94 % 9.97 C
2888 08-11-2018 00:35:00 10.8 C 93 % 9.71 C
2889 08-11-2018 00:40:00 10.8 C 93 % 9.71 C
2890 08-11-2018 00:45:00 10.7 C 93 % 9.62 C
2891 08-11-2018 00:50:00 10.6 C 93 % 9.52 C
2892 08-11-2018 00:55:00 10.5 C 93 % 9.42 C
2893 08-11-2018 01:00:00 10.4 C 93 % 9.32 C
2894 08-11-2018 01:05:00 10.4 C 93 % 9.32 C
2895 08-11-2018 01:10:00 10.4 C 93 % 9.32 C
2896 08-11-2018 01:15:00 10.4 C 94 % 9.48 C
2897 08-11-2018 01:20:00 10.5 C 94 % 9.58 C
2898 08-11-2018 01:25:00 10.6 C 94 % 9.68 C
2899 08-11-2018 01:30:00 10.6 C 94 % 9.68 C
2900 08-11-2018 01:35:00 10.6 C 94 % 9.68 C
Sensor: Nr:Datum:Temp:Feuchte:Taupunkt:
Aussen-T/F 2901 08-11-2018 01:40:00 10.6 C 94 % 9.68 C
2902 08-11-2018 01:45:00 10.6 C 94 % 9.68 C
2903 08-11-2018 01:50:00 10.6 C 94 % 9.68 C
2904 08-11-2018 01:55:00 10.7 C 94 % 9.77 C
2905 08-11-2018 02:00:00 10.7 C 94 % 9.77 C
2906 08-11-2018 02:05:00 10.7 C 94 % 9.77 C
2907 08-11-2018 02:10:00 10.7 C 94 % 9.77 C
2908 08-11-2018 02:15:00 10.7 C 94 % 9.77 C
2909 08-11-2018 02:20:00 10.7 C 94 % 9.77 C
2910 08-11-2018 02:25:00 10.7 C 94 % 9.77 C
2911 08-11-2018 02:30:00 10.7 C 94 % 9.77 C
2912 08-11-2018 02:35:00 10.7 C 94 % 9.77 C
2913 08-11-2018 02:40:00 10.8 C 94 % 9.87 C
2914 08-11-2018 02:45:00 10.8 C 94 % 9.87 C
2915 08-11-2018 02:50:00 10.8 C 94 % 9.87 C
2916 08-11-2018 02:55:00 10.9 C 94 % 9.97 C
2917 08-11-2018 03:00:00 10.9 C 94 % 9.97 C
2918 08-11-2018 03:05:00 10.9 C 94 % 9.97 C
2919 08-11-2018 03:10:00 10.9 C 94 % 9.97 C
2920 08-11-2018 03:15:00 11 C 94 % 10.07 C
2921 08-11-2018 03:20:00 11 C 94 % 10.07 C
2922 08-11-2018 03:25:00 11.1 C 94 % 10.17 C
2923 08-11-2018 03:30:00 11.1 C 94 % 10.17 C
2924 08-11-2018 03:35:00 11.1 C 94 % 10.17 C
2925 08-11-2018 03:40:00 11.1 C 94 % 10.17 C
Sensor: Nr:Datum:Temp:Feuchte:Taupunkt:
Aussen-T/F 2926 08-11-2018 03:45:00 11.1 C 94 % 10.17 C
2927 08-11-2018 03:50:00 11.1 C 94 % 10.17 C
2928 08-11-2018 03:55:00 11 C 93 % 9.91 C
2929 08-11-2018 04:00:00 11 C 93 % 9.91 C
2930 08-11-2018 04:05:00 10.9 C 93 % 9.81 C
2931 08-11-2018 04:10:00 10.9 C 93 % 9.81 C
2932 08-11-2018 04:15:00 10.9 C 93 % 9.81 C
2933 08-11-2018 04:20:00 10.9 C 93 % 9.81 C
2934 08-11-2018 04:25:00 10.9 C 93 % 9.81 C
2935 08-11-2018 04:30:00 10.9 C 93 % 9.81 C
2936 08-11-2018 04:35:00 11 C 93 % 9.91 C
2937 08-11-2018 04:40:00 11 C 93 % 9.91 C
2938 08-11-2018 04:45:00 11.1 C 92 % 9.85 C
2939 08-11-2018 04:50:00 11.1 C 92 % 9.85 C
2940 08-11-2018 04:55:00 11.1 C 92 % 9.85 C
2941 08-11-2018 05:00:00 11.1 C 91 % 9.69 C
2942 08-11-2018 05:05:00 11.1 C 91 % 9.69 C
2943 08-11-2018 05:10:00 11 C 91 % 9.59 C
2944 08-11-2018 05:15:00 10.8 C 90 % 9.23 C
2945 08-11-2018 05:20:00 10.7 C 90 % 9.13 C
2946 08-11-2018 05:25:00 10.7 C 91 % 9.29 C
2947 08-11-2018 05:30:00 10.7 C 91 % 9.29 C
2948 08-11-2018 05:35:00 10.7 C 91 % 9.29 C
2949 08-11-2018 05:40:00 10.6 C 92 % 9.36 C
2950 08-11-2018 05:45:00 10.6 C 92 % 9.36 C
Sensor: Nr:Datum:Temp:Feuchte:Taupunkt:
Aussen-T/F 2951 08-11-2018 05:50:00 10.6 C 92 % 9.36 C
2952 08-11-2018 05:55:00 10.6 C 92 % 9.36 C
2953 08-11-2018 06:00:00 10.6 C 92 % 9.36 C
2954 08-11-2018 06:05:00 10.6 C 92 % 9.36 C
2955 08-11-2018 06:10:00 10.6 C 92 % 9.36 C
2956 08-11-2018 06:15:00 10.6 C 92 % 9.36 C
2957 08-11-2018 06:20:00 10.6 C 93 % 9.52 C
2958 08-11-2018 06:25:00 10.6 C 93 % 9.52 C
2959 08-11-2018 06:30:00 10.6 C 93 % 9.52 C
2960 08-11-2018 06:35:00 10.6 C 93 % 9.52 C
2961 08-11-2018 06:40:00 10.7 C 93 % 9.62 C
2962 08-11-2018 06:45:00 10.6 C 92 % 9.36 C
2963 08-11-2018 06:50:00 10.7 C 91 % 9.29 C
2964 08-11-2018 06:55:00 10.7 C 91 % 9.29 C
2965 08-11-2018 07:00:00 10.7 C 91 % 9.29 C
2966 08-11-2018 07:05:00 10.8 C 91 % 9.39 C
2967 08-11-2018 07:10:00 10.7 C 91 % 9.29 C
2968 08-11-2018 07:15:00 10.7 C 91 % 9.29 C
2969 08-11-2018 07:20:00 10.7 C 91 % 9.29 C
2970 08-11-2018 07:25:00 10.7 C 90 % 9.13 C
2971 08-11-2018 07:30:00 10.7 C 90 % 9.13 C
2972 08-11-2018 07:35:00 10.7 C 90 % 9.13 C
2973 08-11-2018 07:40:00 10.7 C 90 % 9.13 C
2974 08-11-2018 07:45:00 10.8 C 90 % 9.23 C
2975 08-11-2018 07:50:00 10.8 C 90 % 9.23 C
Sensor: Nr:Datum:Temp:Feuchte:Taupunkt:
Aussen-T/F 2976 08-11-2018 07:55:00 10.8 C 90 % 9.23 C
2977 08-11-2018 08:00:00 10.8 C 90 % 9.23 C
2978 08-11-2018 08:05:00 10.8 C 90 % 9.23 C
2979 08-11-2018 08:10:00 10.8 C 90 % 9.23 C
2980 08-11-2018 08:15:00 10.8 C 90 % 9.23 C
2981 08-11-2018 08:20:00 10.8 C 90 % 9.23 C
2982 08-11-2018 08:25:00 10.9 C 90 % 9.33 C
2983 08-11-2018 08:30:00 10.9 C 90 % 9.33 C
2984 08-11-2018 08:35:00 11 C 90 % 9.42 C
2985 08-11-2018 08:40:00 11 C 90 % 9.42 C
2986 08-11-2018 08:45:00 11.1 C 89 % 9.36 C
2987 08-11-2018 08:50:00 11.1 C 89 % 9.36 C
2988 08-11-2018 08:55:00 11.2 C 89 % 9.46 C
2989 08-11-2018 09:00:00 11.3 C 88 % 9.39 C
2990 08-11-2018 09:05:00 11.4 C 87 % 9.32 C
2991 08-11-2018 09:10:00 11.4 C 87 % 9.32 C
2992 08-11-2018 09:15:00 11.6 C 87 % 9.51 C
2993 08-11-2018 09:20:00 11.6 C 87 % 9.51 C
2994 08-11-2018 09:25:00 11.7 C 87 % 9.61 C
2995 08-11-2018 09:30:00 11.7 C 87 % 9.61 C
2996 08-11-2018 09:35:00 11.8 C 86 % 9.54 C
2997 08-11-2018 09:40:00 11.8 C 86 % 9.54 C
2998 08-11-2018 09:45:00 11.9 C 86 % 9.64 C
2999 08-11-2018 09:50:00 12 C 85 % 9.56 C
3000 08-11-2018 09:55:00 12.1 C 85 % 9.66 C
Sensor: Nr:Datum:Temp:Feuchte:Taupunkt:
Aussen-T/F 3001 08-11-2018 10:00:00 12.1 C 85 % 9.66 C
3002 08-11-2018 10:05:00 12.2 C 84 % 9.58 C
3003 08-11-2018 10:10:00 12.2 C 84 % 9.58 C
3004 08-11-2018 10:15:00 12.3 C 84 % 9.68 C
3005 08-11-2018 10:20:00 12.3 C 84 % 9.68 C
3006 08-11-2018 10:25:00 12.3 C 83 % 9.5 C
3007 08-11-2018 10:30:00 12.2 C 83 % 9.4 C
3008 08-11-2018 10:35:00 12.2 C 83 % 9.4 C
3009 08-11-2018 10:40:00 12.2 C 84 % 9.58 C
3010 08-11-2018 10:45:00 12.2 C 84 % 9.58 C
3011 08-11-2018 10:50:00 12.2 C 84 % 9.58 C
3012 08-11-2018 10:55:00 12.3 C 84 % 9.68 C
3013 08-11-2018 11:00:00 12.3 C 83 % 9.5 C
3014 08-11-2018 11:05:00 12.4 C 83 % 9.6 C
3015 08-11-2018 11:10:00 12.5 C 83 % 9.69 C
3016 08-11-2018 11:15:00 12.5 C 82 % 9.51 C
3017 08-11-2018 11:20:00 12.6 C 82 % 9.61 C
3018 08-11-2018 11:25:00 12.6 C 82 % 9.61 C
3019 08-11-2018 11:30:00 12.7 C 82 % 9.71 C
3020 08-11-2018 11:35:00 12.7 C 81 % 9.53 C
3021 08-11-2018 11:40:00 12.8 C 82 % 9.81 C
3022 08-11-2018 11:45:00 12.8 C 81 % 9.62 C
3023 08-11-2018 11:50:00 12.8 C 81 % 9.62 C
3024 08-11-2018 11:55:00 12.8 C 81 % 9.62 C
3025 08-11-2018 12:00:00 12.8 C 81 % 9.62 C
Sensor: Nr:Datum:Temp:Feuchte:Taupunkt:
Aussen-T/F 3026 08-11-2018 12:05:00 12.9 C 80 % 9.54 C
3027 08-11-2018 12:10:00 12.9 C 80 % 9.54 C
3028 08-11-2018 12:15:00 12.9 C 80 % 9.54 C
3029 08-11-2018 12:20:00 12.9 C 79 % 9.35 C
3030 08-11-2018 12:25:00 13 C 78 % 9.26 C
3031 08-11-2018 12:30:00 13 C 77 % 9.07 C
3032 08-11-2018 12:35:00 13 C 77 % 9.07 C
3033 08-11-2018 12:40:00 13.1 C 79 % 9.54 C
3034 08-11-2018 12:45:00 13.1 C 78 % 9.36 C
3035 08-11-2018 12:50:00 13.1 C 77 % 9.16 C
3036 08-11-2018 12:55:00 13.1 C 77 % 9.16 C
3037 08-11-2018 13:00:00 13.1 C 78 % 9.36 C
3038 08-11-2018 13:05:00 13.1 C 78 % 9.36 C
3039 08-11-2018 13:10:00 13.1 C 77 % 9.16 C
3040 08-11-2018 13:15:00 13.1 C 78 % 9.36 C
3041 08-11-2018 13:20:00 13 C 77 % 9.07 C
3042 08-11-2018 13:25:00 12.9 C 77 % 8.97 C
3043 08-11-2018 13:30:00 12.8 C 78 % 9.06 C
3044 08-11-2018 13:35:00 12.7 C 78 % 8.97 C
3045 08-11-2018 13:40:00 12.4 C 79 % 8.86 C
3046 08-11-2018 13:45:00 12.3 C 80 % 8.95 C
3047 08-11-2018 13:50:00 12.1 C 81 % 8.94 C
3048 08-11-2018 13:55:00 11.9 C 81 % 8.75 C
3049 08-11-2018 14:00:00 11.8 C 82 % 8.83 C
3050 08-11-2018 14:05:00 11.7 C 82 % 8.73 C
Sensor: Nr:Datum:Temp:Feuchte:Taupunkt:
Aussen-T/F 3051 08-11-2018 14:10:00 11.6 C 82 % 8.64 C
3052 08-11-2018 14:15:00 11.5 C 83 % 8.72 C
3053 08-11-2018 14:20:00 11.4 C 83 % 8.62 C
3054 08-11-2018 14:25:00 11.3 C 83 % 8.52 C
3055 08-11-2018 14:30:00 11.2 C 83 % 8.42 C
3056 08-11-2018 14:35:00 11.2 C 83 % 8.42 C
3057 08-11-2018 14:40:00 11.2 C 83 % 8.42 C
3058 08-11-2018 14:45:00 11.1 C 83 % 8.33 C
3059 08-11-2018 14:50:00 11 C 83 % 8.23 C
3060 08-11-2018 14:55:00 11 C 84 % 8.4 C
3061 08-11-2018 15:00:00 11 C 84 % 8.4 C
3062 08-11-2018 15:05:00 10.9 C 84 % 8.31 C
3063 08-11-2018 15:10:00 10.9 C 84 % 8.31 C
3064 08-11-2018 15:15:00 10.9 C 84 % 8.31 C
3065 08-11-2018 15:20:00 10.8 C 84 % 8.21 C
3066 08-11-2018 15:25:00 10.8 C 84 % 8.21 C
3067 08-11-2018 15:30:00 10.8 C 84 % 8.21 C
3068 08-11-2018 15:35:00 10.9 C 84 % 8.31 C
3069 08-11-2018 15:40:00 11 C 85 % 8.58 C
3070 08-11-2018 15:45:00 11.1 C 85 % 8.68 C
3071 08-11-2018 15:50:00 11.1 C 85 % 8.68 C
3072 08-11-2018 15:55:00 11.2 C 85 % 8.77 C
3073 08-11-2018 16:00:00 11.2 C 85 % 8.77 C
3074 08-11-2018 16:05:00 11.2 C 86 % 8.95 C
3075 08-11-2018 16:10:00 11.2 C 86 % 8.95 C
Sensor: Nr:Datum:Temp:Feuchte:Taupunkt:
Aussen-T/F 3076 08-11-2018 16:15:00 11.2 C 85 % 8.77 C
3077 08-11-2018 16:20:00 11.1 C 85 % 8.68 C
3078 08-11-2018 16:25:00 11.1 C 85 % 8.68 C
3079 08-11-2018 16:30:00 11 C 85 % 8.58 C
3080 08-11-2018 16:35:00 11 C 86 % 8.75 C
3081 08-11-2018 16:40:00 10.9 C 86 % 8.65 C
3082 08-11-2018 16:45:00 10.8 C 85 % 8.38 C
3083 08-11-2018 16:50:00 10.7 C 85 % 8.28 C
3084 08-11-2018 16:55:00 10.6 C 85 % 8.19 C
3085 08-11-2018 17:00:00 10.4 C 85 % 7.99 C
3086 08-11-2018 17:05:00 10.3 C 85 % 7.89 C
3087 08-11-2018 17:10:00 10.2 C 85 % 7.79 C
3088 08-11-2018 17:15:00 10.1 C 86 % 7.87 C
3089 08-11-2018 17:20:00 10 C 86 % 7.77 C
3090 08-11-2018 17:25:00 9.9 C 86 % 7.67 C
3091 08-11-2018 17:30:00 9.8 C 87 % 7.74 C
3092 08-11-2018 17:35:00 9.7 C 87 % 7.64 C
3093 08-11-2018 17:40:00 9.6 C 87 % 7.55 C
3094 08-11-2018 17:45:00 9.5 C 87 % 7.45 C
3095 08-11-2018 17:50:00 9.3 C 87 % 7.25 C
3096 08-11-2018 17:55:00 9.2 C 87 % 7.15 C
3097 08-11-2018 18:00:00 9 C 87 % 6.96 C
3098 08-11-2018 18:05:00 8.8 C 88 % 6.93 C
3099 08-11-2018 18:10:00 8.8 C 88 % 6.93 C
3100 08-11-2018 18:15:00 8.6 C 89 % 6.89 C
Sensor: Nr:Datum:Temp:Feuchte:Taupunkt:
Aussen-T/F 3101 08-11-2018 18:20:00 8.5 C 89 % 6.79 C
3102 08-11-2018 18:25:00 8.4 C 89 % 6.7 C
3103 08-11-2018 18:30:00 8.3 C 90 % 6.76 C
3104 08-11-2018 18:35:00 8.2 C 90 % 6.66 C
3105 08-11-2018 18:40:00 8.2 C 90 % 6.66 C
3106 08-11-2018 18:45:00 8.1 C 91 % 6.72 C
3107 08-11-2018 18:50:00 8.1 C 91 % 6.72 C
3108 08-11-2018 18:55:00 8.1 C 91 % 6.72 C
3109 08-11-2018 19:00:00 8.1 C 91 % 6.72 C
3110 08-11-2018 19:05:00 8.1 C 92 % 6.88 C
3111 08-11-2018 19:10:00 8 C 92 % 6.78 C
3112 08-11-2018 19:15:00 7.9 C 92 % 6.68 C
3113 08-11-2018 19:20:00 7.9 C 92 % 6.68 C
3114 08-11-2018 19:25:00 7.8 C 92 % 6.58 C
3115 08-11-2018 19:30:00 7.8 C 92 % 6.58 C
3116 08-11-2018 19:35:00 7.7 C 92 % 6.48 C
3117 08-11-2018 19:40:00 7.6 C 92 % 6.39 C
3118 08-11-2018 19:45:00 7.6 C 92 % 6.39 C
3119 08-11-2018 19:50:00 7.5 C 92 % 6.29 C
3120 08-11-2018 19:55:00 7.3 C 92 % 6.09 C
3121 08-11-2018 20:00:00 7.3 C 92 % 6.09 C
3122 08-11-2018 20:05:00 7.3 C 93 % 6.25 C
3123 08-11-2018 20:10:00 7.2 C 93 % 6.15 C
3124 08-11-2018 20:15:00 7.2 C 93 % 6.15 C
3125 08-11-2018 20:20:00 7.2 C 93 % 6.15 C
Sensor: Nr:Datum:Temp:Feuchte:Taupunkt:
Aussen-T/F 3126 08-11-2018 20:25:00 7.1 C 93 % 6.05 C
3127 08-11-2018 20:30:00 7.2 C 94 % 6.3 C
3128 08-11-2018 20:35:00 7.2 C 94 % 6.3 C
3129 08-11-2018 20:40:00 7.2 C 94 % 6.3 C
3130 08-11-2018 20:45:00 7.2 C 94 % 6.3 C
3131 08-11-2018 20:50:00 7.1 C 94 % 6.2 C
3132 08-11-2018 20:55:00 7.1 C 94 % 6.2 C
3133 08-11-2018 21:00:00 7.1 C 94 % 6.2 C
3134 08-11-2018 21:05:00 7.2 C 94 % 6.3 C
3135 08-11-2018 21:10:00 7.3 C 95 % 6.55 C
3136 08-11-2018 21:15:00 7.3 C 95 % 6.55 C
3137 08-11-2018 21:20:00 7.4 C 95 % 6.65 C
3138 08-11-2018 21:25:00 7.4 C 94 % 6.5 C
3139 08-11-2018 21:30:00 7.4 C 94 % 6.5 C
3140 08-11-2018 21:35:00 7.4 C 95 % 6.65 C
3141 08-11-2018 21:40:00 7.5 C 95 % 6.75 C
3142 08-11-2018 21:45:00 7.6 C 95 % 6.85 C
3143 08-11-2018 21:50:00 7.6 C 95 % 6.85 C
3144 08-11-2018 21:55:00 7.7 C 95 % 6.95 C
3145 08-11-2018 22:00:00 7.8 C 95 % 7.05 C
3146 08-11-2018 22:05:00 7.8 C 95 % 7.05 C
3147 08-11-2018 22:10:00 7.8 C 95 % 7.05 C
3148 08-11-2018 22:15:00 8 C 95 % 7.25 C
3149 08-11-2018 22:20:00 8.2 C 95 % 7.45 C
3150 08-11-2018 22:25:00 8.2 C 95 % 7.45 C
Sensor: Nr:Datum:Temp:Feuchte:Taupunkt:
Aussen-T/F 3151 08-11-2018 22:30:00 8.3 C 95 % 7.55 C
3152 08-11-2018 22:35:00 8.4 C 95 % 7.65 C
3153 08-11-2018 22:40:00 8.4 C 95 % 7.65 C
3154 08-11-2018 22:45:00 8.5 C 95 % 7.75 C
3155 08-11-2018 22:50:00 8.6 C 95 % 7.85 C
3156 08-11-2018 22:55:00 8.7 C 95 % 7.94 C
3157 08-11-2018 23:00:00 8.7 C 95 % 7.94 C
3158 08-11-2018 23:05:00 8.8 C 94 % 7.89 C
3159 08-11-2018 23:10:00 8.8 C 94 % 7.89 C
3160 08-11-2018 23:15:00 8.8 C 94 % 7.89 C
3161 08-11-2018 23:20:00 8.8 C 94 % 7.89 C
3162 08-11-2018 23:25:00 8.8 C 94 % 7.89 C
3163 08-11-2018 23:30:00 8.8 C 94 % 7.89 C
3164 08-11-2018 23:35:00 8.8 C 94 % 7.89 C
3165 08-11-2018 23:40:00 8.7 C 93 % 7.63 C
3166 08-11-2018 23:45:00 8.6 C 93 % 7.53 C
3167 08-11-2018 23:50:00 8.6 C 93 % 7.53 C
3168 08-11-2018 23:55:00 8.5 C 93 % 7.43 C
3169 09-11-2018 00:00:00 8.5 C 93 % 7.43 C
3170 09-11-2018 00:05:00 8.4 C 93 % 7.34 C
3171 09-11-2018 00:10:00 8.4 C 94 % 7.49 C
3172 09-11-2018 00:15:00 8.4 C 94 % 7.49 C
3173 09-11-2018 00:20:00 8.5 C 94 % 7.59 C
3174 09-11-2018 00:25:00 8.6 C 94 % 7.69 C
3175 09-11-2018 00:30:00 8.6 C 94 % 7.69 C
Sensor: Nr:Datum:Temp:Feuchte:Taupunkt:
Aussen-T/F 3176 09-11-2018 00:35:00 8.6 C 94 % 7.69 C
3177 09-11-2018 00:40:00 8.6 C 94 % 7.69 C
3178 09-11-2018 00:45:00 8.7 C 94 % 7.79 C
3179 09-11-2018 00:50:00 8.7 C 94 % 7.79 C
3180 09-11-2018 00:55:00 8.7 C 94 % 7.79 C
3181 09-11-2018 01:00:00 8.7 C 94 % 7.79 C
3182 09-11-2018 01:05:00 8.7 C 94 % 7.79 C
3183 09-11-2018 01:10:00 8.6 C 94 % 7.69 C
3184 09-11-2018 01:15:00 8.6 C 94 % 7.69 C
3185 09-11-2018 01:20:00 8.5 C 94 % 7.59 C
3186 09-11-2018 01:25:00 8.4 C 94 % 7.49 C
3187 09-11-2018 01:30:00 8.4 C 94 % 7.49 C
3188 09-11-2018 01:35:00 8.3 C 94 % 7.39 C
3189 09-11-2018 01:40:00 8.3 C 94 % 7.39 C
3190 09-11-2018 01:45:00 8.3 C 94 % 7.39 C
3191 09-11-2018 01:50:00 8.3 C 94 % 7.39 C
3192 09-11-2018 01:55:00 8.3 C 94 % 7.39 C
3193 09-11-2018 02:00:00 8.3 C 94 % 7.39 C
3194 09-11-2018 02:05:00 8.4 C 94 % 7.49 C
3195 09-11-2018 02:10:00 8.4 C 94 % 7.49 C
3196 09-11-2018 02:15:00 8.4 C 94 % 7.49 C
3197 09-11-2018 02:20:00 8.4 C 94 % 7.49 C
3198 09-11-2018 02:25:00 8.3 C 94 % 7.39 C
3199 09-11-2018 02:30:00 8.3 C 94 % 7.39 C
3200 09-11-2018 02:35:00 8.2 C 94 % 7.29 C
Sensor: Nr:Datum:Temp:Feuchte:Taupunkt:
Aussen-T/F 3201 09-11-2018 02:40:00 8.2 C 94 % 7.29 C
3202 09-11-2018 02:45:00 8.2 C 94 % 7.29 C
3203 09-11-2018 02:50:00 8.3 C 95 % 7.55 C
3204 09-11-2018 02:55:00 8.4 C 95 % 7.65 C
3205 09-11-2018 03:00:00 8.4 C 95 % 7.65 C
3206 09-11-2018 03:05:00 8.4 C 95 % 7.65 C
3207 09-11-2018 03:10:00 8.4 C 95 % 7.65 C
3208 09-11-2018 03:15:00 8.5 C 95 % 7.75 C
3209 09-11-2018 03:20:00 8.4 C 95 % 7.65 C
3210 09-11-2018 03:25:00 8.5 C 95 % 7.75 C
3211 09-11-2018 03:30:00 8.5 C 95 % 7.75 C
3212 09-11-2018 03:35:00 8.4 C 95 % 7.65 C
3213 09-11-2018 03:40:00 8.3 C 94 % 7.39 C
3214 09-11-2018 03:45:00 8.2 C 94 % 7.29 C
3215 09-11-2018 03:50:00 8.2 C 94 % 7.29 C
3216 09-11-2018 03:55:00 8.2 C 94 % 7.29 C
3217 09-11-2018 04:00:00 8.1 C 94 % 7.19 C
3218 09-11-2018 04:05:00 8.1 C 95 % 7.35 C
3219 09-11-2018 04:10:00 7.9 C 94 % 7 C
3220 09-11-2018 04:15:00 7.8 C 94 % 6.9 C
3221 09-11-2018 04:20:00 7.7 C 94 % 6.8 C
3222 09-11-2018 04:25:00 7.6 C 94 % 6.7 C
3223 09-11-2018 04:30:00 7.4 C 94 % 6.5 C
3224 09-11-2018 04:35:00 7.4 C 94 % 6.5 C
3225 09-11-2018 04:40:00 7.4 C 95 % 6.65 C
Sensor: Nr:Datum:Temp:Feuchte:Taupunkt:
Aussen-T/F 3226 09-11-2018 04:45:00 7.3 C 94 % 6.4 C
3227 09-11-2018 04:50:00 7.2 C 94 % 6.3 C
3228 09-11-2018 04:55:00 7.1 C 94 % 6.2 C
3229 09-11-2018 05:00:00 7 C 95 % 6.26 C
3230 09-11-2018 05:05:00 6.9 C 95 % 6.16 C
3231 09-11-2018 05:10:00 6.8 C 95 % 6.06 C
3232 09-11-2018 05:15:00 6.7 C 94 % 5.8 C
3233 09-11-2018 05:20:00 6.5 C 95 % 5.76 C
3234 09-11-2018 05:25:00 6.4 C 95 % 5.66 C
3235 09-11-2018 05:30:00 6.4 C 95 % 5.66 C
3236 09-11-2018 05:35:00 6.3 C 95 % 5.56 C
3237 09-11-2018 05:40:00 6.3 C 95 % 5.56 C
3238 09-11-2018 05:45:00 6.2 C 95 % 5.46 C
3239 09-11-2018 05:50:00 6.1 C 95 % 5.36 C
3240 09-11-2018 05:55:00 6.1 C 95 % 5.36 C
3241 09-11-2018 06:00:00 6 C 95 % 5.26 C
3242 09-11-2018 06:05:00 5.9 C 95 % 5.16 C
3243 09-11-2018 06:10:00 5.9 C 95 % 5.16 C
3244 09-11-2018 06:15:00 5.8 C 95 % 5.06 C
3245 09-11-2018 06:20:00 5.8 C 95 % 5.06 C
3246 09-11-2018 06:25:00 5.7 C 95 % 4.96 C
3247 09-11-2018 06:30:00 5.7 C 95 % 4.96 C
3248 09-11-2018 06:35:00 5.8 C 96 % 5.21 C
3249 09-11-2018 06:40:00 5.8 C 96 % 5.21 C
3250 09-11-2018 06:45:00 5.8 C 96 % 5.21 C
Sensor: Nr:Datum:Temp:Feuchte:Taupunkt:
Aussen-T/F 3251 09-11-2018 06:50:00 5.7 C 96 % 5.11 C
3252 09-11-2018 06:55:00 5.6 C 95 % 4.86 C
3253 09-11-2018 07:00:00 5.6 C 96 % 5.01 C
3254 09-11-2018 07:05:00 5.6 C 96 % 5.01 C
3255 09-11-2018 07:10:00 5.4 C 96 % 4.81 C
3256 09-11-2018 07:15:00 5.4 C 96 % 4.81 C
3257 09-11-2018 07:20:00 5.4 C 96 % 4.81 C
3258 09-11-2018 07:25:00 5.5 C 96 % 4.91 C
3259 09-11-2018 07:30:00 5.5 C 96 % 4.91 C
3260 09-11-2018 07:35:00 5.4 C 96 % 4.81 C
3261 09-11-2018 07:40:00 5.3 C 96 % 4.72 C
3262 09-11-2018 07:45:00 5.3 C 96 % 4.72 C
3263 09-11-2018 07:50:00 5.3 C 96 % 4.72 C
3264 09-11-2018 07:55:00 5.4 C 96 % 4.81 C
3265 09-11-2018 08:00:00 5.5 C 96 % 4.91 C
3266 09-11-2018 08:05:00 5.4 C 96 % 4.81 C
3267 09-11-2018 08:10:00 5.4 C 96 % 4.81 C
3268 09-11-2018 08:15:00 5.3 C 96 % 4.72 C
3269 09-11-2018 08:20:00 5.4 C 96 % 4.81 C
3270 09-11-2018 08:25:00 5.4 C 96 % 4.81 C
3271 09-11-2018 08:30:00 5.6 C 96 % 5.01 C
3272 09-11-2018 08:35:00 5.6 C 96 % 5.01 C
3273 09-11-2018 08:40:00 5.7 C 97 % 5.26 C
3274 09-11-2018 08:45:00 5.8 C 97 % 5.36 C
3275 09-11-2018 08:50:00 5.8 C 97 % 5.36 C
Sensor: Nr:Datum:Temp:Feuchte:Taupunkt:
Aussen-T/F 3276 09-11-2018 08:55:00 5.9 C 97 % 5.46 C
3277 09-11-2018 09:00:00 5.9 C 97 % 5.46 C
3278 09-11-2018 09:05:00 6 C 97 % 5.56 C
3279 09-11-2018 09:10:00 6.1 C 97 % 5.66 C
3280 09-11-2018 09:15:00 6.1 C 97 % 5.66 C
3281 09-11-2018 09:20:00 6.2 C 97 % 5.76 C
3282 09-11-2018 09:25:00 6.3 C 97 % 5.86 C
3283 09-11-2018 09:30:00 6.3 C 97 % 5.86 C
3284 09-11-2018 09:35:00 6.4 C 97 % 5.96 C
3285 09-11-2018 09:40:00 6.4 C 97 % 5.96 C
3286 09-11-2018 09:45:00 6.5 C 97 % 6.06 C
3287 09-11-2018 09:50:00 6.6 C 97 % 6.16 C
3288 09-11-2018 09:55:00 6.6 C 97 % 6.16 C
3289 09-11-2018 10:00:00 6.7 C 97 % 6.26 C
3290 09-11-2018 10:05:00 6.8 C 97 % 6.36 C
3291 09-11-2018 10:10:00 6.9 C 97 % 6.46 C
3292 09-11-2018 10:15:00 7.1 C 97 % 6.66 C
3293 09-11-2018 10:20:00 7.2 C 97 % 6.76 C
3294 09-11-2018 10:25:00 7.3 C 97 % 6.86 C
3295 09-11-2018 10:30:00 7.4 C 97 % 6.96 C
3296 09-11-2018 10:35:00 7.5 C 97 % 7.06 C
3297 09-11-2018 10:40:00 7.7 C 97 % 7.25 C
3298 09-11-2018 10:45:00 7.8 C 97 % 7.35 C
3299 09-11-2018 10:50:00 8.1 C 97 % 7.65 C
3300 09-11-2018 10:55:00 8.3 C 97 % 7.85 C
Sensor: Nr:Datum:Temp:Feuchte:Taupunkt:
Aussen-T/F 3301 09-11-2018 11:00:00 8.4 C 97 % 7.95 C
3302 09-11-2018 11:05:00 8.7 C 98 % 8.4 C
3303 09-11-2018 11:10:00 8.9 C 98 % 8.6 C
3304 09-11-2018 11:15:00 9.1 C 97 % 8.65 C
3305 09-11-2018 11:20:00 9.4 C 98 % 9.1 C
3306 09-11-2018 11:25:00 9.6 C 98 % 9.3 C
3307 09-11-2018 11:30:00 9.8 C 98 % 9.5 C
3308 09-11-2018 11:35:00 9.9 C 98 % 9.6 C
3309 09-11-2018 11:40:00 10.2 C 98 % 9.9 C
3310 09-11-2018 11:45:00 10.4 C 98 % 10.1 C
3311 09-11-2018 11:50:00 10.6 C 98 % 10.3 C
3312 09-11-2018 11:55:00 10.7 C 98 % 10.4 C
3313 09-11-2018 12:00:00 10.9 C 98 % 10.6 C
3314 09-11-2018 12:05:00 11 C 98 % 10.7 C
3315 09-11-2018 12:10:00 11.1 C 98 % 10.8 C
3316 09-11-2018 12:15:00 11.2 C 98 % 10.9 C
3317 09-11-2018 12:20:00 11.3 C 98 % 11 C
3318 09-11-2018 12:25:00 11.4 C 98 % 11.1 C
3319 09-11-2018 12:30:00 11.4 C 98 % 11.1 C
3320 09-11-2018 12:35:00 11.4 C 98 % 11.1 C
3321 09-11-2018 12:40:00 11.4 C 97 % 10.94 C
3322 09-11-2018 12:45:00 11.5 C 97 % 11.04 C
3323 09-11-2018 12:50:00 11.6 C 98 % 11.29 C
3324 09-11-2018 12:55:00 11.7 C 97 % 11.24 C
3325 09-11-2018 13:00:00 11.8 C 97 % 11.34 C
Sensor: Nr:Datum:Temp:Feuchte:Taupunkt:
Aussen-T/F 3326 09-11-2018 13:05:00 11.9 C 97 % 11.44 C
3327 09-11-2018 13:10:00 11.9 C 97 % 11.44 C
3328 09-11-2018 13:15:00 12.1 C 97 % 11.64 C
3329 09-11-2018 13:20:00 12.2 C 97 % 11.74 C
3330 09-11-2018 13:25:00 12.3 C 96 % 11.68 C
3331 09-11-2018 13:30:00 12.4 C 95 % 11.62 C
3332 09-11-2018 13:35:00 12.6 C 95 % 11.82 C
3333 09-11-2018 13:40:00 12.7 C 95 % 11.92 C
3334 09-11-2018 13:45:00 12.9 C 94 % 11.96 C
3335 09-11-2018 13:50:00 13 C 93 % 11.9 C
3336 09-11-2018 13:55:00 13.1 C 92 % 11.83 C
3337 09-11-2018 14:00:00 13.2 C 91 % 11.76 C
3338 09-11-2018 14:05:00 13.4 C 89 % 11.63 C
3339 09-11-2018 14:10:00 13.6 C 87 % 11.48 C
3340 09-11-2018 14:15:00 13.9 C 85 % 11.42 C
3341 09-11-2018 14:20:00 14.1 C 83 % 11.26 C
3342 09-11-2018 14:25:00 14.2 C 82 % 11.17 C
3343 09-11-2018 14:30:00 14.3 C 84 % 11.64 C
3344 09-11-2018 14:35:00 14.4 C 83 % 11.55 C
3345 09-11-2018 14:40:00 14.4 C 83 % 11.55 C
3346 09-11-2018 14:45:00 14.4 C 84 % 11.73 C
3347 09-11-2018 14:50:00 14.5 C 85 % 12.01 C
3348 09-11-2018 14:55:00 14.5 C 85 % 12.01 C
3349 09-11-2018 15:00:00 14.4 C 84 % 11.73 C
3350 09-11-2018 15:05:00 14.3 C 82 % 11.27 C
Sensor: Nr:Datum:Temp:Feuchte:Taupunkt:
Aussen-T/F 3351 09-11-2018 15:10:00 14.3 C 80 % 10.9 C
3352 09-11-2018 15:15:00 14.4 C 82 % 11.37 C
3353 09-11-2018 15:20:00 14.4 C 82 % 11.37 C
3354 09-11-2018 15:25:00 14.4 C 83 % 11.55 C
3355 09-11-2018 15:30:00 14.4 C 83 % 11.55 C
3356 09-11-2018 15:35:00 14.3 C 83 % 11.45 C
3357 09-11-2018 15:40:00 14.2 C 83 % 11.36 C
3358 09-11-2018 15:45:00 14.1 C 83 % 11.26 C
3359 09-11-2018 15:50:00 14 C 85 % 11.52 C
3360 09-11-2018 15:55:00 13.9 C 85 % 11.42 C
3361 09-11-2018 16:00:00 13.8 C 85 % 11.32 C
3362 09-11-2018 16:05:00 13.7 C 84 % 11.05 C
3363 09-11-2018 16:10:00 13.5 C 85 % 11.03 C
3364 09-11-2018 16:15:00 13.3 C 86 % 11.01 C
3365 09-11-2018 16:20:00 13.2 C 85 % 10.74 C
3366 09-11-2018 16:25:00 13.1 C 86 % 10.81 C
3367 09-11-2018 16:30:00 12.9 C 86 % 10.62 C
3368 09-11-2018 16:35:00 12.9 C 86 % 10.62 C
3369 09-11-2018 16:40:00 12.8 C 86 % 10.52 C
3370 09-11-2018 16:45:00 12.7 C 87 % 10.59 C
3371 09-11-2018 16:50:00 12.6 C 87 % 10.5 C
3372 09-11-2018 16:55:00 12.4 C 87 % 10.3 C
3373 09-11-2018 17:00:00 12.3 C 87 % 10.2 C
3374 09-11-2018 17:05:00 12.3 C 87 % 10.2 C
3375 09-11-2018 17:10:00 12.2 C 87 % 10.1 C
Sensor: Nr:Datum:Temp:Feuchte:Taupunkt:
Aussen-T/F 3376 09-11-2018 17:15:00 12.1 C 88 % 10.17 C
3377 09-11-2018 17:20:00 12.1 C 88 % 10.17 C
3378 09-11-2018 17:25:00 12 C 88 % 10.08 C
3379 09-11-2018 17:30:00 11.9 C 88 % 9.98 C
3380 09-11-2018 17:35:00 11.9 C 89 % 10.15 C
3381 09-11-2018 17:40:00 11.9 C 89 % 10.15 C
3382 09-11-2018 17:45:00 12 C 89 % 10.25 C
3383 09-11-2018 17:50:00 12.1 C 89 % 10.34 C
3384 09-11-2018 17:55:00 12.1 C 89 % 10.34 C
3385 09-11-2018 18:00:00 12.1 C 88 % 10.17 C
3386 09-11-2018 18:05:00 12 C 88 % 10.08 C
3387 09-11-2018 18:10:00 12 C 89 % 10.25 C
3388 09-11-2018 18:15:00 11.9 C 89 % 10.15 C
3389 09-11-2018 18:20:00 11.9 C 89 % 10.15 C
3390 09-11-2018 18:25:00 12 C 89 % 10.25 C
3391 09-11-2018 18:30:00 12 C 90 % 10.41 C
3392 09-11-2018 18:35:00 11.9 C 90 % 10.31 C
3393 09-11-2018 18:40:00 11.9 C 90 % 10.31 C
3394 09-11-2018 18:45:00 11.9 C 90 % 10.31 C
3395 09-11-2018 18:50:00 11.8 C 91 % 10.38 C
3396 09-11-2018 18:55:00 11.8 C 91 % 10.38 C
3397 09-11-2018 19:00:00 11.8 C 91 % 10.38 C
3398 09-11-2018 19:05:00 11.7 C 91 % 10.28 C
3399 09-11-2018 19:10:00 11.7 C 91 % 10.28 C
3400 09-11-2018 19:15:00 11.6 C 91 % 10.18 C
Sensor: Nr:Datum:Temp:Feuchte:Taupunkt:
Aussen-T/F 3401 09-11-2018 19:20:00 11.4 C 91 % 9.98 C
3402 09-11-2018 19:25:00 11.3 C 92 % 10.05 C
3403 09-11-2018 19:30:00 11.3 C 92 % 10.05 C
3404 09-11-2018 19:35:00 11.2 C 92 % 9.95 C
3405 09-11-2018 19:40:00 11.2 C 93 % 10.11 C
3406 09-11-2018 19:45:00 11.2 C 93 % 10.11 C
3407 09-11-2018 19:50:00 11.2 C 93 % 10.11 C
3408 09-11-2018 19:55:00 11.1 C 93 % 10.01 C
3409 09-11-2018 20:00:00 11.1 C 93 % 10.01 C
3410 09-11-2018 20:05:00 11.1 C 93 % 10.01 C
3411 09-11-2018 20:10:00 11.1 C 93 % 10.01 C
3412 09-11-2018 20:15:00 11.1 C 93 % 10.01 C
3413 09-11-2018 20:20:00 11.1 C 93 % 10.01 C
3414 09-11-2018 20:25:00 11.1 C 93 % 10.01 C
3415 09-11-2018 20:30:00 11.1 C 93 % 10.01 C
3416 09-11-2018 20:35:00 11.1 C 93 % 10.01 C
3417 09-11-2018 20:40:00 11.1 C 93 % 10.01 C
3418 09-11-2018 20:45:00 11.1 C 93 % 10.01 C
3419 09-11-2018 20:50:00 11.1 C 93 % 10.01 C
3420 09-11-2018 20:55:00 11.1 C 93 % 10.01 C
3421 09-11-2018 21:00:00 11.1 C 93 % 10.01 C
3422 09-11-2018 21:05:00 11.1 C 93 % 10.01 C
3423 09-11-2018 21:10:00 11.1 C 93 % 10.01 C
3424 09-11-2018 21:15:00 11.1 C 93 % 10.01 C
3425 09-11-2018 21:20:00 11.1 C 93 % 10.01 C
Sensor: Nr:Datum:Temp:Feuchte:Taupunkt:
Aussen-T/F 3426 09-11-2018 21:25:00 11.1 C 93 % 10.01 C
3427 09-11-2018 21:30:00 11.1 C 92 % 9.85 C
3428 09-11-2018 21:35:00 11.2 C 92 % 9.95 C
3429 09-11-2018 21:40:00 11.2 C 91 % 9.79 C
3430 09-11-2018 21:45:00 11.2 C 90 % 9.62 C
3431 09-11-2018 21:50:00 10.9 C 90 % 9.33 C
3432 09-11-2018 21:55:00 10.8 C 90 % 9.23 C
3433 09-11-2018 22:00:00 10.6 C 90 % 9.03 C
3434 09-11-2018 22:05:00 10.4 C 91 % 9 C
3435 09-11-2018 22:10:00 10.3 C 91 % 8.9 C
3436 09-11-2018 22:15:00 10.4 C 92 % 9.16 C
3437 09-11-2018 22:20:00 10.3 C 92 % 9.06 C
3438 09-11-2018 22:25:00 10.2 C 91 % 8.8 C
3439 09-11-2018 22:30:00 10.2 C 92 % 8.96 C
3440 09-11-2018 22:35:00 10.2 C 93 % 9.12 C
3441 09-11-2018 22:40:00 10.2 C 93 % 9.12 C
3442 09-11-2018 22:45:00 10.3 C 93 % 9.22 C
3443 09-11-2018 22:50:00 10.2 C 93 % 9.12 C
3444 09-11-2018 22:55:00 10.2 C 93 % 9.12 C
3445 09-11-2018 23:00:00 10.2 C 93 % 9.12 C
3446 09-11-2018 23:05:00 10.2 C 93 % 9.12 C
3447 09-11-2018 23:10:00 10.3 C 93 % 9.22 C
3448 09-11-2018 23:15:00 10.3 C 93 % 9.22 C
3449 09-11-2018 23:20:00 10.2 C 93 % 9.12 C
3450 09-11-2018 23:25:00 10.1 C 92 % 8.86 C
Sensor: Nr:Datum:Temp:Feuchte:Taupunkt:
Aussen-T/F 3451 09-11-2018 23:30:00 10.1 C 93 % 9.02 C
3452 09-11-2018 23:35:00 10.1 C 93 % 9.02 C
3453 09-11-2018 23:40:00 10.1 C 93 % 9.02 C
3454 09-11-2018 23:45:00 10.1 C 93 % 9.02 C
3455 09-11-2018 23:50:00 10.1 C 93 % 9.02 C
3456 09-11-2018 23:55:00 10 C 93 % 8.92 C
3457 10-11-2018 00:00:00 10.1 C 93 % 9.02 C
3458 10-11-2018 00:05:00 10.1 C 93 % 9.02 C
3459 10-11-2018 00:10:00 10.1 C 93 % 9.02 C
3460 10-11-2018 00:15:00 10.1 C 94 % 9.18 C
3461 10-11-2018 00:20:00 10.1 C 94 % 9.18 C
3462 10-11-2018 00:25:00 10.1 C 93 % 9.02 C
3463 10-11-2018 00:30:00 10.1 C 93 % 9.02 C
3464 10-11-2018 00:35:00 10 C 93 % 8.92 C
3465 10-11-2018 00:40:00 9.9 C 93 % 8.82 C
3466 10-11-2018 00:45:00 9.9 C 93 % 8.82 C
3467 10-11-2018 00:50:00 9.8 C 93 % 8.72 C
3468 10-11-2018 00:55:00 9.7 C 93 % 8.62 C
3469 10-11-2018 01:00:00 9.7 C 93 % 8.62 C
3470 10-11-2018 01:05:00 9.6 C 93 % 8.53 C
3471 10-11-2018 01:10:00 9.5 C 93 % 8.43 C
3472 10-11-2018 01:15:00 9.5 C 94 % 8.58 C
3473 10-11-2018 01:20:00 9.6 C 94 % 8.68 C
3474 10-11-2018 01:25:00 9.7 C 94 % 8.78 C
3475 10-11-2018 01:30:00 9.8 C 94 % 8.88 C
Sensor: Nr:Datum:Temp:Feuchte:Taupunkt:
Aussen-T/F 3476 10-11-2018 01:35:00 10 C 95 % 9.24 C
3477 10-11-2018 01:40:00 10.2 C 94 % 9.28 C
3478 10-11-2018 01:45:00 10.3 C 94 % 9.38 C
3479 10-11-2018 01:50:00 10.6 C 93 % 9.52 C
3480 10-11-2018 01:55:00 10.9 C 91 % 9.49 C
3481 10-11-2018 02:00:00 11.1 C 91 % 9.69 C
3482 10-11-2018 02:05:00 11.2 C 90 % 9.62 C
3483 10-11-2018 02:10:00 11.4 C 88 % 9.49 C
3484 10-11-2018 02:15:00 11.5 C 88 % 9.58 C
3485 10-11-2018 02:20:00 11.5 C 87 % 9.41 C
3486 10-11-2018 02:25:00 11.6 C 87 % 9.51 C
3487 10-11-2018 02:30:00 11.6 C 86 % 9.34 C
3488 10-11-2018 02:35:00 11.6 C 86 % 9.34 C
3489 10-11-2018 02:40:00 11.7 C 86 % 9.44 C
3490 10-11-2018 02:45:00 11.7 C 86 % 9.44 C
3491 10-11-2018 02:50:00 11.7 C 86 % 9.44 C
3492 10-11-2018 02:55:00 11.7 C 86 % 9.44 C
3493 10-11-2018 03:00:00 11.7 C 85 % 9.27 C
3494 10-11-2018 03:05:00 11.7 C 86 % 9.44 C
3495 10-11-2018 03:10:00 11.6 C 86 % 9.34 C
3496 10-11-2018 03:15:00 11.6 C 86 % 9.34 C
3497 10-11-2018 03:20:00 11.5 C 85 % 9.07 C
3498 10-11-2018 03:25:00 11.5 C 86 % 9.24 C
3499 10-11-2018 03:30:00 11.4 C 85 % 8.97 C
3500 10-11-2018 03:35:00 11.4 C 85 % 8.97 C
Sensor: Nr:Datum:Temp:Feuchte:Taupunkt:
Aussen-T/F 3501 10-11-2018 03:40:00 11.4 C 85 % 8.97 C
3502 10-11-2018 03:45:00 11.5 C 85 % 9.07 C
3503 10-11-2018 03:50:00 11.6 C 85 % 9.17 C
3504 10-11-2018 03:55:00 11.6 C 84 % 8.99 C
3505 10-11-2018 04:00:00 11.7 C 84 % 9.09 C
3506 10-11-2018 04:05:00 11.7 C 84 % 9.09 C
3507 10-11-2018 04:10:00 11.7 C 84 % 9.09 C
3508 10-11-2018 04:15:00 11.7 C 84 % 9.09 C
3509 10-11-2018 04:20:00 11.7 C 84 % 9.09 C
3510 10-11-2018 04:25:00 11.6 C 84 % 8.99 C
3511 10-11-2018 04:30:00 11.6 C 84 % 8.99 C
3512 10-11-2018 04:35:00 11.6 C 83 % 8.81 C
3513 10-11-2018 04:40:00 11.6 C 84 % 8.99 C
3514 10-11-2018 04:45:00 11.6 C 83 % 8.81 C
3515 10-11-2018 04:50:00 11.6 C 83 % 8.81 C
3516 10-11-2018 04:55:00 11.5 C 83 % 8.72 C
3517 10-11-2018 05:00:00 11.5 C 83 % 8.72 C
3518 10-11-2018 05:05:00 11.4 C 83 % 8.62 C
3519 10-11-2018 05:10:00 11.4 C 83 % 8.62 C
3520 10-11-2018 05:15:00 11.4 C 83 % 8.62 C
3521 10-11-2018 05:20:00 11.3 C 83 % 8.52 C
3522 10-11-2018 05:25:00 11.3 C 84 % 8.7 C
3523 10-11-2018 05:30:00 11.3 C 84 % 8.7 C
3524 10-11-2018 05:35:00 11.2 C 84 % 8.6 C
3525 10-11-2018 05:40:00 11.2 C 84 % 8.6 C
Sensor: Nr:Datum:Temp:Feuchte:Taupunkt:
Aussen-T/F 3526 10-11-2018 05:45:00 11.2 C 84 % 8.6 C
3527 10-11-2018 05:50:00 11.2 C 84 % 8.6 C
3528 10-11-2018 05:55:00 11.1 C 84 % 8.5 C
3529 10-11-2018 06:00:00 11.1 C 85 % 8.68 C
3530 10-11-2018 06:05:00 11.1 C 85 % 8.68 C
3531 10-11-2018 06:10:00 11 C 85 % 8.58 C
3532 10-11-2018 06:15:00 11 C 85 % 8.58 C
3533 10-11-2018 06:20:00 10.9 C 85 % 8.48 C
3534 10-11-2018 06:25:00 10.8 C 86 % 8.56 C
3535 10-11-2018 06:30:00 10.8 C 86 % 8.56 C
3536 10-11-2018 06:35:00 10.8 C 86 % 8.56 C
3537 10-11-2018 06:40:00 10.8 C 86 % 8.56 C
3538 10-11-2018 06:45:00 10.8 C 86 % 8.56 C
3539 10-11-2018 06:50:00 10.8 C 86 % 8.56 C
3540 10-11-2018 06:55:00 10.8 C 86 % 8.56 C
3541 10-11-2018 07:00:00 10.8 C 86 % 8.56 C
3542 10-11-2018 07:05:00 10.8 C 86 % 8.56 C
3543 10-11-2018 07:10:00 10.9 C 86 % 8.65 C
3544 10-11-2018 07:15:00 10.9 C 86 % 8.65 C
3545 10-11-2018 07:20:00 10.8 C 86 % 8.56 C
3546 10-11-2018 07:25:00 10.9 C 86 % 8.65 C
3547 10-11-2018 07:30:00 10.9 C 86 % 8.65 C
3548 10-11-2018 07:35:00 10.9 C 86 % 8.65 C
3549 10-11-2018 07:40:00 10.9 C 85 % 8.48 C
3550 10-11-2018 07:45:00 10.9 C 86 % 8.65 C
Sensor: Nr:Datum:Temp:Feuchte:Taupunkt:
Aussen-T/F 3551 10-11-2018 07:50:00 10.9 C 85 % 8.48 C
3552 10-11-2018 07:55:00 10.9 C 85 % 8.48 C
3553 10-11-2018 08:00:00 11 C 85 % 8.58 C
3554 10-11-2018 08:05:00 11 C 85 % 8.58 C
3555 10-11-2018 08:10:00 11 C 85 % 8.58 C
3556 10-11-2018 08:15:00 11.1 C 85 % 8.68 C
3557 10-11-2018 08:20:00 11.1 C 85 % 8.68 C
3558 10-11-2018 08:25:00 11.1 C 85 % 8.68 C
3559 10-11-2018 08:30:00 11.1 C 85 % 8.68 C
3560 10-11-2018 08:35:00 11.1 C 86 % 8.85 C
3561 10-11-2018 08:40:00 11.1 C 87 % 9.02 C
3562 10-11-2018 08:45:00 11.1 C 87 % 9.02 C
3563 10-11-2018 08:50:00 11 C 88 % 9.09 C
3564 10-11-2018 08:55:00 10.9 C 88 % 8.99 C
3565 10-11-2018 09:00:00 10.9 C 88 % 8.99 C
3566 10-11-2018 09:05:00 10.8 C 89 % 9.06 C
3567 10-11-2018 09:10:00 10.7 C 89 % 8.96 C
3568 10-11-2018 09:15:00 10.6 C 89 % 8.86 C
3569 10-11-2018 09:20:00 10.6 C 90 % 9.03 C
3570 10-11-2018 09:25:00 10.5 C 90 % 8.93 C
3571 10-11-2018 09:30:00 10.5 C 90 % 8.93 C
3572 10-11-2018 09:35:00 10.5 C 90 % 8.93 C
3573 10-11-2018 09:40:00 10.6 C 90 % 9.03 C
3574 10-11-2018 09:45:00 10.6 C 90 % 9.03 C
3575 10-11-2018 09:50:00 10.6 C 90 % 9.03 C
Sensor: Nr:Datum:Temp:Feuchte:Taupunkt:
Aussen-T/F 3576 10-11-2018 09:55:00 10.6 C 91 % 9.19 C
3577 10-11-2018 10:00:00 10.7 C 91 % 9.29 C
3578 10-11-2018 10:05:00 10.7 C 91 % 9.29 C
3579 10-11-2018 10:10:00 10.8 C 91 % 9.39 C
3580 10-11-2018 10:15:00 10.9 C 91 % 9.49 C
3581 10-11-2018 10:20:00 10.9 C 90 % 9.33 C
3582 10-11-2018 10:25:00 11 C 91 % 9.59 C
3583 10-11-2018 10:30:00 11.1 C 90 % 9.52 C
3584 10-11-2018 10:35:00 11.2 C 90 % 9.62 C
3585 10-11-2018 10:40:00 11.3 C 90 % 9.72 C
3586 10-11-2018 10:45:00 11.4 C 90 % 9.82 C
3587 10-11-2018 10:50:00 11.5 C 90 % 9.92 C
3588 10-11-2018 10:55:00 11.6 C 89 % 9.85 C
3589 10-11-2018 11:00:00 11.6 C 89 % 9.85 C
3590 10-11-2018 11:05:00 11.7 C 90 % 10.12 C
3591 10-11-2018 11:10:00 11.8 C 89 % 10.05 C
3592 10-11-2018 11:15:00 11.8 C 89 % 10.05 C
3593 10-11-2018 11:20:00 11.9 C 88 % 9.98 C
3594 10-11-2018 11:25:00 11.9 C 88 % 9.98 C
3595 10-11-2018 11:30:00 12.1 C 88 % 10.17 C
3596 10-11-2018 11:35:00 12.2 C 88 % 10.27 C
3597 10-11-2018 11:40:00 12.3 C 88 % 10.37 C
3598 10-11-2018 11:45:00 12.4 C 88 % 10.47 C
3599 10-11-2018 11:50:00 12.6 C 87 % 10.5 C
3600 10-11-2018 11:55:00 12.7 C 87 % 10.59 C
Sensor: Nr:Datum:Temp:Feuchte:Taupunkt:
Aussen-T/F 3601 10-11-2018 12:00:00 12.8 C 87 % 10.69 C
3602 10-11-2018 12:05:00 13 C 87 % 10.89 C
3603 10-11-2018 12:10:00 13.2 C 87 % 11.09 C
3604 10-11-2018 12:15:00 13.3 C 86 % 11.01 C
3605 10-11-2018 12:20:00 13.4 C 86 % 11.11 C
3606 10-11-2018 12:25:00 13.6 C 86 % 11.3 C
3607 10-11-2018 12:30:00 13.7 C 86 % 11.4 C
3608 10-11-2018 12:35:00 13.8 C 86 % 11.5 C
3609 10-11-2018 12:40:00 13.9 C 86 % 11.6 C
3610 10-11-2018 12:45:00 14.1 C 84 % 11.44 C
3611 10-11-2018 12:50:00 14.3 C 85 % 11.81 C
3612 10-11-2018 12:55:00 14.4 C 84 % 11.73 C
3613 10-11-2018 13:00:00 14.5 C 84 % 11.83 C
3614 10-11-2018 13:05:00 14.6 C 83 % 11.75 C
3615 10-11-2018 13:10:00 14.6 C 83 % 11.75 C
3616 10-11-2018 13:15:00 14.7 C 83 % 11.85 C
3617 10-11-2018 13:20:00 14.7 C 83 % 11.85 C
3618 10-11-2018 13:25:00 14.7 C 82 % 11.66 C
3619 10-11-2018 13:30:00 14.6 C 83 % 11.75 C
3620 10-11-2018 13:35:00 14.4 C 83 % 11.55 C
3621 10-11-2018 13:40:00 14.3 C 83 % 11.45 C
3622 10-11-2018 13:45:00 14.2 C 83 % 11.36 C
3623 10-11-2018 13:50:00 14.1 C 84 % 11.44 C
3624 10-11-2018 13:55:00 14 C 86 % 11.7 C
3625 10-11-2018 14:00:00 14 C 86 % 11.7 C
Sensor: Nr:Datum:Temp:Feuchte:Taupunkt:
Aussen-T/F 3626 10-11-2018 14:05:00 13.9 C 86 % 11.6 C
3627 10-11-2018 14:10:00 14 C 87 % 11.87 C
3628 10-11-2018 14:15:00 14 C 86 % 11.7 C
3629 10-11-2018 14:20:00 14.1 C 88 % 12.14 C
3630 10-11-2018 14:25:00 14.1 C 88 % 12.14 C
3631 10-11-2018 14:30:00 13.9 C 88 % 11.95 C
3632 10-11-2018 14:35:00 13.8 C 88 % 11.85 C
3633 10-11-2018 14:40:00 13.7 C 89 % 11.92 C
3634 10-11-2018 14:45:00 13.7 C 89 % 11.92 C
3635 10-11-2018 14:50:00 13.6 C 90 % 11.99 C
3636 10-11-2018 14:55:00 13.4 C 90 % 11.79 C
3637 10-11-2018 15:00:00 13.4 C 90 % 11.79 C
3638 10-11-2018 15:05:00 13.3 C 91 % 11.86 C
3639 10-11-2018 15:10:00 13.3 C 91 % 11.86 C
3640 10-11-2018 15:15:00 13.2 C 91 % 11.76 C
3641 10-11-2018 15:20:00 13.2 C 92 % 11.93 C
3642 10-11-2018 15:25:00 13.2 C 92 % 11.93 C
3643 10-11-2018 15:30:00 13.2 C 93 % 12.09 C
3644 10-11-2018 15:35:00 13.2 C 93 % 12.09 C
3645 10-11-2018 15:40:00 13.2 C 93 % 12.09 C
3646 10-11-2018 15:45:00 13.1 C 92 % 11.83 C
3647 10-11-2018 15:50:00 13.1 C 92 % 11.83 C
3648 10-11-2018 15:55:00 13 C 92 % 11.73 C
3649 10-11-2018 16:00:00 12.9 C 93 % 11.8 C
3650 10-11-2018 16:05:00 12.9 C 93 % 11.8 C
Sensor: Nr:Datum:Temp:Feuchte:Taupunkt:
Aussen-T/F 3651 10-11-2018 16:10:00 12.9 C 93 % 11.8 C
3652 10-11-2018 16:15:00 12.9 C 93 % 11.8 C
3653 10-11-2018 16:20:00 12.9 C 93 % 11.8 C
3654 10-11-2018 16:25:00 12.8 C 93 % 11.7 C
3655 10-11-2018 16:30:00 12.7 C 93 % 11.6 C
3656 10-11-2018 16:35:00 12.7 C 94 % 11.76 C
3657 10-11-2018 16:40:00 12.6 C 94 % 11.66 C
3658 10-11-2018 16:45:00 12.5 C 94 % 11.56 C
3659 10-11-2018 16:50:00 12.4 C 94 % 11.46 C
3660 10-11-2018 16:55:00 12.3 C 94 % 11.36 C
3661 10-11-2018 17:00:00 12.2 C 94 % 11.26 C
3662 10-11-2018 17:05:00 12.2 C 94 % 11.26 C
3663 10-11-2018 17:10:00 12.2 C 94 % 11.26 C
3664 10-11-2018 17:15:00 12.2 C 95 % 11.42 C
3665 10-11-2018 17:20:00 12.2 C 95 % 11.42 C
3666 10-11-2018 17:25:00 12.3 C 95 % 11.52 C
3667 10-11-2018 17:30:00 12.2 C 95 % 11.42 C
3668 10-11-2018 17:35:00 12.2 C 95 % 11.42 C
3669 10-11-2018 17:40:00 12.1 C 95 % 11.32 C
3670 10-11-2018 17:45:00 12.1 C 95 % 11.32 C
3671 10-11-2018 17:50:00 12 C 95 % 11.22 C
3672 10-11-2018 17:55:00 11.9 C 95 % 11.13 C
3673 10-11-2018 18:00:00 11.9 C 95 % 11.13 C
3674 10-11-2018 18:05:00 11.9 C 95 % 11.13 C
3675 10-11-2018 18:10:00 11.9 C 95 % 11.13 C
Sensor: Nr:Datum:Temp:Feuchte:Taupunkt:
Aussen-T/F 3676 10-11-2018 18:15:00 12 C 95 % 11.22 C
3677 10-11-2018 18:20:00 12.1 C 95 % 11.32 C
3678 10-11-2018 18:25:00 12.1 C 95 % 11.32 C
3679 10-11-2018 18:30:00 12.1 C 95 % 11.32 C
3680 10-11-2018 18:35:00 12.1 C 95 % 11.32 C
3681 10-11-2018 18:40:00 12.2 C 96 % 11.58 C
3682 10-11-2018 18:45:00 12.2 C 96 % 11.58 C
3683 10-11-2018 18:50:00 12.3 C 96 % 11.68 C
3684 10-11-2018 18:55:00 12.3 C 95 % 11.52 C
3685 10-11-2018 19:00:00 12.3 C 95 % 11.52 C
3686 10-11-2018 19:05:00 12.3 C 95 % 11.52 C
3687 10-11-2018 19:10:00 12.3 C 95 % 11.52 C
3688 10-11-2018 19:15:00 12.3 C 95 % 11.52 C
3689 10-11-2018 19:20:00 12.3 C 96 % 11.68 C
3690 10-11-2018 19:25:00 12.3 C 95 % 11.52 C
3691 10-11-2018 19:30:00 12.3 C 95 % 11.52 C
3692 10-11-2018 19:35:00 12.3 C 95 % 11.52 C
3693 10-11-2018 19:40:00 12.4 C 95 % 11.62 C
3694 10-11-2018 19:45:00 12.4 C 95 % 11.62 C
3695 10-11-2018 19:50:00 12.4 C 95 % 11.62 C
3696 10-11-2018 19:55:00 12.4 C 95 % 11.62 C
3697 10-11-2018 20:00:00 12.5 C 95 % 11.72 C
3698 10-11-2018 20:05:00 12.6 C 95 % 11.82 C
3699 10-11-2018 20:10:00 12.6 C 95 % 11.82 C
3700 10-11-2018 20:15:00 12.7 C 95 % 11.92 C
Sensor: Nr:Datum:Temp:Feuchte:Taupunkt:
Aussen-T/F 3701 10-11-2018 20:20:00 12.7 C 95 % 11.92 C
3702 10-11-2018 20:25:00 12.8 C 95 % 12.02 C
3703 10-11-2018 20:30:00 12.8 C 95 % 12.02 C
3704 10-11-2018 20:35:00 12.8 C 95 % 12.02 C
3705 10-11-2018 20:40:00 12.8 C 95 % 12.02 C
3706 10-11-2018 20:45:00 12.7 C 95 % 11.92 C
3707 10-11-2018 20:50:00 12.7 C 96 % 12.08 C
3708 10-11-2018 20:55:00 12.7 C 96 % 12.08 C
3709 10-11-2018 21:00:00 12.7 C 96 % 12.08 C
3710 10-11-2018 21:05:00 12.7 C 96 % 12.08 C
3711 10-11-2018 21:10:00 12.6 C 96 % 11.98 C
3712 10-11-2018 21:15:00 12.5 C 95 % 11.72 C
3713 10-11-2018 21:20:00 12.4 C 95 % 11.62 C
3714 10-11-2018 21:25:00 12.4 C 95 % 11.62 C
3715 10-11-2018 21:30:00 12.3 C 96 % 11.68 C
3716 10-11-2018 21:35:00 12.3 C 96 % 11.68 C
3717 10-11-2018 21:40:00 12.2 C 96 % 11.58 C
3718 10-11-2018 21:45:00 12.2 C 96 % 11.58 C
3719 10-11-2018 21:50:00 12.1 C 96 % 11.48 C
3720 10-11-2018 21:55:00 12.1 C 96 % 11.48 C
3721 10-11-2018 22:00:00 12 C 96 % 11.38 C
3722 10-11-2018 22:05:00 11.9 C 96 % 11.28 C
3723 10-11-2018 22:10:00 11.9 C 96 % 11.28 C
3724 10-11-2018 22:15:00 11.8 C 96 % 11.18 C
3725 10-11-2018 22:20:00 11.8 C 96 % 11.18 C
Sensor: Nr:Datum:Temp:Feuchte:Taupunkt:
Aussen-T/F 3726 10-11-2018 22:25:00 11.8 C 96 % 11.18 C
3727 10-11-2018 22:30:00 11.8 C 96 % 11.18 C
3728 10-11-2018 22:35:00 11.8 C 96 % 11.18 C
3729 10-11-2018 22:40:00 11.8 C 96 % 11.18 C
3730 10-11-2018 22:45:00 11.8 C 96 % 11.18 C
3731 10-11-2018 22:50:00 11.8 C 96 % 11.18 C
3732 10-11-2018 22:55:00 11.8 C 96 % 11.18 C
3733 10-11-2018 23:00:00 11.7 C 96 % 11.08 C
3734 10-11-2018 23:05:00 11.8 C 96 % 11.18 C
3735 10-11-2018 23:10:00 11.8 C 97 % 11.34 C
3736 10-11-2018 23:15:00 11.8 C 96 % 11.18 C
3737 10-11-2018 23:20:00 11.9 C 97 % 11.44 C
3738 10-11-2018 23:25:00 11.9 C 97 % 11.44 C
3739 10-11-2018 23:30:00 11.9 C 97 % 11.44 C
3740 10-11-2018 23:35:00 11.9 C 97 % 11.44 C
3741 10-11-2018 23:40:00 11.8 C 97 % 11.34 C
3742 10-11-2018 23:45:00 11.8 C 97 % 11.34 C
3743 10-11-2018 23:50:00 11.7 C 97 % 11.24 C
3744 10-11-2018 23:55:00 11.7 C 97 % 11.24 C
3745 11-11-2018 00:00:00 11.6 C 96 % 10.98 C
3746 11-11-2018 00:05:00 11.6 C 96 % 10.98 C
3747 11-11-2018 00:10:00 11.6 C 96 % 10.98 C
3748 11-11-2018 00:15:00 11.6 C 96 % 10.98 C
3749 11-11-2018 00:20:00 11.5 C 96 % 10.88 C
3750 11-11-2018 00:25:00 11.4 C 97 % 10.94 C
Sensor: Nr:Datum:Temp:Feuchte:Taupunkt:
Aussen-T/F 3751 11-11-2018 00:30:00 11.4 C 97 % 10.94 C
3752 11-11-2018 00:35:00 11.3 C 97 % 10.84 C
3753 11-11-2018 00:40:00 11.3 C 97 % 10.84 C
3754 11-11-2018 00:45:00 11.3 C 96 % 10.69 C
3755 11-11-2018 00:50:00 11.2 C 97 % 10.74 C
3756 11-11-2018 00:55:00 11.2 C 97 % 10.74 C
3757 11-11-2018 01:00:00 11.1 C 97 % 10.64 C
3758 11-11-2018 01:05:00 11.1 C 97 % 10.64 C
3759 11-11-2018 01:10:00 10.9 C 96 % 10.29 C
3760 11-11-2018 01:15:00 10.8 C 96 % 10.19 C
3761 11-11-2018 01:20:00 10.6 C 96 % 9.99 C
3762 11-11-2018 01:25:00 10.4 C 96 % 9.79 C
3763 11-11-2018 01:30:00 10.3 C 96 % 9.69 C
3764 11-11-2018 01:35:00 10.2 C 96 % 9.59 C
3765 11-11-2018 01:40:00 10.1 C 96 % 9.49 C
3766 11-11-2018 01:45:00 10.1 C 96 % 9.49 C
3767 11-11-2018 01:50:00 10.2 C 97 % 9.75 C
3768 11-11-2018 01:55:00 10.3 C 97 % 9.85 C
3769 11-11-2018 02:00:00 10.4 C 97 % 9.94 C
3770 11-11-2018 02:05:00 10.5 C 97 % 10.04 C
3771 11-11-2018 02:10:00 10.6 C 97 % 10.14 C
3772 11-11-2018 02:15:00 10.6 C 97 % 10.14 C
3773 11-11-2018 02:20:00 10.5 C 97 % 10.04 C
3774 11-11-2018 02:25:00 10.4 C 97 % 9.94 C
3775 11-11-2018 02:30:00 10.4 C 97 % 9.94 C
Sensor: Nr:Datum:Temp:Feuchte:Taupunkt:
Aussen-T/F 3776 11-11-2018 02:35:00 10.2 C 97 % 9.75 C
3777 11-11-2018 02:40:00 9.9 C 97 % 9.45 C
3778 11-11-2018 02:45:00 9.7 C 96 % 9.09 C
3779 11-11-2018 02:50:00 9.6 C 96 % 8.99 C
3780 11-11-2018 02:55:00 9.4 C 96 % 8.8 C
3781 11-11-2018 03:00:00 9.3 C 96 % 8.7 C
3782 11-11-2018 03:05:00 9.3 C 97 % 8.85 C
3783 11-11-2018 03:10:00 9.3 C 97 % 8.85 C
3784 11-11-2018 03:15:00 9.3 C 97 % 8.85 C
3785 11-11-2018 03:20:00 9.2 C 97 % 8.75 C
3786 11-11-2018 03:25:00 9.2 C 97 % 8.75 C
3787 11-11-2018 03:30:00 9.2 C 97 % 8.75 C
3788 11-11-2018 03:35:00 9.2 C 97 % 8.75 C
3789 11-11-2018 03:40:00 9.3 C 97 % 8.85 C
3790 11-11-2018 03:45:00 9.3 C 97 % 8.85 C
3791 11-11-2018 03:50:00 9.4 C 97 % 8.95 C
3792 11-11-2018 03:55:00 9.6 C 97 % 9.15 C
3793 11-11-2018 04:00:00 9.7 C 97 % 9.25 C
3794 11-11-2018 04:05:00 9.8 C 97 % 9.35 C
3795 11-11-2018 04:10:00 9.9 C 97 % 9.45 C
3796 11-11-2018 04:15:00 9.8 C 97 % 9.35 C
3797 11-11-2018 04:20:00 9.8 C 97 % 9.35 C
3798 11-11-2018 04:25:00 9.8 C 97 % 9.35 C
3799 11-11-2018 04:30:00 9.8 C 97 % 9.35 C
3800 11-11-2018 04:35:00 9.8 C 97 % 9.35 C
Sensor: Nr:Datum:Temp:Feuchte:Taupunkt:
Aussen-T/F 3801 11-11-2018 04:40:00 9.8 C 97 % 9.35 C
3802 11-11-2018 04:45:00 9.8 C 97 % 9.35 C
3803 11-11-2018 04:50:00 9.8 C 97 % 9.35 C
3804 11-11-2018 04:55:00 9.8 C 97 % 9.35 C
3805 11-11-2018 05:00:00 9.9 C 97 % 9.45 C
3806 11-11-2018 05:05:00 9.9 C 97 % 9.45 C
3807 11-11-2018 05:10:00 9.9 C 97 % 9.45 C
3808 11-11-2018 05:15:00 9.9 C 97 % 9.45 C
3809 11-11-2018 05:20:00 9.9 C 97 % 9.45 C
3810 11-11-2018 05:25:00 9.9 C 97 % 9.45 C
3811 11-11-2018 05:30:00 9.9 C 97 % 9.45 C
3812 11-11-2018 05:35:00 9.9 C 97 % 9.45 C
3813 11-11-2018 05:40:00 9.9 C 97 % 9.45 C
3814 11-11-2018 05:45:00 10 C 97 % 9.55 C
3815 11-11-2018 05:50:00 10 C 97 % 9.55 C
3816 11-11-2018 05:55:00 10.1 C 97 % 9.65 C
3817 11-11-2018 06:00:00 10.1 C 97 % 9.65 C
3818 11-11-2018 06:05:00 10.2 C 98 % 9.9 C
3819 11-11-2018 06:10:00 10.2 C 98 % 9.9 C
3820 11-11-2018 06:15:00 10.3 C 98 % 10 C
3821 11-11-2018 06:20:00 10.3 C 97 % 9.85 C
3822 11-11-2018 06:25:00 10.3 C 97 % 9.85 C
3823 11-11-2018 06:30:00 10.3 C 97 % 9.85 C
3824 11-11-2018 06:35:00 10.2 C 97 % 9.75 C
3825 11-11-2018 06:40:00 10.2 C 97 % 9.75 C
Sensor: Nr:Datum:Temp:Feuchte:Taupunkt:
Aussen-T/F 3826 11-11-2018 06:45:00 10.2 C 97 % 9.75 C
3827 11-11-2018 06:50:00 10.2 C 97 % 9.75 C
3828 11-11-2018 06:55:00 10.2 C 97 % 9.75 C
3829 11-11-2018 07:00:00 10.3 C 97 % 9.85 C
3830 11-11-2018 07:05:00 10.3 C 97 % 9.85 C
3831 11-11-2018 07:10:00 10.3 C 97 % 9.85 C
3832 11-11-2018 07:15:00 10.3 C 97 % 9.85 C
3833 11-11-2018 07:20:00 10.3 C 97 % 9.85 C
3834 11-11-2018 07:25:00 10.2 C 97 % 9.75 C
3835 11-11-2018 07:30:00 10.2 C 97 % 9.75 C
3836 11-11-2018 07:35:00 10.1 C 97 % 9.65 C
3837 11-11-2018 07:40:00 10 C 97 % 9.55 C
3838 11-11-2018 07:45:00 9.9 C 97 % 9.45 C
3839 11-11-2018 07:50:00 9.9 C 97 % 9.45 C
3840 11-11-2018 07:55:00 9.9 C 97 % 9.45 C
3841 11-11-2018 08:00:00 9.8 C 97 % 9.35 C
3842 11-11-2018 08:05:00 9.8 C 97 % 9.35 C
3843 11-11-2018 08:10:00 9.8 C 97 % 9.35 C
3844 11-11-2018 08:15:00 9.8 C 97 % 9.35 C
3845 11-11-2018 08:20:00 9.8 C 97 % 9.35 C
3846 11-11-2018 08:25:00 9.9 C 97 % 9.45 C
3847 11-11-2018 08:30:00 10.1 C 97 % 9.65 C
3848 11-11-2018 08:35:00 10.2 C 98 % 9.9 C
3849 11-11-2018 08:40:00 10.3 C 98 % 10 C
3850 11-11-2018 08:45:00 10.4 C 97 % 9.94 C
Sensor: Nr:Datum:Temp:Feuchte:Taupunkt:
Aussen-T/F 3851 11-11-2018 08:50:00 10.5 C 98 % 10.2 C
3852 11-11-2018 08:55:00 10.6 C 98 % 10.3 C
3853 11-11-2018 09:00:00 10.7 C 98 % 10.4 C
3854 11-11-2018 09:05:00 10.8 C 98 % 10.5 C
3855 11-11-2018 09:10:00 10.8 C 97 % 10.34 C
3856 11-11-2018 09:15:00 10.9 C 98 % 10.6 C
3857 11-11-2018 09:20:00 10.9 C 97 % 10.44 C
3858 11-11-2018 09:25:00 10.9 C 97 % 10.44 C
3859 11-11-2018 09:30:00 10.9 C 97 % 10.44 C
3860 11-11-2018 09:35:00 10.9 C 97 % 10.44 C
3861 11-11-2018 09:40:00 10.9 C 96 % 10.29 C
3862 11-11-2018 09:45:00 10.8 C 96 % 10.19 C
3863 11-11-2018 09:50:00 10.8 C 96 % 10.19 C
3864 11-11-2018 09:55:00 10.9 C 96 % 10.29 C
3865 11-11-2018 10:00:00 11.1 C 95 % 10.33 C
3866 11-11-2018 10:05:00 11.3 C 94 % 10.37 C
3867 11-11-2018 10:10:00 11.4 C 93 % 10.31 C
3868 11-11-2018 10:15:00 11.7 C 93 % 10.61 C
3869 11-11-2018 10:20:00 11.9 C 93 % 10.81 C
3870 11-11-2018 10:25:00 12.1 C 92 % 10.84 C
3871 11-11-2018 10:30:00 12.3 C 92 % 11.04 C
3872 11-11-2018 10:35:00 12.4 C 91 % 10.97 C
3873 11-11-2018 10:40:00 12.6 C 91 % 11.17 C
3874 11-11-2018 10:45:00 12.7 C 89 % 10.94 C
3875 11-11-2018 10:50:00 12.8 C 89 % 11.03 C
Sensor: Nr:Datum:Temp:Feuchte:Taupunkt:
Aussen-T/F 3876 11-11-2018 10:55:00 12.9 C 88 % 10.96 C
3877 11-11-2018 11:00:00 13.1 C 88 % 11.16 C
3878 11-11-2018 11:05:00 13.2 C 86 % 10.91 C
3879 11-11-2018 11:10:00 13.3 C 86 % 11.01 C
3880 11-11-2018 11:15:00 13.4 C 85 % 10.93 C
3881 11-11-2018 11:20:00 13.4 C 85 % 10.93 C
3882 11-11-2018 11:25:00 13.5 C 84 % 10.85 C
3883 11-11-2018 11:30:00 13.6 C 85 % 11.13 C
3884 11-11-2018 11:35:00 13.6 C 84 % 10.95 C
3885 11-11-2018 11:40:00 13.7 C 83 % 10.87 C
3886 11-11-2018 11:45:00 13.8 C 83 % 10.97 C
3887 11-11-2018 11:50:00 13.9 C 83 % 11.06 C
3888 11-11-2018 11:55:00 14.1 C 82 % 11.08 C
3889 11-11-2018 12:00:00 14.1 C 82 % 11.08 C
3890 11-11-2018 12:05:00 14.2 C 83 % 11.36 C
3891 11-11-2018 12:10:00 14.1 C 81 % 10.89 C
3892 11-11-2018 12:15:00 14.2 C 81 % 10.99 C
3893 11-11-2018 12:20:00 14.3 C 81 % 11.09 C
3894 11-11-2018 12:25:00 14.3 C 81 % 11.09 C
3895 11-11-2018 12:30:00 14.4 C 82 % 11.37 C
3896 11-11-2018 12:35:00 14.4 C 81 % 11.18 C
3897 11-11-2018 12:40:00 14.4 C 83 % 11.55 C
3898 11-11-2018 12:45:00 14.5 C 80 % 11.09 C
3899 11-11-2018 12:50:00 14.7